[[{"header":{"parameterUnit":"m.s-1","parameterCategory":1,"la1":31.0,"la2":29.5877,"lo1":-88.7671,"lo2":-86.6584,"dy":0.0162,"dx":0.0185,"nx":115,"ny":88,"refTime":"2023-11-03T06:00:00:Z","depth":0,"parameterNumber":2,"parameterNumberName":"U-component_of_WINDS"},"data":[0.0,0.0,0.0,0.0,0.0,0.0,0.0,0.0,0.0,0.0,0.0,0.0,0.0,0.0,0.0,0.0,0.0,0.0,0.0,0.0,0.0,0.0,0.0,0.0,0.0,0.0,0.0,0.0,0.0,0.0,0.0,0.0,0.0,0.0,0.0,0.0,0.0,0.0,0.0,0.0,0.0,0.0,0.0,0.0,0.0,0.0,0.0,0.0,0.0,0.0,0.0,0.0,0.0,0.0,0.0,0.0,0.0,0.0,0.0,0.0,0.0,0.0,0.0,0.0,0.0,0.0,0.0,0.0,0.0,0.0,0.0,0.0,0.0,0.0,0.0,0.0,0.0,0.0,0.0,0.0,0.0,0.0,0.0,0.0,0.0,0.0,0.0,0.0,0.0,0.0,0.0,0.0,0.0,0.0,0.0,0.0,0.0,0.0,0.0,0.0,0.0,0.0,0.0,0.0,0.0,0.0,0.0,0.0,0.0,0.0,0.0,0.0,0.0,0.0,0.0,0.0,0.0,0.0,0.0,0.0,0.0,0.0,0.0,0.0,0.0,0.0,0.0,0.0,0.0,0.0,0.0,0.0,0.0,0.0,0.0,0.0,0.0,0.0,0.0,0.0,0.0,0.0,0.0,0.0,0.0,0.0,0.0,0.0,0.0,0.0,0.0,0.0,0.0,0.0,0.0,0.0,0.0,0.0,0.0,0.0,0.0,0.0,0.0,0.0,0.0,0.0,0.0,0.0,0.0,0.0,0.0,0.0,0.0,0.0,0.0,0.0,0.0,0.0,0.0,0.0,0.0,0.0,0.0,0.0,0.0,0.0,0.0,0.0,0.0,0.0,0.0,0.0,0.0,0.0,0.0,0.0,0.0,0.0,0.0,0.0,0.0,0.0,0.0,0.0,0.0,0.0,0.0,0.0,0.0,0.0,0.0,0.0,0.0,0.0,0.0,0.0,0.0,0.0,0.0,0.0,0.0,0.0,0.0,0.0,0.0,0.0,0.0,0.0,0.0,0.0,0.0,0.0,0.0,0.0,0.0,0.0,0.0,0.0,0.0,0.0,0.0,0.0,0.0,0.0,0.0,0.0,0.0,0.0,0.0,0.0,0.0,0.0,0.0,0.0,0.0,0.0,0.0,0.0,0.0,0.0,0.0,0.0,0.0,0.0,0.0,0.0,0.0,0.0,0.0,0.0,0.0,0.0,0.0,0.0,0.0,0.0,0.0,0.0,0.0,0.0,0.0,0.0,0.0,0.0,0.0,0.0,0.0,0.0,0.0,0.0,0.0,0.0,0.0,0.0,0.0,0.0,0.0,0.0,0.0,0.0,0.0,0.0,0.0,0.0,0.0,0.0,0.0,0.0,0.0,0.0,0.0,0.0,0.0,0.0,0.0,0.0,0.0,0.0,0.0,0.0,0.0,0.0,0.0,0.0,0.0,0.0,0.0,0.0,0.0,0.0,0.0,0.0,0.0,0.0,0.0,0.0,0.0,0.0,0.0,0.0,0.0,0.0,0.0,0.0,0.0,0.0,0.0,0.0,0.0,0.0,0.0,0.0,0.0,0.0,0.0,0.0,0.0,0.0,0.0,0.0,0.0,0.0,0.0,0.0,0.0,0.0,0.0,0.0,0.0,0.0,0.0,0.0,0.0,0.0,0.0,0.0,0.0,0.0,0.0,0.0,0.0,0.0,0.0,0.0,0.0,0.0,0.0,0.0,0.0,0.0,0.0,0.0,0.0,0.0,0.0,0.0,0.0,0.0,0.0,0.0,0.0,0.0,0.0,0.0,0.0,0.0,0.0,0.0,0.0,0.0,0.0,0.0,0.0,0.0,0.0,0.0,0.0,0.0,0.0,0.0,0.0,0.0,0.0,0.0,0.0,0.0,0.0,0.0,0.0,0.0,0.0,0.0,0.0,0.0,0.0,0.0,0.0,0.0,0.0,0.0,0.0,0.0,0.0,0.0,0.0,0.0,0.0,0.0,0.0,0.0,0.0,0.0,0.0,0.0,0.0,0.0,0.0,0.0,0.0,0.0,0.0,0.0,0.0,0.0,0.0,0.0,0.0,0.0,0.0,0.0,0.0,0.0,0.0,0.0,0.0,0.0,0.0,0.0,0.0,0.0,0.0,0.0,0.0,0.0,0.0,0.0,0.0,0.0,0.0,0.0,0.0,0.0,0.0,0.0,0.0,0.0,0.0,0.0,0.0,0.0,0.0,0.0,0.0,0.0,0.0,0.0,0.0,0.0,0.0,0.0,0.0,0.0,0.0,0.0,0.0,0.0,0.0,0.0,0.0,0.0,0.0,0.0,0.0,0.0,0.0,0.0,0.0,0.0,0.0,0.0,0.0,0.0,0.0,0.0,0.0,0.0,0.0,0.0,0.0,0.0,0.0,0.0,0.0,0.0,0.0,0.0,0.0,0.0,0.0,0.0,0.0,0.0,0.0,0.0,0.0,0.0,0.0,0.0,0.0,0.0,0.0,0.0,0.0,0.0,0.0,0.0,0.0,0.0,0.0,0.0,0.0,0.0,0.0,0.0,0.0,0.0,0.0,0.0,0.0,0.0,0.0,0.0,0.0,0.0,0.0,0.0,0.0,0.0,0.0,0.0,0.0,0.0,0.0,0.0,0.0,0.0,0.0,0.0,0.0,0.0,0.0,0.0,0.0,0.0,0.0,0.0,0.0,0.0,0.0,0.0,0.0,0.0,0.0,0.0,0.0,0.0,0.0,0.0,0.0,0.0,0.0,0.0,0.0,0.0,0.0,0.0,0.0,0.0,0.0,0.0,0.0,0.0,0.0,0.0,0.0,0.0,0.0,0.0,0.0,0.0,0.0,0.0,0.0,0.0,0.0,0.0,0.0,0.0,0.0,0.0,0.0,0.0,0.0,0.0,0.0,0.0,0.0,0.0,0.0,0.0,0.0,0.0,0.0,0.0,0.0,0.0,0.0,0.0,0.0,0.0,0.0,0.0,0.0,0.0,0.0,0.0,0.0,0.0,0.0,0.0,0.0,0.0,0.0,0.0,0.0,0.0,0.0,0.0,0.0,0.0,0.0,0.0,0.0,0.0,0.0,0.0,0.0,0.0,0.0,0.0,0.0,0.0,0.0,0.0,0.0,0.0,0.0,0.0,0.0,0.0,0.0,0.0,0.0,0.0,0.0,0.0,0.0,0.0,0.0,0.0,0.0,0.0,0.0,0.0,0.0,0.0,0.0,0.0,0.0,0.0,0.0,0.0,0.0,0.0,0.0,0.0,0.0,0.0,0.0,0.0,0.0,0.0,0.0,0.0,0.0,0.0,0.0,0.0,0.0,0.0,0.0,0.0,0.0,0.0,0.0,0.0,0.0,0.0,0.0,0.0,0.0,0.0,0.0,0.0,0.0,0.0,0.0,0.0,0.0,0.0,0.0,0.0,0.0,0.0,0.0,0.0,0.0,0.0,0.0,0.0,0.0,0.0,0.0,0.0,0.0,0.0,0.0,0.0,0.0,0.0,0.0,0.0,0.0,0.0,0.0,0.0,0.0,0.0,0.0,0.0,0.0,0.0,0.0,0.0,0.0,0.0,0.0,0.0,0.0,0.0,0.0,0.0,0.0,0.0,0.0,0.0,0.0,0.0,0.0,0.0,0.0,0.0,0.0,0.0,0.0,0.0,0.0,0.0,0.0,0.0,0.0,0.0,0.0,0.0,0.0,0.0,0.0,0.0,0.0,0.0,0.0,0.0,0.0,0.0,0.0,0.0,0.0,0.0,0.0,0.0,0.0,0.0,0.0,0.0,0.0,0.0,0.0,0.0,0.0,0.0,0.0,0.0,0.0,0.0,0.0,0.0,0.0,0.0,0.0,0.0,0.0,0.0,0.0,0.0,0.0,0.0,0.0,0.0,0.0,0.0,0.0,0.0,0.0,0.0,0.0,0.0,0.0,0.0,0.0,0.0,0.0,0.0,0.0,0.0,0.0,0.0,0.0,0.0,0.0,0.0,0.0,0.0,0.0,0.0,0.0,0.0,0.0,0.0,0.0,0.0,0.0,0.0,0.0,0.0,0.0,0.0,0.0,0.0,0.0,0.0,0.0,0.0,0.0,0.0,0.0,0.0,0.0,0.0,0.0,0.0,0.0,0.0,0.0,0.0,0.0,0.0,0.0,0.0,0.0,0.0,0.0,0.0,0.0,0.0,0.0,0.0,0.0,0.0,0.0,0.0,0.0,0.0,0.0,0.0,0.0,0.0,0.0,0.0,0.0,0.0,0.0,0.0,0.0,0.0,0.0,0.0,-1.2254,0.0,0.0,0.0,0.0,0.0,0.0,0.0,0.0,0.0,0.0,0.0,0.0,0.0,0.0,0.0,0.0,0.0,0.0,0.0,0.0,0.0,0.0,0.0,0.0,0.0,0.0,0.0,0.0,0.0,0.0,0.0,0.0,0.0,0.0,0.0,0.0,0.0,0.0,0.0,0.0,0.0,0.0,0.0,0.0,0.0,0.0,0.0,0.0,0.0,0.0,0.0,0.0,0.0,0.0,0.0,0.0,0.0,0.0,0.0,0.0,0.0,0.0,0.0,0.0,0.0,0.0,0.0,0.0,0.0,0.0,0.0,0.0,0.0,0.0,0.0,0.0,0.0,0.0,0.0,0.0,0.0,0.0,0.0,0.0,0.0,0.0,0.0,0.0,0.0,0.0,0.0,0.0,0.0,0.0,0.0,0.0,0.0,0.0,0.0,0.0,0.0,0.0,0.0,0.0,0.0,0.0,0.0,0.0,0.0,0.0,-1.249,-1.2615,-1.2644,-1.2323,-1.1692,0.0,0.0,0.0,0.0,0.0,0.0,0.0,0.0,0.0,0.0,0.0,0.0,0.0,0.0,0.0,0.0,0.0,0.0,0.0,0.0,0.0,0.0,0.0,0.0,0.0,0.0,0.0,0.0,0.0,0.0,0.0,0.0,0.0,0.0,0.0,0.0,0.0,0.0,0.0,0.0,0.0,0.0,0.0,0.0,0.0,0.0,0.0,0.0,0.0,0.0,0.0,0.0,0.0,0.0,0.0,0.0,0.0,0.0,0.0,0.0,0.0,0.0,0.0,0.0,0.0,0.0,0.0,0.0,0.0,0.0,0.0,0.0,0.0,0.0,0.0,0.0,0.0,0.0,0.0,0.0,0.0,0.0,0.0,0.0,0.0,0.0,0.0,0.0,0.0,0.0,0.0,0.0,0.0,0.0,0.0,0.0,0.0,0.0,0.0,0.0,0.0,0.0,0.0,0.0,0.0,0.0,0.0,0.0,0.0,0.0,0.0,0.0,-1.233,-1.2012,-1.1346,0.0,0.0,0.0,0.0,0.0,0.0,0.0,0.0,0.0,0.0,0.0,0.0,0.0,0.0,0.0,0.0,0.0,0.0,0.0,0.0,0.0,0.0,0.0,0.0,0.0,0.0,0.0,0.0,0.0,0.0,0.0,0.0,0.0,0.0,0.0,0.0,0.0,0.0,0.0,0.0,0.0,0.0,0.0,0.0,0.0,0.0,0.0,0.0,0.0,0.0,0.0,0.0,0.0,0.0,0.0,0.0,0.0,0.0,0.0,0.0,0.0,0.0,0.0,0.0,0.0,0.0,0.0,0.0,0.0,0.0,0.0,0.0,0.0,0.0,0.0,0.0,0.0,0.0,0.0,0.0,0.0,0.0,0.0,0.0,0.0,0.0,0.0,0.0,0.0,0.0,0.0,0.0,0.0,0.0,0.0,0.0,0.0,0.0,0.0,0.0,0.0,0.0,0.0,0.0,0.0,0.0,0.0,0.0,0.0,0.0,-1.2138,-1.221,-1.2168,0.0,-1.1671,0.0,0.0,0.0,0.0,0.0,0.0,0.0,0.0,0.0,0.0,0.0,0.0,0.0,0.0,0.0,0.0,0.0,0.0,0.0,0.0,0.0,0.0,0.0,0.0,0.0,0.0,0.0,0.0,0.0,0.0,0.0,0.0,0.0,0.0,0.0,0.0,0.0,0.0,0.0,0.0,0.0,0.0,0.0,0.0,0.0,0.0,0.0,0.0,0.0,0.0,0.0,0.0,0.0,0.0,0.0,0.0,0.0,0.0,0.0,0.0,0.0,0.0,0.0,0.0,0.0,0.0,0.0,0.0,0.0,0.0,0.0,0.0,0.0,0.0,0.0,0.0,0.0,0.0,0.0,0.0,0.0,0.0,0.0,0.0,0.0,0.0,0.0,0.0,0.0,0.0,0.0,0.0,0.0,0.0,0.0,0.0,0.0,0.0,0.0,0.0,0.0,0.0,0.0,0.0,0.0,0.0,0.0,0.0,0.0,0.0,-1.2034,-1.2138,-1.1986,-1.1874,0.0,0.0,0.0,0.0,0.0,0.0,0.0,0.0,0.0,0.0,0.0,0.0,0.0,0.0,0.0,0.0,0.0,0.0,0.0,0.0,0.0,0.0,0.0,0.0,0.0,0.0,0.0,0.0,0.0,0.0,0.0,0.0,0.0,0.0,0.0,0.0,0.0,0.0,0.0,0.0,0.0,0.0,0.0,0.0,0.0,0.0,0.0,0.0,0.0,0.0,0.0,0.0,0.0,0.0,0.0,0.0,0.0,0.0,0.0,0.0,0.0,0.0,0.0,0.0,0.0,0.0,0.0,0.0,0.0,0.0,0.0,0.0,0.0,0.0,0.0,0.0,0.0,0.0,0.0,0.0,0.0,0.0,0.0,0.0,0.0,0.0,0.0,0.0,0.0,0.0,0.0,0.0,0.0,0.0,0.0,0.0,0.0,0.0,0.0,0.0,0.0,0.0,0.0,0.0,0.0,0.0,0.0,0.0,0.0,0.0,-1.1863,-1.1943,-1.2023,-1.1899,-1.1733,-1.1563,0.0,0.0,0.0,0.0,0.0,0.0,0.0,0.0,0.0,0.0,0.0,0.0,0.0,0.0,0.0,0.0,0.0,0.0,0.0,0.0,0.0,0.0,0.0,0.0,0.0,0.0,0.0,0.0,0.0,0.0,0.0,0.0,0.0,0.0,0.0,0.0,0.0,0.0,0.0,0.0,0.0,0.0,0.0,0.0,0.0,0.0,0.0,0.0,0.0,0.0,0.0,0.0,0.0,0.0,0.0,0.0,0.0,0.0,0.0,0.0,0.0,0.0,0.0,0.0,0.0,0.0,0.0,0.0,0.0,0.0,0.0,0.0,0.0,0.0,0.0,0.0,0.0,0.0,0.0,0.0,0.0,0.0,0.0,0.0,0.0,0.0,0.0,0.0,0.0,0.0,0.0,0.0,0.0,0.0,0.0,0.0,0.0,0.0,0.0,0.0,0.0,0.0,0.0,0.0,0.0,0.0,0.0,0.0,-1.18,-1.1874,-1.1899,-1.1906,-1.1899,-1.1602,0.0,0.0,0.0,0.0,0.0,0.0,0.0,0.0,0.0,0.0,0.0,0.0,0.0,0.0,0.0,0.0,0.0,0.0,0.0,0.0,0.0,0.0,0.0,0.0,0.0,0.0,0.0,0.0,0.0,0.0,0.0,0.0,0.0,0.0,0.0,0.0,0.0,0.0,0.0,0.0,0.0,0.0,0.0,0.0,0.0,0.0,0.0,0.0,0.0,0.0,0.0,0.0,0.0,0.0,0.0,0.0,0.0,0.0,0.0,0.0,0.0,0.0,0.0,0.0,0.0,0.0,0.0,0.0,0.0,0.0,0.0,0.0,0.0,0.0,0.0,0.0,0.0,0.0,0.0,0.0,0.0,0.0,0.0,0.0,0.0,0.0,0.0,0.0,0.0,0.0,0.0,0.0,0.0,0.0,0.0,0.0,0.0,0.0,0.0,0.0,0.0,0.0,0.0,0.0,0.0,0.0,0.0,0.0,0.0,-1.1979,-1.2143,-1.2215,-1.2215,-1.2095,-1.1758,0.0,0.0,0.0,0.0,0.0,0.0,0.0,0.0,0.0,0.0,0.0,0.0,0.0,0.0,0.0,0.0,0.0,0.0,0.0,0.0,0.0,0.0,0.0,0.0,0.0,0.0,0.0,0.0,0.0,0.0,0.0,0.0,0.0,0.0,0.0,0.0,0.0,0.0,0.0,0.0,0.0,0.0,0.0,0.0,0.0,0.0,0.0,0.0,0.0,0.0,0.0,0.0,0.0,0.0,0.0,0.0,0.0,0.0,0.0,0.0,0.0,0.0,0.0,0.0,0.0,0.0,0.0,0.0,0.0,0.0,0.0,0.0,0.0,0.0,0.0,0.0,0.0,0.0,0.0,0.0,0.0,0.0,0.0,0.0,0.0,0.0,0.0,0.0,0.0,0.0,0.0,0.0,0.0,0.0,0.0,0.0,0.0,0.0,0.0,0.0,0.0,0.0,0.0,0.0,0.0,0.0,0.0,0.0,0.0,-1.26,0.0,-1.3089,-1.2914,-1.2758,-1.2265,0.0,0.0,0.0,0.0,0.0,0.0,0.0,0.0,0.0,0.0,0.0,0.0,0.0,0.0,0.0,0.0,0.0,0.0,0.0,0.0,0.0,0.0,0.0,0.0,0.0,0.0,0.0,0.0,0.0,0.0,0.0,0.0,0.0,0.0,0.0,0.0,0.0,0.0,0.0,0.0,0.0,0.0,0.0,0.0,0.0,0.0,0.0,0.0,0.0,0.0,0.0,0.0,0.0,0.0,0.0,0.0,0.0,0.0,0.0,0.0,0.0,0.0,0.0,0.0,0.0,0.0,0.0,0.0,0.0,0.0,0.0,0.0,0.0,0.0,0.0,0.0,0.0,0.0,0.0,0.0,0.0,0.0,0.0,0.0,0.0,0.0,0.0,0.0,0.0,0.0,0.0,0.0,0.0,0.0,0.0,0.0,0.0,0.0,0.0,0.0,0.0,0.0,0.0,0.0,0.0,0.0,0.0,0.0,-1.2592,-1.3705,-1.4412,-1.4525,-1.4037,-1.3864,-1.313,0.0,0.0,0.0,0.0,0.0,0.0,0.0,0.0,0.0,0.0,0.0,0.0,0.0,0.0,0.0,0.0,0.0,0.0,0.0,0.0,0.0,0.0,0.0,0.0,0.0,0.0,0.0,0.0,0.0,0.0,0.0,0.0,0.0,0.0,0.0,0.0,0.0,0.0,0.0,0.0,0.0,0.0,0.0,0.0,0.0,0.0,0.0,0.0,0.0,0.0,0.0,0.0,0.0,0.0,0.0,0.0,0.0,0.0,0.0,0.0,0.0,0.0,0.0,0.0,0.0,0.0,0.0,0.0,0.0,0.0,0.0,0.0,0.0,0.0,0.0,0.0,0.0,0.0,0.0,0.0,0.0,0.0,0.0,0.0,0.0,0.0,0.0,0.0,0.0,0.0,0.0,0.0,0.0,0.0,0.0,0.0,0.0,0.0,0.0,0.0,0.0,0.0,0.0,0.0,0.0,0.0,0.0,0.0,0.0,-1.5038,-1.5496,-1.5716,-1.5586,-1.4866,-1.4037,0.0,0.0,0.0,0.0,0.0,0.0,0.0,0.0,0.0,0.0,0.0,0.0,0.0,0.0,0.0,0.0,0.0,0.0,0.0,0.0,0.0,0.0,0.0,0.0,0.0,0.0,0.0,0.0,0.0,0.0,0.0,0.0,0.0,0.0,0.0,0.0,0.0,0.0,0.0,0.0,0.0,0.0,0.0,0.0,0.0,0.0,0.0,0.0,0.0,0.0,0.0,0.0,0.0,0.0,0.0,0.0,0.0,0.0,0.0,0.0,0.0,0.0,0.0,0.0,0.0,0.0,0.0,0.0,0.0,0.0,0.0,0.0,0.0,0.0,0.0,0.0,0.0,0.0,0.0,0.0,0.0,0.0,0.0,0.0,0.0,0.0,0.0,0.0,0.0,0.0,0.0,0.0,0.0,0.0,0.0,0.0,0.0,0.0,0.0,0.0,0.0,0.0,0.0,0.0,0.0,0.0,0.0,0.0,0.0,-1.8296,-1.8469,-1.8358,-1.791,-1.7141,-1.5997,-1.4379,0.0,0.0,0.0,0.0,0.0,0.0,0.0,0.0,0.0,0.0,0.0,0.0,0.0,0.0,0.0,0.0,0.0,0.0,0.0,0.0,0.0,0.0,0.0,0.0,0.0,0.0,0.0,0.0,0.0,0.0,0.0,0.0,0.0,0.0,0.0,0.0,0.0,0.0,0.0,0.0,0.0,0.0,0.0,0.0,0.0,0.0,0.0,0.0,0.0,0.0,0.0,0.0,0.0,0.0,0.0,0.0,0.0,0.0,0.0,0.0,0.0,0.0,0.0,0.0,0.0,0.0,0.0,0.0,0.0,0.0,0.0,0.0,0.0,0.0,0.0,0.0,0.0,0.0,0.0,0.0,0.0,0.0,0.0,0.0,0.0,0.0,0.0,0.0,0.0,0.0,0.0,0.0,0.0,0.0,0.0,0.0,0.0,0.0,0.0,0.0,0.0,0.0,0.0,0.0,0.0,0.0,0.0,0.0,-2.2912,-2.2995,-2.2323,-2.083,-2.0302,-1.8681,0.0,0.0,0.0,0.0,0.0,0.0,0.0,0.0,0.0,0.0,0.0,0.0,0.0,0.0,0.0,0.0,0.0,0.0,0.0,0.0,0.0,0.0,0.0,0.0,0.0,0.0,0.0,0.0,0.0,0.0,0.0,0.0,0.0,0.0,0.0,0.0,0.0,0.0,0.0,0.0,0.0,0.0,0.0,0.0,0.0,0.0,0.0,0.0,0.0,0.0,0.0,0.0,0.0,0.0,0.0,0.0,0.0,0.0,0.0,0.0,0.0,0.0,0.0,0.0,0.0,0.0,0.0,0.0,0.0,0.0,0.0,0.0,0.0,0.0,0.0,0.0,0.0,0.0,0.0,0.0,0.0,0.0,0.0,0.0,0.0,0.0,0.0,0.0,0.0,0.0,0.0,0.0,0.0,0.0,0.0,0.0,0.0,0.0,0.0,0.0,0.0,0.0,0.0,0.0,0.0,0.0,0.0,0.0,0.0,-2.5696,-2.75,-2.6838,-2.3585,-2.1754,-2.0162,0.0,0.0,0.0,0.0,0.0,0.0,0.0,0.0,0.0,0.0,0.0,0.0,0.0,0.0,0.0,0.0,0.0,0.0,0.0,0.0,0.0,0.0,0.0,0.0,0.0,0.0,0.0,0.0,0.0,0.0,0.0,0.0,0.0,0.0,0.0,0.0,0.0,0.0,0.0,0.0,0.0,0.0,0.0,0.0,0.0,0.0,0.0,0.0,0.0,0.0,0.0,0.0,0.0,0.0,0.0,0.0,0.0,0.0,0.0,0.0,0.0,0.0,0.0,0.0,0.0,0.0,0.0,0.0,0.0,0.0,0.0,0.0,0.0,0.0,0.0,0.0,0.0,0.0,0.0,0.0,0.0,0.0,0.0,0.0,0.0,0.0,0.0,0.0,0.0,0.0,0.0,0.0,0.0,0.0,0.0,0.0,0.0,0.0,0.0,0.0,0.0,0.0,0.0,0.0,0.0,0.0,0.0,0.0,-2.6079,-2.7855,-3.0119,-3.0058,-2.7405,-2.4932,-2.2566,0.0,0.0,0.0,0.0,0.0,0.0,0.0,0.0,0.0,0.0,0.0,0.0,0.0,0.0,0.0,0.0,0.0,0.0,0.0,0.0,0.0,0.0,0.0,0.0,0.0,0.0,0.0,0.0,0.0,0.0,0.0,0.0,0.0,0.0,0.0,0.0,0.0,0.0,0.0,0.0,0.0,0.0,0.0,0.0,0.0,0.0,0.0,0.0,0.0,0.0,0.0,0.0,0.0,0.0,0.0,0.0,0.0,0.0,0.0,0.0,0.0,0.0,0.0,0.0,0.0,0.0,0.0,0.0,0.0,0.0,0.0,0.0,0.0,0.0,0.0,0.0,0.0,0.0,0.0,0.0,0.0,0.0,0.0,0.0,0.0,0.0,0.0,0.0,0.0,0.0,0.0,0.0,0.0,0.0,0.0,0.0,0.0,0.0,0.0,0.0,0.0,0.0,0.0,0.0,0.0,0.0,0.0,0.0,-2.7981,-2.9521,-3.1534,-3.2187,-3.1281,-2.8611,-2.5306,0.0,0.0,0.0,0.0,0.0,0.0,0.0,0.0,0.0,0.0,0.0,0.0,0.0,0.0,0.0,0.0,0.0,0.0,0.0,0.0,0.0,0.0,0.0,0.0,0.0,0.0,0.0,0.0,0.0,0.0,0.0,0.0,0.0,0.0,0.0,0.0,0.0,0.0,0.0,0.0,0.0,0.0,0.0,0.0,0.0,0.0,0.0,0.0,0.0,0.0,0.0,0.0,0.0,0.0,0.0,0.0,0.0,0.0,0.0,0.0,0.0,0.0,0.0,0.0,0.0,0.0,0.0,0.0,0.0,0.0,0.0,0.0,0.0,0.0,0.0,0.0,0.0,0.0,0.0,0.0,0.0,0.0,0.0,0.0,0.0,0.0,0.0,0.0,0.0,0.0,0.0,0.0,0.0,0.0,0.0,0.0,0.0,0.0,0.0,0.0,0.0,0.0,0.0,0.0,0.0,0.0,0.0,0.0,-2.863,-3.09,-3.243,-3.2873,-3.2156,-2.9119,-2.6429,0.0,0.0,0.0,0.0,0.0,0.0,0.0,0.0,0.0,0.0,0.0,0.0,0.0,0.0,0.0,0.0,0.0,0.0,0.0,0.0,0.0,0.0,0.0,0.0,0.0,0.0,0.0,0.0,0.0,0.0,0.0,0.0,0.0,0.0,0.0,0.0,0.0,0.0,0.0,0.0,0.0,0.0,0.0,0.0,0.0,0.0,0.0,0.0,-1.3849,0.0,0.0,0.0,0.0,0.0,0.0,0.0,0.0,0.0,0.0,0.0,0.0,0.0,0.0,0.0,0.0,0.0,0.0,0.0,0.0,0.0,0.0,0.0,0.0,0.0,0.0,0.0,0.0,0.0,0.0,0.0,0.0,0.0,0.0,0.0,0.0,0.0,0.0,0.0,0.0,0.0,0.0,0.0,0.0,0.0,0.0,0.0,0.0,0.0,0.0,0.0,0.0,0.0,0.0,0.0,0.0,0.0,0.0,0.0,-2.9488,-3.1923,-3.2943,-3.3248,-3.2791,-3.0718,-2.8375,0.0,0.0,0.0,0.0,0.0,0.0,0.0,0.0,0.0,0.0,0.0,0.0,0.0,0.0,0.0,0.0,0.0,0.0,0.0,0.0,0.0,0.0,0.0,0.0,0.0,0.0,0.0,0.0,0.0,0.0,0.0,0.0,0.0,0.0,0.0,0.0,0.0,0.0,0.0,0.0,0.0,0.0,0.0,0.0,0.0,0.0,0.0,0.0,0.0,0.0,0.0,0.0,0.0,0.0,0.0,0.0,0.0,0.0,0.0,0.0,0.0,0.0,0.0,0.0,0.0,0.0,0.0,0.0,0.0,0.0,0.0,0.0,0.0,0.0,0.0,0.0,0.0,0.0,0.0,0.0,0.0,0.0,0.0,0.0,0.0,0.0,0.0,0.0,0.0,0.0,0.0,0.0,0.0,0.0,0.0,0.0,0.0,0.0,0.0,0.0,0.0,0.0,0.0,0.0,0.0,0.0,0.0,-2.7798,-3.0386,-3.2693,-3.3253,-3.3448,-3.339,-3.2466,-3.0362,-2.7041,0.0,0.0,0.0,0.0,0.0,0.0,0.0,0.0,0.0,0.0,0.0,0.0,0.0,0.0,0.0,0.0,0.0,0.0,0.0,0.0,0.0,0.0,0.0,0.0,0.0,0.0,0.0,0.0,0.0,0.0,0.0,0.0,0.0,0.0,0.0,0.0,0.0,0.0,-0.8959,-1.2338,0.0,0.0,0.0,0.0,0.0,0.0,0.0,0.0,-1.8087,0.0,0.0,0.0,0.0,0.0,0.0,0.0,0.0,0.0,0.0,0.0,0.0,0.0,0.0,0.0,0.0,0.0,0.0,0.0,0.0,0.0,0.0,0.0,0.0,0.0,0.0,0.0,0.0,0.0,0.0,0.0,0.0,0.0,0.0,0.0,0.0,0.0,0.0,0.0,0.0,0.0,0.0,0.0,0.0,0.0,0.0,0.0,0.0,0.0,0.0,0.0,0.0,0.0,0.0,0.0,0.0,-2.6513,-2.8932,-3.1198,-3.322,-3.3364,-3.3437,-3.3462,-3.2862,-3.1262,-2.8442,0.0,0.0,0.0,0.0,0.0,0.0,0.0,0.0,0.0,0.0,0.0,0.0,0.0,0.0,0.0,0.0,0.0,0.0,0.0,0.0,0.0,0.0,0.0,0.0,0.0,0.0,0.0,0.0,0.0,0.0,0.0,0.0,0.0,0.0,0.0,0.0,0.0,0.0,0.0,-1.4399,-1.646,0.0,0.0,0.0,0.0,0.0,0.0,0.0,0.0,-1.8745,0.0,0.0,0.0,0.0,0.0,0.0,0.0,0.0,0.0,0.0,0.0,0.0,0.0,0.0,0.0,0.0,0.0,0.0,0.0,0.0,0.0,0.0,0.0,0.0,0.0,0.0,0.0,0.0,0.0,0.0,0.0,0.0,0.0,0.0,0.0,0.0,0.0,0.0,0.0,0.0,0.0,0.0,0.0,0.0,0.0,0.0,0.0,0.0,0.0,0.0,0.0,0.0,0.0,0.0,0.0,-2.707,-3.0058,-3.2338,-3.3961,-3.4012,-3.4042,-3.4054,-3.3174,-3.1424,0.0,0.0,0.0,0.0,0.0,0.0,0.0,0.0,0.0,0.0,0.0,0.0,0.0,0.0,0.0,0.0,0.0,0.0,0.0,0.0,0.0,0.0,0.0,0.0,0.0,0.0,0.0,0.0,0.0,0.0,0.0,0.0,0.0,0.0,0.0,0.0,0.0,0.0,0.0,0.0,-1.6327,-1.8319,-2.0361,0.0,0.0,0.0,0.0,0.0,0.0,-2.1636,-2.0283,0.0,0.0,0.0,0.0,0.0,0.0,0.0,0.0,0.0,0.0,0.0,0.0,0.0,0.0,0.0,0.0,0.0,0.0,0.0,0.0,0.0,0.0,0.0,0.0,0.0,0.0,0.0,0.0,0.0,0.0,0.0,0.0,0.0,0.0,0.0,0.0,0.0,0.0,0.0,0.0,0.0,0.0,0.0,0.0,0.0,0.0,0.0,0.0,0.0,0.0,0.0,0.0,0.0,0.0,0.0,-2.7891,-3.1338,-3.3661,-3.4775,-3.4842,-3.4826,-3.4808,-3.3525,-3.1533,0.0,0.0,0.0,0.0,0.0,0.0,0.0,0.0,0.0,0.0,0.0,0.0,0.0,0.0,0.0,0.0,0.0,0.0,0.0,0.0,0.0,0.0,0.0,0.0,0.0,0.0,0.0,0.0,0.0,0.0,0.0,0.0,0.0,0.0,0.0,0.0,0.0,0.0,0.0,0.0,0.0,-1.9869,-2.1974,-2.2127,0.0,0.0,0.0,0.0,-2.3511,-2.2845,0.0,0.0,0.0,0.0,0.0,0.0,0.0,0.0,0.0,0.0,0.0,0.0,0.0,0.0,0.0,0.0,0.0,0.0,0.0,0.0,0.0,0.0,0.0,0.0,0.0,0.0,0.0,0.0,0.0,0.0,0.0,0.0,0.0,0.0,0.0,0.0,0.0,0.0,0.0,0.0,0.0,0.0,0.0,0.0,0.0,0.0,0.0,0.0,0.0,0.0,0.0,0.0,0.0,0.0,0.0,0.0,-2.9593,-3.3038,-3.5073,-3.5643,-3.5659,-3.5677,-3.5641,-3.4021,-3.2032,0.0,0.0,0.0,0.0,0.0,0.0,0.0,0.0,0.0,0.0,0.0,0.0,0.0,0.0,0.0,0.0,0.0,0.0,0.0,0.0,0.0,0.0,0.0,0.0,0.0,0.0,0.0,0.0,0.0,0.0,0.0,0.0,0.0,0.0,0.0,0.0,0.0,0.0,0.0,0.0,0.0,-2.0365,-2.2878,-2.3324,-2.3367,0.0,0.0,-2.3977,-2.4405,-2.4019,0.0,0.0,0.0,0.0,0.0,0.0,0.0,0.0,0.0,0.0,0.0,0.0,0.0,0.0,0.0,0.0,0.0,0.0,0.0,0.0,0.0,0.0,0.0,0.0,0.0,0.0,0.0,0.0,0.0,0.0,0.0,0.0,0.0,0.0,0.0,0.0,0.0,0.0,0.0,0.0,0.0,0.0,0.0,0.0,0.0,0.0,0.0,0.0,0.0,0.0,0.0,0.0,0.0,0.0,0.0,-2.7552,-3.0624,-3.4287,-3.6291,-3.6472,-3.649,-3.6472,-3.6472,-3.4393,-3.2136,0.0,0.0,0.0,0.0,0.0,0.0,0.0,0.0,0.0,0.0,0.0,0.0,0.0,0.0,0.0,0.0,0.0,0.0,0.0,0.0,0.0,0.0,0.0,0.0,0.0,0.0,0.0,0.0,0.0,0.0,0.0,0.0,0.0,0.0,0.0,0.0,0.0,0.0,0.0,0.0,0.0,0.0,-2.3046,-2.4191,0.0,0.0,0.0,-2.5019,-2.5093,0.0,0.0,0.0,0.0,0.0,0.0,0.0,0.0,0.0,0.0,0.0,0.0,0.0,0.0,0.0,0.0,0.0,0.0,0.0,0.0,0.0,0.0,0.0,0.0,0.0,0.0,0.0,0.0,0.0,0.0,0.0,0.0,0.0,0.0,0.0,0.0,0.0,0.0,0.0,0.0,0.0,0.0,0.0,0.0,0.0,0.0,0.0,0.0,0.0,0.0,0.0,0.0,0.0,0.0,0.0,0.0,0.0,-3.1559,-3.533,-3.7303,-3.7285,-3.7303,-3.7285,-3.725,-3.5189,0.0,0.0,0.0,0.0,0.0,0.0,0.0,0.0,0.0,0.0,0.0,0.0,0.0,0.0,0.0,0.0,0.0,0.0,0.0,0.0,0.0,0.0,0.0,0.0,0.0,0.0,0.0,-1.0309,0.0,0.0,0.0,0.0,0.0,0.0,0.0,0.0,0.0,0.0,0.0,0.0,0.0,0.0,-2.1405,-2.3681,-2.521,-2.6094,0.0,0.0,-2.6031,-2.5951,-2.5425,-2.442,0.0,0.0,0.0,0.0,0.0,0.0,0.0,0.0,0.0,0.0,0.0,0.0,0.0,0.0,0.0,0.0,0.0,0.0,0.0,0.0,0.0,0.0,0.0,0.0,0.0,0.0,0.0,0.0,0.0,0.0,0.0,0.0,0.0,0.0,0.0,0.0,0.0,0.0,0.0,0.0,0.0,0.0,0.0,0.0,0.0,0.0,0.0,0.0,0.0,0.0,0.0,0.0,0.0,0.0,-2.9972,-3.2536,-3.622,-3.8118,-3.8118,-3.8136,-3.8118,-3.8101,-3.6825,-3.4886,0.0,0.0,0.0,0.0,0.0,0.0,0.0,0.0,0.0,0.0,0.0,0.0,0.0,0.0,0.0,0.0,0.0,0.0,0.0,0.0,0.0,0.0,0.0,0.0,0.0,0.0,0.0,0.0,0.0,0.0,0.0,0.0,0.0,0.0,0.0,0.0,0.0,0.0,0.0,0.0,0.0,-2.32,-2.5356,-2.657,-2.7169,0.0,-2.6924,-2.7031,-2.7063,-2.6978,-2.6473,-2.5232,0.0,0.0,0.0,0.0,0.0,0.0,0.0,0.0,0.0,0.0,0.0,0.0,0.0,0.0,0.0,0.0,0.0,0.0,0.0,0.0,0.0,0.0,0.0,0.0,0.0,0.0,0.0,0.0,0.0,0.0,0.0,0.0,0.0,0.0,0.0,0.0,0.0,0.0,0.0,0.0,0.0,0.0,0.0,0.0,0.0,0.0,0.0,0.0,0.0,0.0,0.0,0.0,0.0,-3.0528,-3.3313,-3.6542,-3.8209,-3.8209,-3.8209,-3.8209,-3.8209,-3.7003,-3.5455,0.0,0.0,0.0,0.0,0.0,0.0,0.0,0.0,0.0,0.0,0.0,0.0,0.0,0.0,0.0,0.0,0.0,0.0,0.0,0.0,0.0,0.0,0.0,0.0,0.0,0.0,0.0,0.0,-2.0217,-2.1332,-2.0864,0.0,0.0,0.0,0.0,0.0,0.0,0.0,0.0,0.0,0.0,-2.4321,-2.6089,-2.7432,0.0,0.0,-2.8132,-2.8276,-2.8584,-2.821,-2.752,-2.6416,-2.4966,0.0,0.0,0.0,0.0,0.0,0.0,0.0,0.0,0.0,0.0,0.0,0.0,0.0,0.0,0.0,0.0,0.0,0.0,0.0,0.0,0.0,0.0,0.0,0.0,0.0,0.0,0.0,0.0,0.0,0.0,0.0,0.0,0.0,0.0,0.0,0.0,0.0,0.0,0.0,0.0,0.0,0.0,0.0,0.0,0.0,0.0,0.0,0.0,0.0,0.0,0.0,0.0,-3.1348,-3.4165,-3.6827,-3.8209,-3.8209,-3.8209,-3.8209,-3.8192,-3.7375,-3.6239,0.0,0.0,0.0,0.0,0.0,0.0,0.0,0.0,0.0,0.0,0.0,0.0,0.0,0.0,0.0,0.0,0.0,0.0,0.0,0.0,0.0,0.0,0.0,0.0,0.0,0.0,0.0,0.0,-2.2605,-2.3158,-2.1872,0.0,0.0,0.0,0.0,0.0,0.0,0.0,0.0,0.0,0.0,-2.593,-2.7585,-2.8849,-2.9648,-2.9674,-2.9685,-2.9774,-3.003,-2.9603,-2.8956,-2.8117,0.0,0.0,0.0,0.0,0.0,0.0,0.0,0.0,0.0,0.0,0.0,0.0,0.0,0.0,0.0,0.0,0.0,0.0,0.0,0.0,0.0,0.0,0.0,0.0,0.0,0.0,0.0,0.0,0.0,0.0,-1.5016,0.0,0.0,0.0,0.0,0.0,0.0,0.0,0.0,0.0,0.0,0.0,0.0,0.0,0.0,0.0,0.0,0.0,0.0,0.0,0.0,0.0,0.0,-3.2618,-3.5051,-3.7131,-3.8209,-3.8209,-3.8209,-3.8209,-3.8192,-3.8174,-3.7484,-3.606,0.0,0.0,0.0,0.0,0.0,0.0,0.0,0.0,0.0,0.0,0.0,0.0,0.0,0.0,0.0,0.0,0.0,0.0,0.0,0.0,0.0,0.0,0.0,0.0,0.0,0.0,-2.1827,-2.3249,-2.3486,0.0,0.0,0.0,0.0,0.0,0.0,0.0,0.0,0.0,0.0,-2.6574,-2.832,-3.0128,-3.101,-3.1472,-3.1666,-3.1709,-3.1646,-3.1413,-3.1227,-3.1054,0.0,0.0,0.0,0.0,0.0,0.0,0.0,0.0,0.0,0.0,0.0,0.0,0.0,0.0,0.0,0.0,0.0,0.0,0.0,0.0,0.0,0.0,0.0,0.0,0.0,0.0,0.0,-1.7947,-2.1068,0.0,0.0,0.0,0.0,0.0,0.0,0.0,0.0,0.0,0.0,0.0,-3.0637,-3.0251,0.0,0.0,0.0,0.0,0.0,0.0,0.0,0.0,0.0,0.0,0.0,0.0,-3.3054,-3.5344,-3.722,-3.8209,-3.8209,-3.8209,-3.8209,-3.8209,-3.8209,-3.7502,-3.6004,0.0,0.0,0.0,0.0,0.0,0.0,0.0,0.0,0.0,0.0,0.0,0.0,0.0,0.0,0.0,0.0,0.0,0.0,0.0,0.0,0.0,0.0,0.0,0.0,0.0,-2.2677,0.0,0.0,0.0,0.0,0.0,0.0,0.0,0.0,0.0,0.0,0.0,-2.5796,-2.7109,-2.8879,-3.0379,-3.1355,-3.1815,-3.2079,0.0,0.0,0.0,0.0,0.0,0.0,0.0,0.0,0.0,0.0,0.0,0.0,0.0,0.0,-2.3122,-2.0269,-2.0065,-2.0306,-2.0258,0.0,0.0,0.0,0.0,0.0,0.0,0.0,0.0,0.0,0.0,0.0,0.0,0.0,0.0,-2.4267,0.0,-2.7304,0.0,0.0,0.0,0.0,0.0,0.0,0.0,0.0,-3.4286,-3.5253,-3.5255,-3.4882,-3.465,0.0,-3.3363,-3.1001,0.0,0.0,0.0,0.0,0.0,0.0,0.0,0.0,-3.4037,-3.6032,-3.747,-3.8209,-3.8209,-3.8209,-3.8209,-3.8209,-3.8209,-3.7841,-3.7131,-3.5956,-3.3938,0.0,0.0,0.0,0.0,0.0,0.0,0.0,0.0,0.0,0.0,0.0,0.0,0.0,0.0,0.0,0.0,0.0,0.0,0.0,0.0,0.0,0.0,0.0,-2.5632,0.0,0.0,0.0,0.0,0.0,0.0,0.0,0.0,0.0,-2.3947,-2.6158,-2.8284,-2.9373,-3.0688,-3.1799,-3.2391,0.0,0.0,0.0,0.0,0.0,0.0,0.0,-3.3231,-3.2914,-3.2615,-3.2051,-3.0958,-3.0099,-2.9512,-2.9339,0.0,0.0,-2.4594,-2.413,-2.4246,-2.421,-2.4194,-2.4301,-2.4695,-2.4857,-2.5031,0.0,0.0,0.0,0.0,0.0,0.0,0.0,0.0,-2.9473,-3.0677,0.0,-3.2754,0.0,0.0,0.0,0.0,0.0,-3.4577,0.0,0.0,-4.0019,-4.0857,-4.0382,-3.955,-3.919,-3.9049,-3.7641,-3.689,-3.6503,-3.3158,0.0,0.0,0.0,0.0,0.0,0.0,-3.574,-3.718,-3.7936,-3.8299,-3.8301,-3.8246,-3.8245,-3.8209,-3.8209,-3.8536,-3.9207,-3.731,-3.5987,-3.5445,-3.1019,0.0,0.0,0.0,0.0,0.0,0.0,0.0,0.0,0.0,0.0,0.0,0.0,0.0,0.0,0.0,0.0,0.0,0.0,0.0,0.0,-2.6586,0.0,0.0,0.0,0.0,0.0,0.0,0.0,0.0,0.0,0.0,-2.7685,-2.8422,-2.9627,-3.1565,0.0,0.0,0.0,0.0,-3.3822,-3.4252,-3.4201,-3.4059,-3.3933,-3.3908,-3.4,-3.4234,0.0,0.0,-3.2078,-3.1485,-3.1117,-3.0961,-3.1248,-3.0759,-2.8465,-2.7836,-2.7595,-2.7251,-2.7195,-2.7421,-2.8032,-2.8166,-2.8401,-3.0483,0.0,0.0,0.0,0.0,-2.5609,-2.8592,-3.3627,-3.3571,-3.5134,-3.7791,-3.7243,0.0,0.0,0.0,0.0,0.0,0.0,-3.8397,-3.9678,-4.0505,-4.0909,-4.0908,-4.0653,-4.0492,-4.0371,-3.9945,-3.9697,-3.9536,-3.9046,-3.7464,-3.4895,0.0,0.0,0.0,0.0,-3.8295,-3.9067,-3.959,-3.984,-3.9822,-3.9333,-3.8788,-3.8227,-3.8209,-3.8317,-3.8536,-3.8488,-3.7685,-3.5987,-3.488,0.0,0.0,0.0,0.0,0.0,0.0,0.0,0.0,0.0,0.0,0.0,0.0,0.0,0.0,0.0,0.0,0.0,0.0,0.0,-2.7686,-2.8807,-2.9176,0.0,0.0,0.0,0.0,0.0,0.0,0.0,0.0,0.0,-3.1167,-3.1443,-3.1878,0.0,0.0,-3.4469,-3.4774,-3.4947,-3.5112,-3.5325,-3.4816,0.0,-3.4325,-3.4325,-3.4325,-3.43,-3.4292,-3.4216,-3.3931,-3.3834,-3.3769,-3.3705,-3.3649,-3.3356,-3.272,-3.1537,-3.074,-3.0592,-3.056,-3.0608,-3.0838,-3.0885,-3.0891,-3.9068,-3.4449,-3.0752,-3.0579,-3.2729,-3.2523,-3.5193,-3.9669,-3.9458,-4.0487,-4.2248,-4.176,-4.1046,-4.0119,-3.9088,0.0,0.0,0.0,-4.145,-4.2523,-4.2721,-4.288,-4.2985,-4.3003,-4.2968,-4.2879,-4.281,-4.2557,-4.2177,-4.254,-4.1721,-3.9711,0.0,0.0,-3.8932,-3.925,-3.9629,-4.0031,-4.0347,-4.0492,-4.0492,-4.0075,-3.946,-3.8699,-3.8681,-3.8535,-3.8227,-3.8971,-3.8651,-3.7005,-3.7195,-3.5418,0.0,0.0,0.0,0.0,0.0,0.0,0.0,0.0,0.0,0.0,0.0,-1.8256,-1.8942,0.0,0.0,0.0,-2.6822,-2.914,-3.1269,-3.1502,0.0,0.0,0.0,0.0,0.0,0.0,0.0,-3.0074,-3.1171,-3.2271,-3.3142,-3.3596,-3.3777,-3.3632,-3.4414,-3.5116,-3.5444,0.0,-3.5793,-3.6114,-3.571,-3.5365,-3.5365,-3.5415,-3.5358,-3.5021,-3.5111,-3.5077,-3.4837,-3.4851,-3.4899,-3.4875,-3.4763,-3.4667,-3.4643,-3.3807,-3.3068,-3.2877,-3.2846,-3.2829,-3.2829,-3.2829,-3.2781,-4.6104,-4.5367,-3.7196,-3.6088,-3.9669,-3.9727,-4.2061,-4.5828,-4.5865,-4.5773,-4.5623,-4.5828,-4.5185,-4.3922,-4.3122,0.0,-4.4151,-4.4359,-4.4893,-4.5902,-4.5902,-4.5902,-4.5902,-4.5865,-4.5883,-4.5847,-4.5679,-4.5201,-4.4453,-4.4204,-4.4025,-4.3888,-4.2255,-4.0947,-4.0093,-4.0214,-4.0408,-4.0598,-4.0727,-4.0727,-4.0583,-4.0583,-4.0256,-3.9514,-3.9478,-3.9152,-3.8462,-3.9079,-3.9134,-3.8445,-3.8562,-3.7792,-3.5851,0.0,0.0,0.0,0.0,0.0,0.0,0.0,0.0,0.0,0.0,0.0,0.0,0.0,0.0,0.0,-3.0377,0.0,-3.4308,-3.4142,0.0,0.0,0.0,-3.2071,-3.1915,-3.1526,-3.1557,-3.2273,0.0,0.0,-3.4126,-3.4966,-3.538,-3.4971,-3.4946,-3.5153,-3.5701,-3.595,-3.6198,-3.6753,-3.676,-3.6727,-3.6605,-3.6732,-3.662,-3.6158,-3.6075,-3.586,-3.5297,-3.5148,-3.5098,-3.5164,-3.5081,-3.5081,-3.4998,-3.4941,-3.4822,-3.421,-3.4136,-3.4127,-3.4087,-3.4096,-3.4054,-4.7737,-4.7551,-4.5414,-4.4462,-4.431,-4.431,-4.4926,-4.5883,-4.5902,-4.5883,-4.581,-4.5865,-4.5718,-4.5388,-4.5168,-4.5223,-4.5443,-4.5498,-4.5663,-4.5883,-4.5902,-4.5865,-4.5828,-4.581,-4.5735,-4.5601,-4.5543,-4.5358,-4.508,-4.5019,-4.4997,-4.4903,-4.4502,-4.4093,-4.3655,-4.3694,-4.3548,-4.3187,-4.3225,-4.2647,-4.1469,-4.1415,-4.1035,-4.0274,-4.0256,-4.0148,-3.9967,-4.013,-4.013,-4.0003,-4.1124,-4.0824,-3.8642,-3.6554,0.0,0.0,0.0,0.0,0.0,0.0,0.0,0.0,0.0,-2.497,-2.6608,0.0,-3.1878,0.0,-3.3117,-3.4045,-3.4183,-3.4144,0.0,0.0,-3.3439,-3.3251,-3.2789,-3.3275,-3.3631,-3.3492,-3.4412,-3.5111,-3.5241,-3.5996,-3.6543,-3.653,-3.6925,-3.7294,-3.7432,-3.7553,-3.768,-3.7744,-3.7397,-3.7017,-3.7083,-3.7026,-3.7035,-3.6887,-3.687,-3.6771,-3.6622,-3.6572,-3.6572,-3.6589,-3.6572,-3.6373,-3.5843,-3.5744,-3.5488,-3.4888,-3.4691,-3.4691,-3.4715,-3.4732,-3.4659,-4.9407,-4.9426,-4.9407,-4.8893,-4.8031,-4.7297,-4.6966,-4.6966,-4.6966,-4.6966,-4.6966,-4.6985,-4.6966,-4.6966,-4.6985,-4.6966,-4.6985,-4.6985,-4.6985,-4.6966,-4.6929,-4.6909,-4.6909,-4.6814,-4.6756,-4.6696,-4.6615,-4.6335,-4.5912,-4.5854,-4.5653,-4.5309,-4.5291,-4.5411,-4.5596,-4.5253,-4.4935,-4.4639,-4.4277,-4.348,-4.2303,-4.2248,-4.185,-4.1071,-4.1035,-4.0854,-4.0528,-4.0854,-4.0854,-4.0564,-4.2031,-4.2314,-4.1028,-3.9162,-3.6956,0.0,0.0,0.0,0.0,0.0,0.0,0.0,0.0,0.0,0.0,0.0,-3.4143,-3.429,-3.484,-3.5168,-3.5085,-3.5106,-3.4964,-3.4504,-3.4482,-3.4526,-3.4549,-3.4922,-3.5202,-3.5304,-3.595,-3.6364,-3.6305,-3.6982,-3.7522,-3.759,-3.816,-3.8454,-3.8173,-3.816,-3.8328,-3.8593,-3.8328,-3.8195,-3.8493,-3.8278,-3.8063,-3.8046,-3.7798,-3.75,-3.7185,-3.7119,-3.7119,-3.7119,-3.7119,-3.6986,-3.6589,-3.6506,-3.634,-3.5992,-3.5611,-3.528,-3.4965,-3.4899,-3.4851,-5.082,-5.082,-5.082,-5.082,-5.071,-4.9242,-4.8618,-4.8636,-4.8636,-4.8563,-4.8471,-4.8471,-4.8398,-4.8324,-4.8324,-4.8324,-4.8324,-4.8324,-4.8324,-4.8287,-4.8228,-4.8246,-4.8267,-4.8111,-4.807,-4.8166,-4.7984,-4.7536,-4.6846,-4.6708,-4.6287,-4.5635,-4.5617,-4.5961,-4.6595,-4.5961,-4.5562,-4.5436,-4.4657,-4.3896,-4.3226,-4.3209,-4.2828,-4.2049,-4.1994,-4.1687,-4.0999,-4.1632,-4.1723,-4.1198,-4.2466,-4.317,-4.3072,-4.09,-3.9031,0.0,-3.4672,0.0,0.0,0.0,0.0,0.0,0.0,0.0,0.0,-3.4292,-3.5342,-3.5899,-3.5952,-3.6077,-3.6357,-3.6429,-3.635,-3.5985,-3.5728,-3.5857,-3.6491,-3.6304,-3.639,-3.7052,-3.7185,-3.7235,-3.7259,-3.7897,-3.8344,-3.8394,-3.8825,-3.9007,-3.851,-3.8368,-3.8609,-3.9232,-3.9315,-3.9315,-3.9829,-3.968,-3.9398,-3.9365,-3.9073,-3.8394,-3.7914,-3.7798,-3.7689,-3.7632,-3.7698,-3.7549,-3.7317,-3.7251,-3.7201,-3.7019,-3.6539,-3.5926,-3.5263,-3.4965,-3.4899,-5.082,-5.082,-5.082,-5.082,-5.0765,-5.0453,-5.0325,-5.0325,-5.0325,-4.9958,-4.9353,-4.9372,-4.8948,-4.8343,-4.8324,-4.8324,-4.8324,-4.8324,-4.8324,-4.8324,-4.8287,-4.8267,-4.8226,-4.8187,-4.8107,-4.7963,-4.7922,-4.7767,-4.7521,-4.7482,-4.7409,-4.7246,-4.7265,-4.7319,-4.7464,0.0,0.0,0.0,-4.549,-4.4983,-4.4856,-4.4856,-4.4458,-4.3679,-4.3643,0.0,-4.3444,-4.357,-4.3878,-4.4367,-4.4675,0.0,0.0,0.0,0.0,0.0,0.0,0.0,0.0,0.0,0.0,0.0,-3.7352,-3.6423,-3.4924,-3.5843,-3.6659,-3.6841,-3.6818,-3.6792,-3.6871,-3.7162,-3.7189,-3.6841,-3.6986,-3.7107,-3.702,-3.6937,-3.697,-3.7085,-3.7649,-3.7971,-3.8046,-3.8626,-3.9083,-3.91,-3.9216,-3.9249,-3.9149,-3.91,-3.9133,-3.9282,-3.9315,-3.9348,-3.9497,-3.9895,-4.0078,-4.0227,-4.0597,-4.0647,-4.0464,-4.0453,-4.0315,-3.9852,-3.9796,-3.9322,-3.8278,-3.8013,-3.7914,-3.7235,-3.7019,-3.6671,-3.5943,-3.5313,-3.4899,-5.1995,0.0,-5.1974,-5.1977,0.0,-5.1977,-5.1995,-5.194,-5.1151,-5.0563,-5.0196,-5.0196,-4.9939,-4.9536,-4.9536,-4.9536,-4.9536,-4.9536,-4.9536,-4.9536,-4.9476,-4.9456,-4.9475,-4.8912,-4.8628,-4.8548,-4.8042,-4.7759,-4.7699,-4.7699,-4.7699,-4.7699,-4.7699,-4.7699,-4.7699,-4.7699,-4.728,-4.6522,-4.6106,-4.5707,-4.5309,-4.5291,-4.511,-4.4693,-4.4295,0.0,0.0,0.0,0.0,0.0,0.0,0.0,0.0,-4.4428,0.0,-4.1937,-4.0217,-3.954,-4.019,-3.9529,-3.9501,-4.0482,-3.9781,-3.852,-3.6699,-3.6831,-3.7009,-3.7048,-3.7201,-3.7224,-3.704,-3.7367,-3.7449,-3.7131,-3.7233,-3.7403,-3.7591,-3.7665,-3.7781,-3.8146,-3.851,-3.8742,-3.8742,-3.905,-3.9448,-3.9779,-3.9846,-3.9962,-4.0183,-3.973,-3.9315,-3.9315,-3.9315,-3.9431,-3.9763,-3.9763,-4.021,-4.068,-4.0895,-4.1044,-4.1359,-4.1397,-4.1276,-4.0945,-4.0895,-4.0597,-4.0017,-3.9785,-3.957,-3.8891,-3.8427,-3.7947,-3.7235,-3.6506,-3.586,-5.3185,-5.3185,-5.3185,-5.3185,-5.3185,-5.3185,-5.3185,-5.3112,0.0,0.0,0.0,-5.1022,-5.093,-5.082,-5.082,-5.082,-5.082,-5.082,-5.082,-5.0802,-5.0703,-5.0703,-5.0725,-4.9799,-4.9388,-4.9336,-4.8529,-4.8137,-4.8116,-4.7989,-4.7935,-4.7877,-4.7769,-4.7699,-4.7699,-4.7699,-4.7391,-4.6739,-4.6721,-4.6395,-4.5761,-4.5725,-4.5653,-4.5508,-4.4874,-4.5073,-4.6232,-4.5653,-4.5906,-4.7192,-4.7156,-4.6716,-4.5926,-4.5088,-4.3901,-4.2366,-4.1586,-4.1535,-4.2306,-4.1747,-4.1713,-4.248,-4.1105,-3.9578,-3.8196,-3.7674,-3.7451,-3.7411,-3.7704,-3.7755,-3.7435,-3.7778,-3.7855,-3.7519,-3.7569,-3.7825,-3.8337,-3.8394,-3.8609,-3.9183,-3.9398,-3.9497,-3.9497,-3.963,-3.9879,-4.0398,-4.0564,-4.0729,-4.1127,-4.0431,-3.9802,-3.9829,-3.9879,-3.9962,-4.0343,-4.0359,-4.0348,-4.138,-4.1177,-4.1044,-4.1574,-4.169,-4.1595,-4.1612,-4.1579,-4.148,-4.1442,-4.1259,-4.121,-4.068,-4.0111,-3.9464,-3.8742,-3.8129,-3.74,-5.3185,-5.3185,-5.3185,-5.3185,-5.3185,-5.3185,-5.3185,-5.3167,-5.2947,-5.2491,-5.183,-5.1811,-5.1444,-5.082,-5.082,-5.082,-5.082,-5.082,-5.082,-5.082,-5.0782,-5.0723,-5.0623,-5.0453,-5.0256,-5.0068,-4.9916,-4.9815,-4.9695,-4.9057,-4.871,-4.8637,-4.804,-4.7717,-4.7699,-4.7699,-4.7645,-4.7554,-4.7536,-4.7482,-4.7373,-4.7352,-4.7029,-4.6359,-4.6214,-4.5906,-4.5472,-4.5381,-4.5399,-4.5617,-4.4965,-4.4548,-4.4402,-4.3695,-4.306,-4.2824,-4.2679,-4.2679,-4.2806,-4.2542,-4.2366,-4.2315,-4.1469,-4.0208,-3.8551,-3.8885,-3.9179,-3.8992,-3.8996,-3.9042,-3.9013,-3.9297,-3.9375,-3.9071,-3.9269,-3.94,-3.9169,-3.9149,-3.9199,-3.9332,-3.9879,-4.0243,-4.0293,-4.0696,-4.1028,-4.1198,-4.1359,-4.1359,-4.1475,-4.1259,-4.1127,-4.1127,-4.111,-4.116,-4.1193,-4.1756,-4.1905,-4.2303,-4.2208,-4.2286,-4.2969,-4.2622,-4.2291,-4.2369,-4.2291,-4.2075,-4.1612,-4.1397,-4.1458,-4.1309,-4.1094,-4.0812,-4.0133,-3.9835,-3.9189,-5.3185,-5.3185,-5.3185,-5.3185,-5.3185,-5.3185,-5.3185,-5.3185,-5.3185,-5.3023,-5.2674,-5.2656,-5.2454,-5.2123,-5.2084,-5.2105,-5.2105,-5.2084,-5.2123,-5.2105,-5.2123,-5.2024,-5.1846,-5.138,-5.1052,-5.0882,-5.0363,-5.0137,-5.0075,-4.9709,-4.9564,-4.9492,-4.8728,-4.8131,-4.7735,-4.7699,-4.7699,-4.7699,-4.7699,-4.7699,-4.7699,-4.7699,-4.7518,-4.7156,-4.6757,-4.6776,-4.7228,-4.6413,-4.6359,-4.7228,-4.6486,-4.5653,-4.4802,-4.4385,-4.3806,-4.2992,-4.2919,-4.2919,-4.2919,-4.2806,-4.2728,-4.265,-4.2307,-4.1688,-4.0758,-4.0024,-3.956,-3.9473,-3.9659,-3.973,-3.9656,-4.0077,-4.0255,-3.9946,-3.991,-3.9807,-3.9692,-3.9804,-3.9895,-3.9962,-4.0525,-4.0945,-4.0945,-4.1226,-4.1579,-4.1893,-4.2303,-4.2539,-4.2555,-4.2555,-4.2258,-4.1607,-4.1397,-4.1397,-4.1458,-4.1674,-4.2042,-4.239,-4.2506,-4.2804,-4.3383,-4.2969,-4.2721,-4.2969,-4.2833,-4.2572,-4.2456,-4.2589,-4.244,-4.2026,-4.1993,-4.174,-4.1143,-4.0663,-3.9736,-5.3185,-5.3185,-5.3185,-5.3185,-5.3185,-5.3185,-5.3185,-5.3185,-5.3185,-5.3185,-5.3203,-5.3369,-5.3573,-5.3739,-5.3739,-5.3647,-5.3482,-5.346,-5.339,-5.3203,-5.3185,-5.3143,-5.2944,-5.2236,-5.185,-5.1682,-5.1012,-5.0659,-5.0619,-5.0474,-5.0275,-5.0053,-4.9474,-4.8786,-4.7989,-4.7989,-4.7877,-4.7717,-4.7699,-4.7699,-4.7699,-4.7699,-4.7699,-4.7663,-4.7102,-4.7262,-4.8242,-4.7174,-4.6993,-4.795,-4.7337,-4.6395,-4.5381,-4.5128,-4.4458,-4.3317,-4.3172,-4.31,-4.2937,-4.2919,-4.2919,-4.2919,-4.2919,-4.2843,-4.258,-4.1223,-4.0253,-4.0263,-4.0532,-4.0609,-4.048,-4.0746,-4.0924,-4.0671,-4.0434,-4.0323,-4.0266,-4.0484,-4.0613,-4.068,-4.1243,-4.1674,-4.169,-4.1823,-4.2142,-4.2704,-4.3251,-4.3582,-4.3615,-4.3615,-4.3052,-4.2336,-4.1905,-4.196,-4.1905,-4.1972,-4.2224,-4.2688,-4.2605,-4.2853,-4.3234,-4.2986,-4.2837,-4.3284,-4.3135,-4.3002,-4.3466,-4.3549,-4.33,-4.2837,-4.2738,-4.2506,-4.1823,-4.0928,-4.0061,-5.3222,-5.3185,-5.3259,-5.3185,-5.3222,-5.3203,-5.3185,-5.3185,-5.3185,-5.3185,-5.3316,-5.3977,-5.4656,-5.5299,-5.5302,-5.4895,-5.4289,-5.4289,-5.394,-5.3295,-5.3185,-5.3143,-5.3057,-5.2907,-5.274,-5.2486,-5.2336,-5.2196,-5.2123,-5.1502,-5.0836,-5.0184,-5.0021,-4.9582,-4.8873,-4.8782,-4.8442,-4.7717,-4.7699,-4.7699,-4.7699,-4.7699,-4.7699,-4.7699,-4.7645,-4.7301,-4.6902,-4.6576,-4.6232,-4.5635,-4.4965,-4.4729,-4.5146,-4.4621,-4.415,-4.4006,-4.3969,-4.3679,-4.301,-4.2919,-4.2955,-4.2919,-4.2919,-4.29,-4.2899,-4.2562,-4.2237,-4.2076,-4.2068,-4.1902,-4.1764,-4.1766,-4.1723,-4.1515,-4.1366,-4.1314,-4.1244,-4.1288,-4.1326,-4.1309,-4.1926,-4.239,-4.244,-4.2853,-4.33,-4.335,-4.3482,-4.3615,-4.3615,-4.3598,-4.3582,-4.3367,-4.3367,-4.3317,-4.3267,-4.3383,-4.3284,-4.3367,-4.2936,-4.2969,-4.3251,-4.3052,-4.2721,-4.3367,-4.335,-4.3251,-4.3433,-4.3598,-4.3482,-4.3284,-4.3218,-4.3218,-4.2456,-4.1425,-4.0326,-5.462,-5.462,-5.462,-5.4344,-5.3885,-5.3405,-5.3185,-5.3185,-5.3185,-5.3482,-5.3922,-5.4271,-5.4326,-5.4216,-5.4675,-5.4693,-5.4436,-5.4895,-5.4932,-5.4564,-5.4142,-5.3839,-5.3676,-5.32,-5.2912,-5.2739,-5.2654,-5.2586,-5.2522,-5.2182,-5.1593,-5.0868,-5.0796,-5.0397,-4.9673,-4.9601,-4.922,-4.8442,-4.8402,-4.8185,-4.7751,-4.7699,-4.7699,-4.7699,-4.7699,-4.7551,-4.7192,-4.6776,-4.6359,-4.5997,-4.5254,-4.4965,-4.5273,-4.453,-4.4095,-4.4095,-4.4095,-4.3951,-4.3625,-4.3588,-4.3626,-4.3607,-4.3154,-4.3082,-4.3552,-4.3529,-4.341,-4.3174,-4.2655,-4.232,-4.2441,-4.2516,-4.2592,-4.2531,-4.2355,-4.2106,-4.177,-4.1948,-4.2042,-4.2092,-4.2671,-4.3135,-4.3168,-4.34,-4.3598,-4.3615,-4.3615,-4.3615,-4.3615,-4.3615,-4.3615,-4.3615,-4.3615,-4.3615,-4.3615,-4.3615,-4.3615,-4.3549,-4.3367,-4.335,-4.3383,-4.2986,-4.2738,-4.3466,-4.2986,-4.2738,-4.2837,-4.2555,-4.2373,-4.2754,-4.3383,-4.3383,-4.2638,-4.2071,-4.1259,-5.5705,-5.5614,-5.5614,-5.5244,-5.4675,-5.4106,-5.3739,-5.3537,-5.3537,-5.3757,-5.4051,-5.4069,-5.3757,-5.3387,-5.4252,-5.462,-5.4509,-5.4987,-5.5262,-5.5188,-5.4656,-5.4466,-5.4488,-5.3756,-5.3328,-5.3142,-5.283,-5.2631,-5.2563,-5.2526,-5.219,-5.1683,-5.1629,-5.1212,-5.0488,-5.042,-5.0035,-4.9311,-4.9238,-4.884,-4.817,-4.8043,-4.7913,-4.7735,-4.7699,-4.7699,-4.7681,-4.7138,-4.683,-4.6812,-4.6051,-4.5725,-4.5924,-4.52,-4.4747,-4.4729,-4.453,-4.4421,-4.444,-4.4421,-4.4421,-4.4385,-4.3842,-4.3807,-4.4277,-4.4421,-4.4323,-4.4124,-4.3476,-4.3187,-4.3249,-4.3439,-4.3578,-4.3673,-4.3381,-4.3022,-4.2895,-4.2959,-4.3019,-4.304,-4.3335,-4.3615,-4.3598,-4.3598,-4.3615,-4.3615,-4.3615,-4.3615,-4.3615,-4.3615,-4.3615,-4.3615,-4.3615,-4.3615,-4.3615,-4.3615,-4.3615,-4.3615,-4.3549,-4.3532,-4.3598,-4.3069,-4.2837,-4.3433,-4.2473,-4.2121,-4.2522,-4.2125,-4.1827,-4.2369,-4.2804,-4.3151,-4.2936,-4.2522,-4.1939,-5.5965,-5.5673,-5.5614,-5.5614,-5.5519,-5.5427,-5.5005,-5.4363,-5.4344,-5.3977,-5.3405,-5.3332,-5.3259,-5.3295,-5.4675,-5.5078,-5.4473,-5.4528,-5.4601,-5.4583,-5.4454,-5.4803,-5.5445,-5.473,-5.4243,-5.3965,-5.3247,-5.2763,-5.2521,-5.248,-5.248,-5.2408,-5.2371,-5.2027,-5.1339,-5.123,-5.0854,-5.0148,-5.0035,-4.9655,-4.8949,-4.8818,-4.8438,-4.7823,-4.7699,-4.7699,-4.7699,-4.7642,-4.7627,-4.7645,-4.6866,-4.6776,-4.7391,-4.6776,-4.6287,-4.625,-4.5635,-4.5254,-4.5236,-4.5254,-4.5218,-4.52,-4.5055,-4.5146,-4.511,-4.5218,-4.5136,-4.4952,-4.4913,-4.4806,-4.4603,-4.4541,-4.4586,-4.4697,-4.4493,-4.4458,-4.468,-4.4259,-4.4226,-4.4107,-4.3839,-4.3687,-4.3645,-4.3615,-4.3628,-4.3628,-4.3598,-4.3615,-4.3615,-4.3615,-4.3615,-4.3615,-4.3615,-4.3615,-4.3615,-4.3615,-4.3615,-4.3615,-4.3615,-4.3615,-4.3582,-4.3549,-4.3565,-4.3515,-4.3151,-4.282,-4.2589,-4.244,-4.2373,-4.244,-4.2208,-4.2357,-4.3151,-4.2224,-4.1789,-5.75,-5.7101,-5.6565,-5.6381,-5.6308,-5.5812,-5.5431,-5.517,-5.517,-5.4711,-5.4069,-5.3977,-5.3683,-5.3222,-5.3794,-5.4197,-5.4418,-5.4895,-5.517,-5.5097,-5.4638,-5.4546,-5.4748,-5.4528,-5.4378,-5.4257,-5.3807,-5.3204,-5.2539,-5.2498,-5.2498,-5.2498,-5.2498,-5.2317,-5.21,-5.2045,-5.1665,-5.0963,-5.0891,-5.0488,-4.9691,-4.9166,-4.8746,-4.8456,-4.795,-4.7699,-4.7699,-4.7699,-4.7699,-4.7699,-4.7428,-4.7409,-4.7591,-4.6957,-4.6504,-4.6486,-4.6232,-4.6069,-4.6069,-4.6069,-4.5816,-4.5363,-4.5291,-4.5345,-4.5381,-4.5743,-4.597,-4.5858,-4.6371,-4.6563,-4.628,-4.577,-4.5462,-4.5663,-4.5688,-4.5553,-4.5347,-4.5001,-4.468,-4.4597,-4.4265,-4.391,-4.3822,-4.3835,-4.3835,-4.3658,-4.3704,-4.3734,-4.3645,-4.3615,-4.3598,-4.3615,-4.3615,-4.3615,-4.3615,-4.3615,-4.3615,-4.3615,-4.3615,-4.3615,-4.3598,-4.3598,-4.3582,-4.3515,-4.34,-4.2999,-4.2502,-4.2353,-4.2402,-4.2386,-4.2137,-4.2423,-4.3499,-4.2589,-4.239,-5.8369,-5.7951,-5.7409,-5.7207,-5.7134,-5.6602,-5.6216,-5.5996,-5.5978,-5.5519,-5.4895,-5.4766,-5.4344,-5.3683,-5.357,-5.3702,-5.4051,-5.4583,-5.495,-5.5133,-5.4638,-5.4528,-5.4711,-5.4528,-5.4418,-5.4301,-5.3847,-5.3331,-5.2902,-5.2625,-5.2498,-5.2498,-5.2498,-5.2498,-5.2498,-5.2498,-5.219,-5.1756,-5.1683,-5.1303,-5.0506,-4.9963,-4.9528,-4.922,-4.8514,-4.7932,-4.7735,-4.7699,-4.7699,-4.7699,-4.7699,-4.7699,-4.7645,-4.7192,-4.6884,-4.6902,-4.6884,-4.6884,-4.6902,-4.6884,-4.6667,-4.6142,-4.6087,-4.6087,-4.6142,-4.6595,-4.6747,-4.6825,-4.7193,-4.7615,-4.736,-4.6794,-4.6485,-4.6594,-4.6566,-4.6442,-4.6133,-4.5528,-4.5018,-4.4625,-4.431,-4.4085,-4.3998,-4.4056,-4.3952,-4.3734,-4.3839,-4.3809,-4.3674,-4.3598,-4.3628,-4.3658,-4.3628,-4.3658,-4.3658,-4.3704,-4.3658,-4.3658,-4.3615,-4.3615,-4.3628,-4.3645,-4.3611,-4.3529,-4.3247,-4.2767,-4.2435,-4.227,-4.2282,-4.2348,-4.2204,-4.2291,-4.282,-4.3035,-4.2837,-5.8369,-5.8001,-5.7978,-5.7905,-5.7868,-5.7795,-5.7464,-5.6877,-5.6804,-5.6345,-5.5666,-5.5592,-5.517,-5.4528,-5.4418,-5.4032,-5.3537,-5.3552,-5.3867,-5.4344,-5.4326,-5.4675,-5.5188,-5.4656,-5.4396,-5.4359,-5.3409,-5.3199,-5.3445,-5.292,-5.2589,-5.2516,-5.2498,-5.2498,-5.2498,-5.2498,-5.248,-5.2389,-5.2371,-5.2045,-5.1393,-5.1158,-5.0741,-5.009,-4.9329,-4.8583,-4.7862,-4.7753,-4.7699,-4.7699,-4.7699,-4.7699,-4.7699,-4.7627,-4.7663,-4.7609,-4.7645,-4.7681,-4.7645,-4.7627,-4.7554,-4.7428,-4.7572,-4.7446,-4.7409,-4.7497,-4.7551,-4.753,-4.7606,-4.7678,-4.7678,-4.7563,-4.7442,-4.732,-4.7098,-4.6985,-4.6783,-4.6109,-4.5161,-4.4435,-4.4155,-4.4097,-4.4097,-4.4126,-4.4068,-4.3939,-4.3881,-4.3852,-4.3687,-4.3674,-4.3704,-4.3793,-4.3822,-4.3805,-4.3776,-4.3793,-4.373,-4.3684,-4.3628,-4.3615,-4.3658,-4.3687,-4.3805,-4.3739,-4.3768,-4.3302,-4.2696,-4.2514,-4.2332,-4.236,-4.2216,-4.2357,-4.2804,-4.3184,-4.3035,-5.8626,-5.8042,-5.7978,-5.7978,-5.7978,-5.7978,-5.7831,-5.7629,-5.7629,-5.7171,-5.6528,-5.6418,-5.5996,-5.5354,-5.5207,-5.4785,-5.4069,-5.4032,-5.3885,-5.3665,-5.3592,-5.3739,-5.3995,-5.4271,-5.4356,-5.4323,-5.4423,-5.3863,-5.3144,-5.3179,-5.3078,-5.2589,-5.2498,-5.2498,-5.2498,-5.2498,-5.2498,-5.2498,-5.2498,-5.2353,-5.2082,-5.1574,-5.1158,-5.0868,-5.0144,-4.9564,-4.9311,-4.8297,-4.7735,-4.7735,-4.7699,-4.7699,-4.7699,-4.7699,-4.7699,-4.7699,-4.7699,-4.7699,-4.7699,-4.7699,-4.7699,-4.7699,-4.7699,-4.7699,-4.7699,-4.7699,-4.7699,-4.7699,-4.7699,-4.7699,-4.7699,-4.7699,-4.7657,-4.7575,-4.7529,-4.7443,-4.7249,-4.6519,-4.5554,-4.4676,-4.4429,-4.4384,-4.4281,-4.4327,-4.4315,-4.4085,-4.4027,-4.3952,-4.3881,-4.3864,-4.3809,-4.3881,-4.3894,-4.4162,-4.4373,-4.4541,-4.4524,-4.4356,-4.4174,-4.4006,-4.3948,-4.3919,-4.4006,-4.4023,-4.4006,-4.3702,-4.3095,-4.2841,-4.2725,-4.2779,-4.2965,-4.3184,-4.3449,-4.335,-4.3085,-5.8749,-5.8024,-5.7978,-5.7978,-5.7978,-5.7978,-5.7978,-5.7978,-5.7978,-5.7703,-5.7317,-5.7244,-5.6804,-5.618,-5.6033,-5.5592,-5.4895,-5.484,-5.4418,-5.3665,-5.3277,-5.3203,-5.324,-5.3702,-5.4078,-5.4147,-5.4255,-5.3886,-5.3099,-5.3166,-5.2987,-5.257,-5.2498,-5.2498,-5.2498,-5.2498,-5.2498,-5.2498,-5.2498,-5.2498,-5.2389,-5.1991,-5.1737,-5.1611,-5.0941,-5.056,-5.0434,-4.9257,-4.846,-4.8152,-4.7898,-4.7717,-4.7699,-4.7699,-4.7699,-4.7699,-4.7699,-4.7699,-4.7699,-4.7699,-4.7699,-4.7699,-4.7699,-4.7699,-4.7699,-4.7699,-4.7699,-4.7699,-4.7699,-4.7699,-4.7699,-4.7699,-4.7699,-4.7699,-4.7678,-4.7511,-4.7169,-4.6543,-4.5683,-4.4879,-4.457,-4.4525,-4.4468,-4.4497,-4.4485,-4.4241,-4.4184,-4.4281,-4.4224,-4.4265,-4.435,-4.4485,-4.4729,-4.4984,-4.5197,-4.5276,-4.5329,-4.5117,-4.4848,-4.4646,-4.4524,-4.4485,-4.4485,-4.4305,-4.4265,-4.3774,-4.3218,-4.3335,-4.3313,-4.3515,-4.3509,-4.3578,-4.3515,-4.3168,-4.2936,-5.877,-5.807,-5.8024,-5.8024,-5.7978,-5.7978,-5.7978,-5.7978,-5.7978,-5.796,-5.7923,-5.7868,-5.7538,-5.6987,-5.6877,-5.6436,-5.5757,-5.5647,-5.5225,-5.4473,-5.3867,-5.3482,-5.328,-5.3295,-5.3583,-5.3899,-5.3415,-5.3285,-5.3449,-5.3057,-5.2534,-5.2516,-5.2498,-5.2498,-5.2498,-5.2498,-5.2498,-5.2498,-5.2498,-5.2498,-5.2498,-5.2462,-5.2426,-5.2389,-5.1737,-5.1357,-5.123,-5.0506,-4.9691,-4.8931,-4.8185,-4.7844,-4.7735,-4.7699,-4.7699,-4.7699,-4.7699,-4.7699,-4.7699,-4.7699,-4.7699,-4.7699,-4.7699,-4.7699,-4.7699,-4.7699,-4.7699,-4.7699,-4.7699,-4.7699,-4.7699,-4.7699,-4.7699,-4.7699,-4.7699,-4.732,-4.6365,-4.6213,-4.5767,-4.4988,-4.4654,-4.4626,-4.4598,-4.4598,-4.4497,-4.4395,-4.4367,-4.4558,-4.4763,-4.491,-4.525,-4.539,-4.5442,-4.5699,-4.585,-4.5925,-4.6,-4.6172,-4.58,-4.5416,-4.5144,-4.5001,-4.4964,-4.4763,-4.4518,-4.3985,-4.3595,-4.3681,-4.361,-4.3485,-4.3494,-4.3558,-4.3479,-4.3227,-4.3115,-5.9178,-5.8458,-5.8437,-5.8279,-5.8001,-5.7978,-5.7978,-5.7978,-5.7978,-5.7978,-5.7978,-5.7978,-5.7868,-5.7703,-5.7648,-5.7244,-5.6638,-5.6492,-5.6051,-5.5354,-5.5115,-5.4234,-5.3408,-5.3185,-5.3295,-5.3469,-5.3533,-5.3453,-5.314,-5.3189,-5.3005,-5.2498,-5.2498,-5.2498,-5.2498,-5.2498,-5.2498,-5.2498,-5.2498,-5.2498,-5.2498,-5.2498,-5.2498,-5.2462,-5.2263,-5.2154,-5.21,-5.1393,-5.0307,-4.9018,-4.8728,-4.8315,-4.7862,-4.7772,-4.779,-4.7772,-4.7717,-4.7699,-4.7699,-4.7699,-4.7699,-4.7699,-4.7699,-4.7699,-4.7699,-4.7699,-4.7699,-4.7699,-4.7699,-4.7699,-4.7699,-4.7699,-4.7699,-4.7699,-4.7699,-4.7428,-4.684,-4.666,-4.6286,-4.5346,-4.5125,-4.4998,-4.4786,-4.4665,-4.4665,-4.4665,-4.478,-4.4991,-4.525,-4.5511,-4.5825,-4.5825,-4.59,-4.622,-4.6454,-4.6566,-4.6753,-4.7129,-4.6822,-4.6262,-4.5893,-4.5554,-4.5477,-4.5346,-4.525,-4.4833,-4.4254,-4.4023,-4.3772,-4.363,-4.3784,-4.396,-4.3818,-4.3593,-4.3488,-5.9341,-5.8607,-5.8586,-5.8369,-5.8001,-5.7978,-5.7978,-5.7978,-5.7978,-5.7978,-5.7978,-5.7978,-5.7978,-5.7978,-5.7978,-5.7758,-5.7336,-5.7299,-5.684,-5.6124,-5.5702,-5.4858,-5.3904,-5.3424,-5.3185,-5.3201,-5.3471,-5.3269,-5.2925,-5.3113,-5.293,-5.257,-5.2498,-5.2498,-5.2498,-5.2498,-5.2498,-5.2498,-5.2498,-5.2498,-5.2498,-5.2498,-5.2498,-5.2498,-5.2498,-5.2498,-5.2408,-5.2027,-5.1049,-4.98,-4.9383,-4.9184,-4.8749,-4.8369,-4.8221,-4.8206,-4.7916,-4.7699,-4.7699,-4.7699,-4.7699,-4.7699,-4.7699,-4.7699,-4.7699,-4.7699,-4.7699,-4.7699,-4.7699,-4.7699,-4.7699,-4.7699,-4.7699,-4.7699,-4.7699,-4.7472,-4.6972,-4.6886,-4.6519,-4.5918,-4.564,-4.558,-4.5249,-4.5222,-4.5239,-4.5275,-4.5425,-4.5648,-4.59,-4.6147,-4.6382,-4.6454,-4.6566,-4.6886,-4.6999,-4.7107,-4.7107,-4.749,-4.7385,-4.6886,-4.6584,-4.6151,-4.5953,-4.5885,-4.5843,-4.5597,-4.4882,-4.4378,-4.433,-4.43,-4.435,-4.4243,-4.4041,-4.4006,-4.3919,-5.9501,-5.8732,-5.8671,-5.8434,-5.8097,-5.8001,-5.7978,-5.7978,-5.7978,-5.7978,-5.7978,-5.7978,-5.7978,-5.7978,-5.7978,-5.796,-5.7941,-5.7868,-5.7538,-5.6859,-5.6216,-5.539,-5.4785,-5.3849,-5.3387,-5.3219,-5.306,-5.297,-5.282,-5.2726,-5.2595,-5.2503,-5.2498,-5.2498,-5.2498,-5.2498,-5.2498,-5.2498,-5.2498,-5.2498,-5.2498,-5.2498,-5.2498,-5.2498,-5.2498,-5.2498,-5.2498,-5.2353,-5.1792,-5.0438,-5.0293,-5.0108,-4.9963,-4.9329,-4.9075,-4.8949,-4.8532,-4.817,-4.7989,-4.8079,-4.7898,-4.7935,-4.7808,-4.7699,-4.7699,-4.7699,-4.7699,-4.7699,-4.7699,-4.7699,-4.7699,-4.7699,-4.7699,-4.7699,-4.7699,-4.7468,-4.7147,-4.6976,-4.6776,-4.6286,-4.6172,-4.6189,-4.6116,-4.6116,-4.6067,-4.5734,-4.5943,-4.622,-4.6478,-4.673,-4.7022,-4.7323,-4.7428,-4.7554,-4.7615,-4.7636,-4.7575,-4.7657,-4.7533,-4.7236,-4.7143,-4.6806,-4.6525,-4.6363,-4.6328,-4.585,-4.5108,-4.4847,-4.4932,-4.4794,-4.474,-4.4526,-4.4285,-4.4353,-4.4333,-6.0076,-5.9585,-5.9233,-5.8832,-5.8458,-5.8142,-5.7978,-5.7978,-5.7978,-5.7978,-5.7978,-5.7978,-5.7978,-5.7978,-5.7978,-5.7978,-5.7978,-5.7978,-5.7868,-5.7703,-5.6932,-5.651,-5.5941,-5.4821,-5.3849,-5.3384,-5.31,-5.2934,-5.2806,-5.2717,-5.2581,-5.2521,-5.2503,-5.2498,-5.2498,-5.2498,-5.2498,-5.2498,-5.2498,-5.2498,-5.2498,-5.2498,-5.2498,-5.2498,-5.2498,-5.2498,-5.2498,-5.2498,-5.2317,-5.1919,-5.1357,-5.0818,-5.0365,-5.0021,-4.9854,-4.9782,-4.9673,-4.951,-4.9456,-4.8967,-4.8637,-4.8605,-4.8206,-4.7699,-4.7699,-4.7753,-4.7735,-4.7699,-4.7699,-4.7699,-4.7699,-4.7699,-4.7699,-4.7699,-4.7699,-4.7657,-4.7554,-4.7511,-4.7236,-4.6886,-4.6707,-4.659,-4.6213,-4.6238,-4.6238,-4.6189,-4.643,-4.673,-4.6999,-4.7258,-4.745,-4.7699,-4.7699,-4.7699,-4.7699,-4.7699,-4.7699,-4.7699,-4.7597,-4.7533,-4.7443,-4.7294,-4.6967,-4.6812,-4.6753,-4.6172,-4.5494,-4.5647,-4.5797,-4.5481,-4.5025,-4.4715,-4.4488,-4.462,-4.4405,-6.0304,-5.9903,-5.9605,-5.914,-5.8607,-5.8351,-5.8186,-5.8024,-5.7978,-5.7978,-5.7978,-5.7978,-5.7978,-5.7978,-5.7978,-5.7978,-5.7978,-5.7978,-5.7978,-5.7886,-5.7501,-5.7171,-5.6602,-5.5611,-5.4546,-5.3791,-5.3271,-5.3039,-5.2893,-5.2806,-5.2698,-5.2536,-5.2554,-5.2508,-5.248,-5.2498,-5.2498,-5.2498,-5.2498,-5.2498,-5.2498,-5.2498,-5.2498,-5.2498,-5.2498,-5.2498,-5.2498,-5.2498,-5.2498,-5.2389,-5.2082,-5.1683,-5.1212,-5.0891,-5.0691,-5.0615,-5.0257,-5.0148,-4.9949,-4.9727,-4.9456,-4.9456,-4.9039,-4.8659,-4.8405,-4.8257,-4.8022,-4.7808,-4.7699,-4.7699,-4.7699,-4.7699,-4.7699,-4.7699,-4.7699,-4.7699,-4.7699,-4.7717,-4.7615,-4.7341,-4.7258,-4.7151,-4.6954,-4.673,-4.6799,-4.6976,-4.7017,-4.728,-4.7302,-4.7533,-4.7554,-4.7699,-4.7699,-4.7699,-4.7699,-4.7699,-4.7699,-4.7699,-4.7678,-4.7636,-4.7593,-4.749,-4.7323,-4.7173,-4.6999,-4.6707,-4.622,-4.6448,-4.6228,-4.5368,-4.4839,-4.4673,-4.4501,-4.4334,-4.4035,-6.036,-5.9996,-5.9855,-5.9396,-5.8832,-5.8711,-5.8476,-5.8142,-5.8092,-5.8074,-5.7997,-5.7978,-5.7978,-5.7978,-5.7978,-5.7978,-5.7978,-5.7978,-5.7978,-5.7941,-5.7923,-5.7574,-5.695,-5.6033,-5.5188,-5.4509,-5.3607,-5.3158,-5.302,-5.2977,-5.2828,-5.2635,-5.259,-5.2559,-5.2503,-5.2498,-5.2498,-5.2498,-5.2498,-5.2498,-5.2498,-5.2498,-5.2498,-5.2498,-5.2498,-5.2498,-5.2498,-5.2498,-5.2498,-5.2498,-5.2498,-5.2498,-5.2317,-5.1919,-5.1466,-5.1448,-5.0959,-5.08,-5.0709,-5.0456,-5.0271,-5.0271,-5.0075,-4.9745,-4.9257,-4.8855,-4.8511,-4.8113,-4.7862,-4.7699,-4.7699,-4.7699,-4.7699,-4.7699,-4.7699,-4.7699,-4.7699,-4.7699,-4.7657,-4.7657,-4.7554,-4.745,-4.7511,-4.7428,-4.7575,-4.7699,-4.7699,-4.7699,-4.7699,-4.7699,-4.7699,-4.7699,-4.7699,-4.7699,-4.7699,-4.7699,-4.7699,-4.7699,-4.7699,-4.7699,-4.7699,-4.7597,-4.7472,-4.7345,-4.7151,-4.6931,-4.6908,-4.7049,-4.6484,-4.5312,-4.4929,-4.505,-4.4694,-4.4102,-4.3626,-6.0565,-6.0466,-6.0,-5.9706,-5.9554,-5.9233,-5.8871,-5.8524,-5.8479,-5.8304,-5.8024,-5.7978,-5.7978,-5.7978,-5.7978,-5.7978,-5.7978,-5.7978,-5.7978,-5.7978,-5.7978,-5.7795,-5.7483,-5.6216,-5.5541,-5.5042,-5.3995,-5.3161,-5.3042,-5.2999,-5.2872,-5.2676,-5.2613,-5.2563,-5.2526,-5.2498,-5.2498,-5.2498,-5.2498,-5.2498,-5.2498,-5.2498,-5.2498,-5.2498,-5.2498,-5.2498,-5.2498,-5.2498,-5.2498,-5.2498,-5.2498,-5.2498,-5.2462,-5.2317,-5.2226,-5.2136,-5.1991,-5.1774,-5.1756,-5.1393,-5.1158,-5.0941,-5.0637,-5.022,-4.9818,-4.9347,-4.9039,-4.8565,-4.8098,-4.7753,-4.7717,-4.7699,-4.7699,-4.7699,-4.7699,-4.7699,-4.7699,-4.7699,-4.7699,-4.7699,-4.7699,-4.7699,-4.7699,-4.7699,-4.7699,-4.7699,-4.7699,-4.7699,-4.7699,-4.7699,-4.7699,-4.7699,-4.7699,-4.7699,-4.7699,-4.7699,-4.7699,-4.7699,-4.7699,-4.7699,-4.7699,-4.7699,-4.7615,-4.7511,-4.7511,-4.7428,-4.749,-4.7575,-4.6702,-4.548,-4.5467,-4.5524,-4.4449,-4.343,-4.3191,-6.0642,-6.0559,-6.0294,-6.0015,-5.9791,-5.9607,-5.927,-5.8911,-5.8689,-5.85,-5.8301,-5.8115,-5.7978,-5.7978,-5.7978,-5.7978,-5.7978,-5.7978,-5.7978,-5.7978,-5.7978,-5.7978,-5.7758,-5.6326,-5.5757,-5.5152,-5.4051,-5.3164,-5.3103,-5.3103,-5.2955,-5.2783,-5.2698,-5.2627,-5.2526,-5.2498,-5.2498,-5.2498,-5.2498,-5.2498,-5.2498,-5.2498,-5.2498,-5.2498,-5.2498,-5.2498,-5.2498,-5.2498,-5.2498,-5.2498,-5.2498,-5.2498,-5.2498,-5.2498,-5.2498,-5.2498,-5.2498,-5.2498,-5.248,-5.2082,-5.1937,-5.1882,-5.1484,-5.1122,-5.0778,-5.0343,-4.9745,-4.9003,-4.8656,-4.8113,-4.7769,-4.7717,-4.7699,-4.7699,-4.7699,-4.7699,-4.7699,-4.7699,-4.7699,-4.7699,-4.7699,-4.7699,-4.7699,-4.7699,-4.7699,-4.7699,-4.7699,-4.7699,-4.7699,-4.7699,-4.7699,-4.7699,-4.7699,-4.7699,-4.7699,-4.7699,-4.7699,-4.7699,-4.7699,-4.7699,-4.7699,-4.7699,-4.7699,-4.7657,-4.7678,-4.7699,-4.7678,-4.76,-4.6628,-4.578,-4.5558,-4.5077,-4.3722,-4.2822,-4.2653,-6.068,-6.0617,-6.052,-6.0294,-5.9969,-5.9922,-5.9692,-5.9325,-5.9008,-5.8812,-5.8669,-5.8412,-5.8213,-5.8119,-5.8047,-5.7978,-5.7978,-5.7978,-5.7978,-5.7978,-5.7978,-5.7941,-5.7336,-5.6455,-5.5504,-5.4987,-5.394,-5.3203,-5.3185,-5.3185,-5.306,-5.289,-5.2828,-5.2694,-5.2572,-5.2503,-5.2503,-5.2498,-5.2498,-5.2498,-5.2498,-5.2498,-5.2498,-5.2498,-5.2498,-5.2498,-5.2498,-5.2498,-5.2498,-5.2498,-5.2498,-5.2498,-5.2498,-5.2498,-5.2498,-5.2498,-5.2498,-5.2498,-5.248,-5.2462,-5.2371,-5.2335,-5.2444,-5.21,-5.1665,-5.114,-5.056,-4.9289,-4.8837,-4.8475,-4.7859,-4.7717,-4.7699,-4.7699,-4.7699,-4.7699,-4.7699,-4.7699,-4.7699,-4.7699,-4.7699,-4.7699,-4.7699,-4.7699,-4.7699,-4.7699,-4.7699,-4.7699,-4.7699,-4.7699,-4.7699,-4.7699,-4.7699,-4.7699,-4.7699,-4.7699,-4.7699,-4.7699,-4.7699,-4.7699,-4.7699,-4.7699,-4.7699,-4.7699,-4.7699,-4.7699,-4.7699,-4.7609,-4.692,-4.625,-4.5653,-4.4752,-4.3589,-4.2795,-4.2484,-6.0704,-6.0673,-6.0546,-6.0472,-6.0398,-6.0328,-6.0099,-5.9741,-5.9622,-5.945,-5.914,-5.9046,-5.8811,-5.85,-5.8142,-5.8024,-5.7978,-5.7978,-5.7978,-5.7978,-5.7886,-5.7556,-5.695,-5.6069,-5.5188,-5.4638,-5.3683,-5.324,-5.3185,-5.3185,-5.3124,-5.2977,-5.2828,-5.2739,-5.2604,-5.2526,-5.2498,-5.2498,-5.2498,-5.2498,-5.2498,-5.2498,-5.2498,-5.2498,-5.2498,-5.2498,-5.2498,-5.2498,-5.2498,-5.2498,-5.2498,-5.2498,-5.2498,-5.2498,-5.2498,-5.2498,-5.2498,-5.2498,-5.2498,-5.2498,-5.2498,-5.2498,-5.2498,-5.2444,-5.2154,-5.167,-5.0796,-4.909,-4.8945,-4.8637,-4.804,-4.7732,-4.7717,-4.7699,-4.7699,-4.7699,-4.7699,-4.7699,-4.7699,-4.7699,-4.7699,-4.7699,-4.7699,-4.7699,-4.7699,-4.7699,-4.7699,-4.7699,-4.7699,-4.7699,-4.7699,-4.7699,-4.7699,-4.7699,-4.7699,-4.7699,-4.7699,-4.7699,-4.7699,-4.7699,-4.7699,-4.7699,-4.7699,-4.7699,-4.7699,-4.7699,-4.7699,-4.7536,-4.7192,-4.6595,-4.5798,-4.4761,-4.3623,-4.298,-4.2445,-6.0722,-6.0704,-6.0604,-6.0558,-6.0485,-6.0431,-6.028,-6.0114,-5.989,-5.9708,-5.9502,-5.9289,-5.8969,-5.8648,-5.8391,-5.8231,-5.8047,-5.7987,-5.7978,-5.7799,-5.7538,-5.7116,-5.6583,-5.5574,-5.4638,-5.4289,-5.3662,-5.3222,-5.3185,-5.3185,-5.3124,-5.2999,-5.2868,-5.2721,-5.2631,-5.2531,-5.2503,-5.2498,-5.2498,-5.2498,-5.2498,-5.2498,-5.2498,-5.2498,-5.2498,-5.2498,-5.2498,-5.2498,-5.2498,-5.2498,-5.2498,-5.2498,-5.2498,-5.2498,-5.2498,-5.2498,-5.2498,-5.2498,-5.2498,-5.2498,-5.2498,-5.2498,-5.2498,-5.248,-5.2426,-5.2136,-5.152,-5.0416,-4.9836,-4.9202,-4.8442,-4.7971,-4.7772,-4.7699,-4.7699,-4.7699,-4.7699,-4.7699,-4.7699,-4.7699,-4.7699,-4.7699,-4.7699,-4.7699,-4.7699,-4.7699,-4.7699,-4.7699,-4.7699,-4.7699,-4.7699,-4.7699,-4.7699,-4.7699,-4.7699,-4.7699,-4.7699,-4.7699,-4.7699,-4.7699,-4.7699,-4.7699,-4.7699,-4.7699,-4.7699,-4.7699,-4.7699,-4.7591,-4.7352,-4.6649,-4.5852,-4.491,-4.3991,-4.317,-4.2701,-6.0757,-6.071,-6.0655,-6.0591,-6.0525,-6.0458,-6.0417,-6.0361,-6.0099,-5.9953,-5.9823,-5.9554,-5.9178,-5.8911,-5.8792,-5.8563,-5.8168,-5.805,-5.7843,-5.75,-5.7004,-5.6456,-5.5838,-5.4858,-5.4326,-5.4106,-5.3518,-5.3203,-5.3185,-5.3185,-5.3146,-5.3042,-5.2934,-5.2828,-5.2717,-5.2622,-5.2526,-5.2498,-5.2498,-5.2498,-5.2498,-5.2498,-5.2498,-5.2498,-5.2498,-5.2498,-5.2498,-5.2498,-5.2498,-5.2498,-5.2498,-5.2498,-5.2498,-5.2498,-5.2498,-5.2498,-5.2498,-5.2498,-5.2498,-5.2498,-5.2498,-5.2498,-5.2498,-5.2498,-5.248,-5.248,-5.2136,-5.1158,-5.0741,-4.9927,-4.9075,-4.8315,-4.8025,-4.7844,-4.7699,-4.7699,-4.7699,-4.7699,-4.7699,-4.7699,-4.7699,-4.7699,-4.7699,-4.7699,-4.7699,-4.7699,-4.7699,-4.7699,-4.7699,-4.7699,-4.7699,-4.7699,-4.7699,-4.7699,-4.7699,-4.7699,-4.7699,-4.7699,-4.7699,-4.7699,-4.7699,-4.7699,-4.7699,-4.7699,-4.7699,-4.7699,-4.7699,-4.7645,-4.7515,-4.6939,-4.6269,-4.5327,-4.4436,-4.3552,-4.2918,-6.08,-6.0788,-6.0729,-6.0635,-6.0591,-6.0525,-6.0458,-6.0403,-6.0361,-6.0313,-6.0237,-5.9899,-5.9611,-5.9458,-5.8988,-5.8669,-5.8436,-5.8089,-5.7548,-5.6943,-5.6325,-5.5662,-5.5054,-5.4522,-5.3999,-5.346,-5.3203,-5.3203,-5.3185,-5.3185,-5.3185,-5.3164,-5.2999,-5.2999,-5.2893,-5.2717,-5.2577,-5.2526,-5.2503,-5.2521,-5.2498,-5.2498,-5.2498,-5.2498,-5.2498,-5.2498,-5.2498,-5.2498,-5.2498,-5.2498,-5.2498,-5.2498,-5.2498,-5.2498,-5.2498,-5.2498,-5.2498,-5.2498,-5.2498,-5.2498,-5.2498,-5.2498,-5.2498,-5.2498,-5.2498,-5.2498,-5.21,-5.152,-5.1176,-5.0397,-4.951,-4.8746,-4.8348,-4.7916,-4.7699,-4.7699,-4.7699,-4.7699,-4.7699,-4.7699,-4.7699,-4.7699,-4.7699,-4.7699,-4.7699,-4.7699,-4.7699,-4.7699,-4.7699,-4.7699,-4.7699,-4.7699,-4.7699,-4.7699,-4.7699,-4.7699,-4.7699,-4.7699,-4.7699,-4.7699,-4.7699,-4.7699,-4.7699,-4.7699,-4.7699,-4.7699,-4.7699,-4.7663,-4.7554,-4.7301,-4.6667,-4.5635,-4.4603,-4.3625,-4.3155,-6.08,-6.08,-6.0777,-6.0704,-6.061,-6.0525,-6.0458,-6.0403,-6.0403,-6.0403,-6.0332,-5.9688,-5.9239,-5.89,-5.8297,-5.7801,-5.7436,-5.7267,-5.6968,-5.6611,-5.6033,-5.534,-5.4735,-5.4184,-5.3697,-5.3306,-5.3206,-5.3185,-5.3185,-5.3185,-5.3185,-5.3164,-5.3063,-5.302,-5.2934,-5.2828,-5.2694,-5.2604,-5.2559,-5.2554,-5.2498,-5.2498,-5.2498,-5.2498,-5.2498,-5.2498,-5.2498,-5.2498,-5.2498,-5.2498,-5.2498,-5.2498,-5.2498,-5.2498,-5.2498,-5.2498,-5.2498,-5.2498,-5.2498,-5.2498,-5.2498,-5.2498,-5.2498,-5.2498,-5.2498,-5.2498,-5.2389,-5.2009,-5.1574,-5.0796,-4.9945,-4.9202,-4.8583,-4.8007,-4.7699,-4.7699,-4.7699,-4.7699,-4.7699,-4.7699,-4.7699,-4.7699,-4.7699,-4.7699,-4.7699,-4.7699,-4.7699,-4.7699,-4.7699,-4.7699,-4.7699,-4.7699,-4.7699,-4.7699,-4.7699,-4.7699,-4.7699,-4.7699,-4.7699,-4.7699,-4.7699,-4.7699,-4.7699,-4.7699,-4.7699,-4.7699,-4.7699,-4.7699,-4.7609,-4.7446,-4.6757,-4.578,-4.4765,-4.3715,-4.3318,-6.005,-6.005,-6.005,-6.028,-6.0572,-6.0565,-6.0313,-6.0067,-6.0002,-5.9835,-5.9625,-5.8981,-5.8616,-5.8193,-5.781,-5.734,-5.7071,-5.6826,-5.6538,-5.6131,-5.561,-5.5111,-5.4652,-5.4224,-5.3812,-5.342,-5.3336,-5.3357,-5.3185,-5.3185,-5.3185,-5.3164,-5.3103,-5.3082,-5.3039,-5.2934,-5.2806,-5.2698,-5.2654,-5.2631,-5.2595,-5.2531,-5.2531,-5.2508,-5.2503,-5.2498,-5.2498,-5.2498,-5.2498,-5.2498,-5.2498,-5.2498,-5.2498,-5.2498,-5.2498,-5.2498,-5.2498,-5.2498,-5.2498,-5.2498,-5.2498,-5.2498,-5.2498,-5.2498,-5.2498,-5.2498,-5.2426,-5.2426,-5.1919,-5.1303,-5.051,-4.9836,-4.9075,-4.8478,-4.7826,-4.7699,-4.7699,-4.7699,-4.7699,-4.7699,-4.7699,-4.7699,-4.7699,-4.7699,-4.7699,-4.7699,-4.7699,-4.7699,-4.7699,-4.7699,-4.7699,-4.7699,-4.7699,-4.7699,-4.7699,-4.7699,-4.7699,-4.7699,-4.7699,-4.7699,-4.7699,-4.7699,-4.7699,-4.7699,-4.7699,-4.7699,-4.7699,-4.7699,-4.7699,-4.7681,-4.6848,-4.5961,-4.4784,-4.3788,-4.3372,-5.8434,-5.8357,-5.8434,-5.9304,-6.0455,-6.0591,-6.0028,-5.928,-5.9155,-5.8784,-5.823,-5.7982,-5.7905,-5.7794,-5.7518,-5.7173,-5.6892,-5.6587,-5.6215,-5.5632,-5.5328,-5.4764,-5.451,-5.4265,-5.4069,-5.3777,-5.3623,-5.3462,-5.3251,-5.3206,-5.3206,-5.3185,-5.3164,-5.3164,-5.3167,-5.3042,-5.2934,-5.2824,-5.2783,-5.2783,-5.2739,-5.2631,-5.2608,-5.2581,-5.2531,-5.2526,-5.248,-5.2498,-5.2498,-5.2498,-5.2498,-5.2498,-5.2498,-5.2498,-5.2498,-5.2498,-5.2498,-5.2498,-5.2498,-5.2498,-5.2498,-5.2498,-5.2498,-5.2498,-5.2498,-5.2498,-5.2498,-5.248,-5.2335,-5.1937,-5.1267,-5.047,-4.9619,-4.8822,-4.8152,-4.7699,-4.7699,-4.7699,-4.7699,-4.7699,-4.7699,-4.7699,-4.7699,-4.7699,-4.7699,-4.7699,-4.7699,-4.7699,-4.7699,-4.7699,-4.7699,-4.7699,-4.7699,-4.7699,-4.7699,-4.7699,-4.7699,-4.7699,-4.7699,-4.7699,-4.7699,-4.7699,-4.7699,-4.7699,-4.7699,-4.7699,-4.7699,-4.7699,-4.7699,-4.7627,-4.6993,-4.6087,-4.4874,-4.3951,-4.3535,-5.8288,-5.8288,-5.8288,-5.8615,-5.9073,-5.9041,-5.8763,-5.8432,-5.8328,-5.8135,-5.781,-5.7332,-5.7046,-5.6912,-5.6549,-5.6273,-5.6085,-5.5971,-5.5536,-5.547,-5.5227,-5.499,-5.4735,-5.456,-5.4395,-5.4105,-5.3888,-5.3662,-5.3525,-5.3316,-5.3206,-5.3185,-5.3272,-5.3185,-5.3185,-5.3124,-5.306,-5.2955,-5.2915,-5.2893,-5.2824,-5.2761,-5.2698,-5.2631,-5.2586,-5.2554,-5.248,-5.2498,-5.2498,-5.2498,-5.2498,-5.2498,-5.2498,-5.2498,-5.2498,-5.2498,-5.248,-5.2498,-5.2498,-5.2498,-5.2498,-5.2498,-5.2498,-5.2498,-5.2498,-5.2498,-5.2498,-5.2498,-5.2498,-5.2063,-5.1339,-5.0542,-4.9709,-4.8931,-4.8297,-4.7844,-4.7699,-4.7699,-4.7699,-4.7699,-4.7699,-4.7699,-4.7699,-4.7699,-4.7699,-4.7699,-4.7699,-4.7699,-4.7699,-4.7699,-4.7699,-4.7699,-4.7699,-4.7699,-4.7699,-4.7699,-4.7699,-4.7699,-4.7699,-4.7699,-4.7699,-4.7699,-4.7699,-4.7699,-4.7699,-4.7699,-4.7699,-4.7699,-4.7699,-4.75,-4.7029,-4.6413,-4.5399,-4.4421,-4.3697,-5.7396,-5.7415,-5.7396,-5.7396,-5.75,-5.7962,-5.7982,-5.7551,-5.7219,-5.7046,-5.6893,-5.6396,-5.6186,-5.6014,-5.5689,-5.539,-5.539,-5.539,-5.5409,-5.539,-5.539,-5.5113,-5.4884,-5.4776,-5.4428,-5.4174,-5.3888,-5.3643,-5.3462,-5.3295,-5.3274,-5.34,-5.3501,-5.3522,-5.344,-5.3295,-5.3164,-5.3082,-5.306,-5.302,-5.2955,-5.289,-5.2806,-5.2717,-5.2649,-5.2581,-5.2526,-5.2498,-5.2498,-5.2498,-5.2498,-5.2498,-5.2498,-5.2498,-5.2498,-5.248,-5.2508,-5.2508,-5.2531,-5.2599,-5.2599,-5.2554,-5.2526,-5.248,-5.2498,-5.2498,-5.2498,-5.2498,-5.2498,-5.2226,-5.1683,-5.0868,-4.9927,-4.9148,-4.846,-4.8007,-4.7699,-4.7699,-4.7699,-4.7699,-4.7699,-4.7699,-4.7699,-4.7699,-4.7699,-4.7699,-4.7699,-4.7699,-4.7699,-4.7699,-4.7699,-4.7699,-4.7699,-4.7699,-4.7699,-4.7699,-4.7699,-4.7699,-4.7699,-4.7699,-4.7699,-4.7699,-4.7699,-4.7699,-4.7699,-4.7699,-4.7699,-4.7699,-4.7699,-4.7609,-4.7355,-4.6667,-4.5852,-4.5073,-4.4258,-5.5722,-5.5684,-5.5703,-5.578,-5.6,-5.7347,-5.7445,-5.6613,-5.5842,-5.5517,-5.5447,-5.5556,-5.5556,-5.5479,-5.539,-5.539,-5.539,-5.539,-5.539,-5.539,-5.539,-5.514,-5.499,-5.4851,-5.4639,-5.4139,-5.3833,-5.387,-5.3357,-5.3439,-5.3562,-5.3738,-5.398,-5.3907,-5.3719,-5.3542,-5.3355,-5.323,-5.3164,-5.3124,-5.3082,-5.3088,-5.298,-5.2853,-5.2765,-5.2672,-5.2554,-5.2498,-5.2498,-5.2498,-5.2498,-5.2498,-5.2498,-5.248,-5.248,-5.2526,-5.2563,-5.2608,-5.2631,-5.2717,-5.2717,-5.2627,-5.2577,-5.2526,-5.2503,-5.2503,-5.2498,-5.2498,-5.2498,-5.2498,-5.2263,-5.123,-5.0238,-4.942,-4.8605,-4.817,-4.779,-4.7699,-4.7699,-4.7699,-4.7699,-4.7699,-4.7699,-4.7699,-4.7699,-4.7699,-4.7699,-4.7699,-4.7699,-4.7699,-4.7699,-4.7699,-4.7699,-4.7699,-4.7699,-4.7699,-4.7699,-4.7699,-4.7699,-4.7699,-4.7699,-4.7699,-4.7699,-4.7699,-4.7699,-4.7699,-4.7699,-4.7699,-4.7699,-4.7591,-4.75,-4.7047,-4.6269,-4.5816,-4.5091,-5.5684,-5.5684,-5.5684,-5.5684,-5.575,-5.6176,-5.6145,-5.5813,-5.5503,-5.5384,-5.539,-5.539,-5.539,-5.539,-5.539,-5.539,-5.539,-5.539,-5.539,-5.539,-5.539,-5.53,-5.5227,-5.5127,-5.5042,-5.4829,-5.4576,-5.4294,-5.426,-5.4105,-5.3999,-5.4177,-5.4313,-5.4245,-5.4141,-5.4035,-5.3679,-5.3398,-5.3314,-5.3314,-5.3357,-5.3404,-5.3219,-5.3051,-5.3099,-5.2969,-5.2717,-5.2595,-5.2572,-5.2549,-5.2503,-5.248,-5.2498,-5.2554,-5.2604,-5.2712,-5.2739,-5.2739,-5.2739,-5.2783,-5.2783,-5.2743,-5.2694,-5.2649,-5.2599,-5.2549,-5.2503,-5.2498,-5.2498,-5.2498,-5.2317,-5.1502,-5.0709,-4.9963,-4.913,-4.8424,-4.8061,-4.7772,-4.7772,-4.7699,-4.7699,-4.7699,-4.7699,-4.7699,-4.7699,-4.7699,-4.7699,-4.7699,-4.7699,-4.7699,-4.7699,-4.7699,-4.7699,-4.7699,-4.7699,-4.7699,-4.7699,-4.7699,-4.7699,-4.7699,-4.7699,-4.7699,-4.7699,-4.7699,-4.7699,-4.7699,-4.7699,-4.7699,-4.7699,-4.7699,-4.7591,-4.7174,-4.6739,-4.6269,-4.5707,-5.5684,-5.5684,-5.5684,-5.5684,-5.5703,-5.5651,-5.5615,-5.5527,-5.5425,-5.5377,-5.5403,-5.539,-5.539,-5.539,-5.539,-5.539,-5.539,-5.539,-5.539,-5.539,-5.539,-5.5246,-5.5214,-5.5173,-5.4981,-5.4937,-5.4799,-5.4463,-5.4607,-5.4623,-5.4495,-5.4511,-5.461,-5.461,-5.4528,-5.4411,-5.4176,-5.3851,-5.3661,-5.364,-5.3699,-5.3795,-5.3604,-5.3428,-5.3587,-5.335,-5.3078,-5.2947,-5.285,-5.2806,-5.2761,-5.2599,-5.2599,-5.2672,-5.2761,-5.2846,-5.2872,-5.2872,-5.2872,-5.2934,-5.2872,-5.2828,-5.2806,-5.2721,-5.2631,-5.2581,-5.2549,-5.2521,-5.2498,-5.2444,-5.2154,-5.181,-5.1212,-5.0637,-4.9691,-4.8746,-4.8294,-4.7935,-4.7808,-4.7717,-4.7699,-4.7699,-4.7699,-4.7699,-4.7699,-4.7699,-4.7699,-4.7699,-4.7699,-4.7699,-4.7699,-4.7699,-4.7699,-4.7699,-4.7699,-4.7699,-4.7699,-4.7699,-4.7699,-4.7699,-4.7699,-4.7699,-4.7699,-4.7699,-4.7699,-4.7699,-4.7699,-4.7699,-4.7699,-4.7699,-4.7699,-4.7464,-4.7083,-4.6667,-4.6051,-5.5684,-5.5684,-5.5684,-5.5684,-5.5684,-5.5703,-5.5651,-5.5585,-5.548,-5.5421,-5.5396,-5.5384,-5.539,-5.539,-5.539,-5.539,-5.539,-5.539,-5.539,-5.539,-5.539,-5.5273,-5.5066,-5.4889,-5.4981,-5.461,-5.4482,-5.4704,-5.4594,-5.4689,-5.4874,-5.4851,-5.5127,-5.5127,-5.4884,-5.4855,-5.4689,-5.4463,-5.4347,-5.4332,-5.4228,-5.4262,-5.426,-5.4085,-5.4066,-5.3994,-5.3795,-5.3607,-5.3407,-5.3263,-5.3051,-5.2806,-5.2806,-5.2806,-5.2912,-5.3023,-5.3088,-5.3085,-5.3106,-5.317,-5.3063,-5.2977,-5.2828,-5.2806,-5.2743,-5.2631,-5.2577,-5.2572,-5.2554,-5.2595,-5.24,-5.2146,-5.1692,-5.1121,-5.0355,-4.9387,-4.8677,-4.8206,-4.7753,-4.7699,-4.7699,-4.7699,-4.7699,-4.7699,-4.7699,-4.7699,-4.7699,-4.7699,-4.7699,-4.7699,-4.772,-4.7699,-4.7699,-4.7699,-4.7699,-4.7699,-4.7699,-4.7699,-4.7699,-4.7699,-4.7699,-4.7699,-4.7699,-4.7699,-4.7699,-4.7699,-4.7699,-4.7699,-4.7699,-4.7699,-4.7699,-4.7699,-4.7428,-4.7029,-4.6558,-5.5684,-5.5684,-5.5684,-5.5684,-5.5684,-5.5684,-5.5651,-5.5615,-5.5573,-5.5492,-5.5402,-5.539,-5.539,-5.539,-5.539,-5.539,-5.539,-5.539,-5.539,-5.539,-5.539,-5.5345,-5.5241,-5.5173,-5.5146,-5.5173,-5.5132,-5.5042,-5.5042,-5.5159,-5.5246,-5.5227,-5.539,-5.5286,-5.52,-5.52,-5.5113,-5.4981,-5.4966,-5.4754,-5.4446,-5.4509,-5.4538,-5.4355,-5.427,-5.427,-5.403,-5.3626,-5.3487,-5.3326,-5.2987,-5.2893,-5.2955,-5.2959,-5.3042,-5.3167,-5.3404,-5.3402,-5.338,-5.344,-5.3402,-5.3233,-5.3085,-5.302,-5.2893,-5.2721,-5.2631,-5.2631,-5.2649,-5.2672,-5.264,-5.2403,-5.2144,-5.1591,-5.0998,-5.0047,-4.9075,-4.8424,-4.7826,-4.7699,-4.7699,-4.7699,-4.7699,-4.7699,-4.7699,-4.7699,-4.7699,-4.7699,-4.772,-4.772,-4.7762,-4.7741,-4.7699,-4.7699,-4.7699,-4.7699,-4.7699,-4.7699,-4.7699,-4.7699,-4.7699,-4.7699,-4.7699,-4.7699,-4.7699,-4.7699,-4.7699,-4.7699,-4.7699,-4.7699,-4.7699,-4.7699,-4.7699,-4.7409,-4.7011,-5.5684,-5.5684,-5.5684,-5.5684,-5.5684,-5.5684,-5.5692,-5.564,-5.5607,-5.5562,-5.548,-5.5434,-5.539,-5.5384,-5.539,-5.539,-5.539,-5.539,-5.539,-5.539,-5.539,-5.539,-5.539,-5.539,-5.5345,-5.539,-5.539,-5.5345,-5.539,-5.539,-5.5377,-5.539,-5.539,-5.539,-5.539,-5.539,-5.539,-5.5377,-5.539,-5.5146,-5.4719,-5.487,-5.4976,-5.4806,-5.4758,-5.4678,-5.4338,-5.396,-5.3739,-5.3585,-5.3324,-5.3447,-5.3546,-5.3643,-5.3642,-5.3738,-5.3851,-5.3889,-5.3776,-5.3776,-5.3758,-5.3524,-5.3563,-5.3547,-5.2984,-5.2813,-5.2882,-5.2879,-5.2761,-5.2761,-5.2761,-5.2597,-5.2476,-5.2104,-5.1405,-5.0562,-4.9554,-4.8695,-4.8116,-4.7699,-4.7699,-4.7699,-4.7699,-4.7699,-4.7699,-4.772,-4.772,-4.778,-4.7801,-4.7783,-4.7804,-4.7804,-4.7762,-4.772,-4.7699,-4.7699,-4.7699,-4.7699,-4.7699,-4.7699,-4.7699,-4.7699,-4.7699,-4.7699,-4.7699,-4.7699,-4.7699,-4.7717,-4.7699,-4.7699,-4.7699,-4.7699,-4.7699,-4.7699,-4.7409,-5.5684,-5.5684,-5.5684,-5.5684,-5.5684,-5.5684,-5.5684,-5.5692,-5.5629,-5.5607,-5.5573,-5.548,-5.5415,-5.539,-5.539,-5.539,-5.539,-5.539,-5.539,-5.539,-5.539,-5.539,-5.539,-5.539,-5.539,-5.539,-5.539,-5.539,-5.539,-5.539,-5.539,-5.539,-5.539,-5.539,-5.539,-5.539,-5.539,-5.539,-5.539,-5.539,-5.5358,-5.539,-5.5332,-5.5345,-5.5358,-5.52,-5.487,-5.4525,-5.4157,-5.3979,-5.3814,-5.3888,-5.4016,-5.4088,-5.4123,-5.4176,-5.4262,-5.4279,-5.4228,-5.4262,-5.4051,-5.3851,-5.4032,-5.3833,-5.3267,-5.3164,-5.3228,-5.3088,-5.2978,-5.2839,-5.2839,-5.2799,-5.2678,-5.2462,-5.173,-5.1002,-4.9992,-4.9016,-4.8412,-4.7868,-4.7741,-4.7741,-4.7741,-4.7741,-4.7741,-4.7762,-4.7783,-4.7863,-4.7904,-4.7907,-4.7909,-4.7888,-4.7868,-4.7806,-4.7741,-4.7738,-4.7759,-4.7699,-4.7699,-4.7699,-4.7699,-4.7738,-4.7759,-4.7699,-4.7699,-4.7762,-4.7759,-4.7738,-4.7738,-4.7699,-4.7699,-4.7699,-4.7699,-4.7699,-4.7699,-5.5684,-5.5684,-5.5684,-5.5684,-5.5684,-5.5684,-5.5684,-5.5703,-5.5673,-5.566,-5.5596,-5.5573,-5.5504,-5.5402,-5.5396,-5.5403,-5.539,-5.539,-5.539,-5.539,-5.539,-5.539,-5.539,-5.539,-5.539,-5.539,-5.539,-5.539,-5.539,-5.539,-5.539,-5.539,-5.539,-5.539,-5.539,-5.539,-5.539,-5.539,-5.539,-5.539,-5.539,-5.539,-5.539,-5.539,-5.539,-5.5345,-5.5187,-5.4884,-5.4716,-5.456,-5.4364,-5.4296,-5.4364,-5.443,-5.443,-5.4511,-5.4607,-5.461,-5.4594,-5.4657,-5.4425,-5.419,-5.4292,-5.4202,-5.3868,-5.3775,-5.3738,-5.3498,-5.3308,-5.3038,-5.2994,-5.2899,-5.2803,-5.245,-5.1871,-5.1229,-5.0409,-4.9492,-4.8728,-4.8254,-4.7909,-4.7909,-4.7909,-4.7909,-4.7909,-4.7929,-4.7929,-4.799,-4.809,-4.8052,-4.8052,-4.8034,-4.8034,-4.7927,-4.7863,-4.7822,-4.7801,-4.7759,-4.7717,-4.7738,-4.778,-4.784,-4.7801,-4.7783,-4.7806,-4.7868,-4.7845,-4.7798,-4.7759,-4.7738,-4.7699,-4.7699,-4.7699,-4.7699,-4.7699]},{"header":{"parameterUnit":"m.s-1","parameterCategory":1,"la1":31.0,"la2":29.5877,"lo1":-88.7671,"lo2":-86.6584,"dy":0.0162,"dx":0.0185,"nx":115,"ny":88,"refTime":"2023-11-03T06:00:00:Z","depth":0,"parameterNumber":3,"parameterNumberName":"V-component_of_WINDS"},"data":[0.0,0.0,0.0,0.0,0.0,0.0,0.0,0.0,0.0,0.0,0.0,0.0,0.0,0.0,0.0,0.0,0.0,0.0,0.0,0.0,0.0,0.0,0.0,0.0,0.0,0.0,0.0,0.0,0.0,0.0,0.0,0.0,0.0,0.0,0.0,0.0,0.0,0.0,0.0,0.0,0.0,0.0,0.0,0.0,0.0,0.0,0.0,0.0,0.0,0.0,0.0,0.0,0.0,0.0,0.0,0.0,0.0,0.0,0.0,0.0,0.0,0.0,0.0,0.0,0.0,0.0,0.0,0.0,0.0,0.0,0.0,0.0,0.0,0.0,0.0,0.0,0.0,0.0,0.0,0.0,0.0,0.0,0.0,0.0,0.0,0.0,0.0,0.0,0.0,0.0,0.0,0.0,0.0,0.0,0.0,0.0,0.0,0.0,0.0,0.0,0.0,0.0,0.0,0.0,0.0,0.0,0.0,0.0,0.0,0.0,0.0,0.0,0.0,0.0,0.0,0.0,0.0,0.0,0.0,0.0,0.0,0.0,0.0,0.0,0.0,0.0,0.0,0.0,0.0,0.0,0.0,0.0,0.0,0.0,0.0,0.0,0.0,0.0,0.0,0.0,0.0,0.0,0.0,0.0,0.0,0.0,0.0,0.0,0.0,0.0,0.0,0.0,0.0,0.0,0.0,0.0,0.0,0.0,0.0,0.0,0.0,0.0,0.0,0.0,0.0,0.0,0.0,0.0,0.0,0.0,0.0,0.0,0.0,0.0,0.0,0.0,0.0,0.0,0.0,0.0,0.0,0.0,0.0,0.0,0.0,0.0,0.0,0.0,0.0,0.0,0.0,0.0,0.0,0.0,0.0,0.0,0.0,0.0,0.0,0.0,0.0,0.0,0.0,0.0,0.0,0.0,0.0,0.0,0.0,0.0,0.0,0.0,0.0,0.0,0.0,0.0,0.0,0.0,0.0,0.0,0.0,0.0,0.0,0.0,0.0,0.0,0.0,0.0,0.0,0.0,0.0,0.0,0.0,0.0,0.0,0.0,0.0,0.0,0.0,0.0,0.0,0.0,0.0,0.0,0.0,0.0,0.0,0.0,0.0,0.0,0.0,0.0,0.0,0.0,0.0,0.0,0.0,0.0,0.0,0.0,0.0,0.0,0.0,0.0,0.0,0.0,0.0,0.0,0.0,0.0,0.0,0.0,0.0,0.0,0.0,0.0,0.0,0.0,0.0,0.0,0.0,0.0,0.0,0.0,0.0,0.0,0.0,0.0,0.0,0.0,0.0,0.0,0.0,0.0,0.0,0.0,0.0,0.0,0.0,0.0,0.0,0.0,0.0,0.0,0.0,0.0,0.0,0.0,0.0,0.0,0.0,0.0,0.0,0.0,0.0,0.0,0.0,0.0,0.0,0.0,0.0,0.0,0.0,0.0,0.0,0.0,0.0,0.0,0.0,0.0,0.0,0.0,0.0,0.0,0.0,0.0,0.0,0.0,0.0,0.0,0.0,0.0,0.0,0.0,0.0,0.0,0.0,0.0,0.0,0.0,0.0,0.0,0.0,0.0,0.0,0.0,0.0,0.0,0.0,0.0,0.0,0.0,0.0,0.0,0.0,0.0,0.0,0.0,0.0,0.0,0.0,0.0,0.0,0.0,0.0,0.0,0.0,0.0,0.0,0.0,0.0,0.0,0.0,0.0,0.0,0.0,0.0,0.0,0.0,0.0,0.0,0.0,0.0,0.0,0.0,0.0,0.0,0.0,0.0,0.0,0.0,0.0,0.0,0.0,0.0,0.0,0.0,0.0,0.0,0.0,0.0,0.0,0.0,0.0,0.0,0.0,0.0,0.0,0.0,0.0,0.0,0.0,0.0,0.0,0.0,0.0,0.0,0.0,0.0,0.0,0.0,0.0,0.0,0.0,0.0,0.0,0.0,0.0,0.0,0.0,0.0,0.0,0.0,0.0,0.0,0.0,0.0,0.0,0.0,0.0,0.0,0.0,0.0,0.0,0.0,0.0,0.0,0.0,0.0,0.0,0.0,0.0,0.0,0.0,0.0,0.0,0.0,0.0,0.0,0.0,0.0,0.0,0.0,0.0,0.0,0.0,0.0,0.0,0.0,0.0,0.0,0.0,0.0,0.0,0.0,0.0,0.0,0.0,0.0,0.0,0.0,0.0,0.0,0.0,0.0,0.0,0.0,0.0,0.0,0.0,0.0,0.0,0.0,0.0,0.0,0.0,0.0,0.0,0.0,0.0,0.0,0.0,0.0,0.0,0.0,0.0,0.0,0.0,0.0,0.0,0.0,0.0,0.0,0.0,0.0,0.0,0.0,0.0,0.0,0.0,0.0,0.0,0.0,0.0,0.0,0.0,0.0,0.0,0.0,0.0,0.0,0.0,0.0,0.0,0.0,0.0,0.0,0.0,0.0,0.0,0.0,0.0,0.0,0.0,0.0,0.0,0.0,0.0,0.0,0.0,0.0,0.0,0.0,0.0,0.0,0.0,0.0,0.0,0.0,0.0,0.0,0.0,0.0,0.0,0.0,0.0,0.0,0.0,0.0,0.0,0.0,0.0,0.0,0.0,0.0,0.0,0.0,0.0,0.0,0.0,0.0,0.0,0.0,0.0,0.0,0.0,0.0,0.0,0.0,0.0,0.0,0.0,0.0,0.0,0.0,0.0,0.0,0.0,0.0,0.0,0.0,0.0,0.0,0.0,0.0,0.0,0.0,0.0,0.0,0.0,0.0,0.0,0.0,0.0,0.0,0.0,0.0,0.0,0.0,0.0,0.0,0.0,0.0,0.0,0.0,0.0,0.0,0.0,0.0,0.0,0.0,0.0,0.0,0.0,0.0,0.0,0.0,0.0,0.0,0.0,0.0,0.0,0.0,0.0,0.0,0.0,0.0,0.0,0.0,0.0,0.0,0.0,0.0,0.0,0.0,0.0,0.0,0.0,0.0,0.0,0.0,0.0,0.0,0.0,0.0,0.0,0.0,0.0,0.0,0.0,0.0,0.0,0.0,0.0,0.0,0.0,0.0,0.0,0.0,0.0,0.0,0.0,0.0,0.0,0.0,0.0,0.0,0.0,0.0,0.0,0.0,0.0,0.0,0.0,0.0,0.0,0.0,0.0,0.0,0.0,0.0,0.0,0.0,0.0,0.0,0.0,0.0,0.0,0.0,0.0,0.0,0.0,0.0,0.0,0.0,0.0,0.0,0.0,0.0,0.0,0.0,0.0,0.0,0.0,0.0,0.0,0.0,0.0,0.0,0.0,0.0,0.0,0.0,0.0,0.0,0.0,0.0,0.0,0.0,0.0,0.0,0.0,0.0,0.0,0.0,0.0,0.0,0.0,0.0,0.0,0.0,0.0,0.0,0.0,0.0,0.0,0.0,0.0,0.0,0.0,0.0,0.0,0.0,0.0,0.0,0.0,0.0,0.0,0.0,0.0,0.0,0.0,0.0,0.0,0.0,0.0,0.0,0.0,0.0,0.0,0.0,0.0,0.0,0.0,0.0,0.0,0.0,0.0,0.0,0.0,0.0,0.0,0.0,0.0,0.0,0.0,0.0,0.0,0.0,0.0,0.0,0.0,0.0,0.0,0.0,0.0,0.0,0.0,0.0,0.0,0.0,0.0,0.0,0.0,0.0,0.0,0.0,0.0,0.0,0.0,0.0,0.0,0.0,0.0,0.0,0.0,0.0,0.0,0.0,0.0,0.0,0.0,0.0,0.0,0.0,0.0,0.0,0.0,0.0,0.0,0.0,0.0,0.0,0.0,0.0,0.0,0.0,0.0,0.0,0.0,0.0,0.0,0.0,0.0,0.0,0.0,0.0,0.0,0.0,0.0,0.0,0.0,0.0,0.0,0.0,0.0,0.0,0.0,0.0,0.0,0.0,0.0,0.0,0.0,0.0,0.0,0.0,0.0,0.0,0.0,0.0,0.0,0.0,0.0,0.0,0.0,0.0,0.0,0.0,0.0,0.0,0.0,0.0,0.0,0.0,0.0,0.0,0.0,0.0,0.0,0.0,0.0,0.0,0.0,0.0,0.0,0.0,0.0,0.0,0.0,0.0,0.0,0.0,0.0,0.0,0.0,0.0,0.0,0.0,0.0,0.0,0.0,0.0,0.0,0.0,0.0,0.0,0.0,0.0,0.0,0.0,0.0,0.0,0.0,0.0,0.0,0.0,0.0,0.0,0.0,0.0,0.0,0.0,0.0,0.0,0.0,0.0,0.0,0.0,0.0,0.0,0.0,0.0,0.0,0.0,0.0,-1.4932,0.0,0.0,0.0,0.0,0.0,0.0,0.0,0.0,0.0,0.0,0.0,0.0,0.0,0.0,0.0,0.0,0.0,0.0,0.0,0.0,0.0,0.0,0.0,0.0,0.0,0.0,0.0,0.0,0.0,0.0,0.0,0.0,0.0,0.0,0.0,0.0,0.0,0.0,0.0,0.0,0.0,0.0,0.0,0.0,0.0,0.0,0.0,0.0,0.0,0.0,0.0,0.0,0.0,0.0,0.0,0.0,0.0,0.0,0.0,0.0,0.0,0.0,0.0,0.0,0.0,0.0,0.0,0.0,0.0,0.0,0.0,0.0,0.0,0.0,0.0,0.0,0.0,0.0,0.0,0.0,0.0,0.0,0.0,0.0,0.0,0.0,0.0,0.0,0.0,0.0,0.0,0.0,0.0,0.0,0.0,0.0,0.0,0.0,0.0,0.0,0.0,0.0,0.0,0.0,0.0,0.0,0.0,0.0,0.0,0.0,-1.6315,-1.6219,-1.622,-1.5951,-1.5376,0.0,0.0,0.0,0.0,0.0,0.0,0.0,0.0,0.0,0.0,0.0,0.0,0.0,0.0,0.0,0.0,0.0,0.0,0.0,0.0,0.0,0.0,0.0,0.0,0.0,0.0,0.0,0.0,0.0,0.0,0.0,0.0,0.0,0.0,0.0,0.0,0.0,0.0,0.0,0.0,0.0,0.0,0.0,0.0,0.0,0.0,0.0,0.0,0.0,0.0,0.0,0.0,0.0,0.0,0.0,0.0,0.0,0.0,0.0,0.0,0.0,0.0,0.0,0.0,0.0,0.0,0.0,0.0,0.0,0.0,0.0,0.0,0.0,0.0,0.0,0.0,0.0,0.0,0.0,0.0,0.0,0.0,0.0,0.0,0.0,0.0,0.0,0.0,0.0,0.0,0.0,0.0,0.0,0.0,0.0,0.0,0.0,0.0,0.0,0.0,0.0,0.0,0.0,0.0,0.0,0.0,0.0,0.0,0.0,0.0,0.0,0.0,-1.6436,-1.6307,-1.6017,0.0,0.0,0.0,0.0,0.0,0.0,0.0,0.0,0.0,0.0,0.0,0.0,0.0,0.0,0.0,0.0,0.0,0.0,0.0,0.0,0.0,0.0,0.0,0.0,0.0,0.0,0.0,0.0,0.0,0.0,0.0,0.0,0.0,0.0,0.0,0.0,0.0,0.0,0.0,0.0,0.0,0.0,0.0,0.0,0.0,0.0,0.0,0.0,0.0,0.0,0.0,0.0,0.0,0.0,0.0,0.0,0.0,0.0,0.0,0.0,0.0,0.0,0.0,0.0,0.0,0.0,0.0,0.0,0.0,0.0,0.0,0.0,0.0,0.0,0.0,0.0,0.0,0.0,0.0,0.0,0.0,0.0,0.0,0.0,0.0,0.0,0.0,0.0,0.0,0.0,0.0,0.0,0.0,0.0,0.0,0.0,0.0,0.0,0.0,0.0,0.0,0.0,0.0,0.0,0.0,0.0,0.0,0.0,0.0,0.0,-1.6554,-1.6501,-1.6557,0.0,-1.6863,0.0,0.0,0.0,0.0,0.0,0.0,0.0,0.0,0.0,0.0,0.0,0.0,0.0,0.0,0.0,0.0,0.0,0.0,0.0,0.0,0.0,0.0,0.0,0.0,0.0,0.0,0.0,0.0,0.0,0.0,0.0,0.0,0.0,0.0,0.0,0.0,0.0,0.0,0.0,0.0,0.0,0.0,0.0,0.0,0.0,0.0,0.0,0.0,0.0,0.0,0.0,0.0,0.0,0.0,0.0,0.0,0.0,0.0,0.0,0.0,0.0,0.0,0.0,0.0,0.0,0.0,0.0,0.0,0.0,0.0,0.0,0.0,0.0,0.0,0.0,0.0,0.0,0.0,0.0,0.0,0.0,0.0,0.0,0.0,0.0,0.0,0.0,0.0,0.0,0.0,0.0,0.0,0.0,0.0,0.0,0.0,0.0,0.0,0.0,0.0,0.0,0.0,0.0,0.0,0.0,0.0,0.0,0.0,0.0,0.0,-1.6678,-1.6554,-1.6688,-1.684,0.0,0.0,0.0,0.0,0.0,0.0,0.0,0.0,0.0,0.0,0.0,0.0,0.0,0.0,0.0,0.0,0.0,0.0,0.0,0.0,0.0,0.0,0.0,0.0,0.0,0.0,0.0,0.0,0.0,0.0,0.0,0.0,0.0,0.0,0.0,0.0,0.0,0.0,0.0,0.0,0.0,0.0,0.0,0.0,0.0,0.0,0.0,0.0,0.0,0.0,0.0,0.0,0.0,0.0,0.0,0.0,0.0,0.0,0.0,0.0,0.0,0.0,0.0,0.0,0.0,0.0,0.0,0.0,0.0,0.0,0.0,0.0,0.0,0.0,0.0,0.0,0.0,0.0,0.0,0.0,0.0,0.0,0.0,0.0,0.0,0.0,0.0,0.0,0.0,0.0,0.0,0.0,0.0,0.0,0.0,0.0,0.0,0.0,0.0,0.0,0.0,0.0,0.0,0.0,0.0,0.0,0.0,0.0,0.0,0.0,-1.6824,-1.6743,-1.6662,-1.6798,-1.6796,-1.6629,0.0,0.0,0.0,0.0,0.0,0.0,0.0,0.0,0.0,0.0,0.0,0.0,0.0,0.0,0.0,0.0,0.0,0.0,0.0,0.0,0.0,0.0,0.0,0.0,0.0,0.0,0.0,0.0,0.0,0.0,0.0,0.0,0.0,0.0,0.0,0.0,0.0,0.0,0.0,0.0,0.0,0.0,0.0,0.0,0.0,0.0,0.0,0.0,0.0,0.0,0.0,0.0,0.0,0.0,0.0,0.0,0.0,0.0,0.0,0.0,0.0,0.0,0.0,0.0,0.0,0.0,0.0,0.0,0.0,0.0,0.0,0.0,0.0,0.0,0.0,0.0,0.0,0.0,0.0,0.0,0.0,0.0,0.0,0.0,0.0,0.0,0.0,0.0,0.0,0.0,0.0,0.0,0.0,0.0,0.0,0.0,0.0,0.0,0.0,0.0,0.0,0.0,0.0,0.0,0.0,0.0,0.0,0.0,-1.6892,-1.684,-1.6798,-1.6769,-1.6798,-1.653,0.0,0.0,0.0,0.0,0.0,0.0,0.0,0.0,0.0,0.0,0.0,0.0,0.0,0.0,0.0,0.0,0.0,0.0,0.0,0.0,0.0,0.0,0.0,0.0,0.0,0.0,0.0,0.0,0.0,0.0,0.0,0.0,0.0,0.0,0.0,0.0,0.0,0.0,0.0,0.0,0.0,0.0,0.0,0.0,0.0,0.0,0.0,0.0,0.0,0.0,0.0,0.0,0.0,0.0,0.0,0.0,0.0,0.0,0.0,0.0,0.0,0.0,0.0,0.0,0.0,0.0,0.0,0.0,0.0,0.0,0.0,0.0,0.0,0.0,0.0,0.0,0.0,0.0,0.0,0.0,0.0,0.0,0.0,0.0,0.0,0.0,0.0,0.0,0.0,0.0,0.0,0.0,0.0,0.0,0.0,0.0,0.0,0.0,0.0,0.0,0.0,0.0,0.0,0.0,0.0,0.0,0.0,0.0,0.0,-1.6717,-1.6599,-1.6546,-1.6546,-1.661,-1.6371,0.0,0.0,0.0,0.0,0.0,0.0,0.0,0.0,0.0,0.0,0.0,0.0,0.0,0.0,0.0,0.0,0.0,0.0,0.0,0.0,0.0,0.0,0.0,0.0,0.0,0.0,0.0,0.0,0.0,0.0,0.0,0.0,0.0,0.0,0.0,0.0,0.0,0.0,0.0,0.0,0.0,0.0,0.0,0.0,0.0,0.0,0.0,0.0,0.0,0.0,0.0,0.0,0.0,0.0,0.0,0.0,0.0,0.0,0.0,0.0,0.0,0.0,0.0,0.0,0.0,0.0,0.0,0.0,0.0,0.0,0.0,0.0,0.0,0.0,0.0,0.0,0.0,0.0,0.0,0.0,0.0,0.0,0.0,0.0,0.0,0.0,0.0,0.0,0.0,0.0,0.0,0.0,0.0,0.0,0.0,0.0,0.0,0.0,0.0,0.0,0.0,0.0,0.0,0.0,0.0,0.0,0.0,0.0,0.0,-1.6721,0.0,-1.6716,-1.653,-1.6626,-1.6314,0.0,0.0,0.0,0.0,0.0,0.0,0.0,0.0,0.0,0.0,0.0,0.0,0.0,0.0,0.0,0.0,0.0,0.0,0.0,0.0,0.0,0.0,0.0,0.0,0.0,0.0,0.0,0.0,0.0,0.0,0.0,0.0,0.0,0.0,0.0,0.0,0.0,0.0,0.0,0.0,0.0,0.0,0.0,0.0,0.0,0.0,0.0,0.0,0.0,0.0,0.0,0.0,0.0,0.0,0.0,0.0,0.0,0.0,0.0,0.0,0.0,0.0,0.0,0.0,0.0,0.0,0.0,0.0,0.0,0.0,0.0,0.0,0.0,0.0,0.0,0.0,0.0,0.0,0.0,0.0,0.0,0.0,0.0,0.0,0.0,0.0,0.0,0.0,0.0,0.0,0.0,0.0,0.0,0.0,0.0,0.0,0.0,0.0,0.0,0.0,0.0,0.0,0.0,0.0,0.0,0.0,0.0,0.0,-1.6825,-1.7,-1.7405,-1.7311,-1.6803,-1.6819,-1.6359,0.0,0.0,0.0,0.0,0.0,0.0,0.0,0.0,0.0,0.0,0.0,0.0,0.0,0.0,0.0,0.0,0.0,0.0,0.0,0.0,0.0,0.0,0.0,0.0,0.0,0.0,0.0,0.0,0.0,0.0,0.0,0.0,0.0,0.0,0.0,0.0,0.0,0.0,0.0,0.0,0.0,0.0,0.0,0.0,0.0,0.0,0.0,0.0,0.0,0.0,0.0,0.0,0.0,0.0,0.0,0.0,0.0,0.0,0.0,0.0,0.0,0.0,0.0,0.0,0.0,0.0,0.0,0.0,0.0,0.0,0.0,0.0,0.0,0.0,0.0,0.0,0.0,0.0,0.0,0.0,0.0,0.0,0.0,0.0,0.0,0.0,0.0,0.0,0.0,0.0,0.0,0.0,0.0,0.0,0.0,0.0,0.0,0.0,0.0,0.0,0.0,0.0,0.0,0.0,0.0,0.0,0.0,0.0,0.0,-1.6998,-1.6874,-1.667,-1.6389,-1.6259,-1.5901,0.0,0.0,0.0,0.0,0.0,0.0,0.0,0.0,0.0,0.0,0.0,0.0,0.0,0.0,0.0,0.0,0.0,0.0,0.0,0.0,0.0,0.0,0.0,0.0,0.0,0.0,0.0,0.0,0.0,0.0,0.0,0.0,0.0,0.0,0.0,0.0,0.0,0.0,0.0,0.0,0.0,0.0,0.0,0.0,0.0,0.0,0.0,0.0,0.0,0.0,0.0,0.0,0.0,0.0,0.0,0.0,0.0,0.0,0.0,0.0,0.0,0.0,0.0,0.0,0.0,0.0,0.0,0.0,0.0,0.0,0.0,0.0,0.0,0.0,0.0,0.0,0.0,0.0,0.0,0.0,0.0,0.0,0.0,0.0,0.0,0.0,0.0,0.0,0.0,0.0,0.0,0.0,0.0,0.0,0.0,0.0,0.0,0.0,0.0,0.0,0.0,0.0,0.0,0.0,0.0,0.0,0.0,0.0,0.0,-1.6692,-1.6412,-1.6064,-1.5569,-1.5638,-1.5515,-1.5219,0.0,0.0,0.0,0.0,0.0,0.0,0.0,0.0,0.0,0.0,0.0,0.0,0.0,0.0,0.0,0.0,0.0,0.0,0.0,0.0,0.0,0.0,0.0,0.0,0.0,0.0,0.0,0.0,0.0,0.0,0.0,0.0,0.0,0.0,0.0,0.0,0.0,0.0,0.0,0.0,0.0,0.0,0.0,0.0,0.0,0.0,0.0,0.0,0.0,0.0,0.0,0.0,0.0,0.0,0.0,0.0,0.0,0.0,0.0,0.0,0.0,0.0,0.0,0.0,0.0,0.0,0.0,0.0,0.0,0.0,0.0,0.0,0.0,0.0,0.0,0.0,0.0,0.0,0.0,0.0,0.0,0.0,0.0,0.0,0.0,0.0,0.0,0.0,0.0,0.0,0.0,0.0,0.0,0.0,0.0,0.0,0.0,0.0,0.0,0.0,0.0,0.0,0.0,0.0,0.0,0.0,0.0,0.0,-1.6006,-1.5989,-1.545,-1.4484,-1.4954,-1.5229,0.0,0.0,0.0,0.0,0.0,0.0,0.0,0.0,0.0,0.0,0.0,0.0,0.0,0.0,0.0,0.0,0.0,0.0,0.0,0.0,0.0,0.0,0.0,0.0,0.0,0.0,0.0,0.0,0.0,0.0,0.0,0.0,0.0,0.0,0.0,0.0,0.0,0.0,0.0,0.0,0.0,0.0,0.0,0.0,0.0,0.0,0.0,0.0,0.0,0.0,0.0,0.0,0.0,0.0,0.0,0.0,0.0,0.0,0.0,0.0,0.0,0.0,0.0,0.0,0.0,0.0,0.0,0.0,0.0,0.0,0.0,0.0,0.0,0.0,0.0,0.0,0.0,0.0,0.0,0.0,0.0,0.0,0.0,0.0,0.0,0.0,0.0,0.0,0.0,0.0,0.0,0.0,0.0,0.0,0.0,0.0,0.0,0.0,0.0,0.0,0.0,0.0,0.0,0.0,0.0,0.0,0.0,0.0,0.0,-1.5023,-1.4469,-1.4008,-1.372,-1.4161,-1.4682,0.0,0.0,0.0,0.0,0.0,0.0,0.0,0.0,0.0,0.0,0.0,0.0,0.0,0.0,0.0,0.0,0.0,0.0,0.0,0.0,0.0,0.0,0.0,0.0,0.0,0.0,0.0,0.0,0.0,0.0,0.0,0.0,0.0,0.0,0.0,0.0,0.0,0.0,0.0,0.0,0.0,0.0,0.0,0.0,0.0,0.0,0.0,0.0,0.0,0.0,0.0,0.0,0.0,0.0,0.0,0.0,0.0,0.0,0.0,0.0,0.0,0.0,0.0,0.0,0.0,0.0,0.0,0.0,0.0,0.0,0.0,0.0,0.0,0.0,0.0,0.0,0.0,0.0,0.0,0.0,0.0,0.0,0.0,0.0,0.0,0.0,0.0,0.0,0.0,0.0,0.0,0.0,0.0,0.0,0.0,0.0,0.0,0.0,0.0,0.0,0.0,0.0,0.0,0.0,0.0,0.0,0.0,0.0,-1.5942,-1.4967,-1.3647,-1.2914,-1.2816,-1.3678,-1.4342,0.0,0.0,0.0,0.0,0.0,0.0,0.0,0.0,0.0,0.0,0.0,0.0,0.0,0.0,0.0,0.0,0.0,0.0,0.0,0.0,0.0,0.0,0.0,0.0,0.0,0.0,0.0,0.0,0.0,0.0,0.0,0.0,0.0,0.0,0.0,0.0,0.0,0.0,0.0,0.0,0.0,0.0,0.0,0.0,0.0,0.0,0.0,0.0,0.0,0.0,0.0,0.0,0.0,0.0,0.0,0.0,0.0,0.0,0.0,0.0,0.0,0.0,0.0,0.0,0.0,0.0,0.0,0.0,0.0,0.0,0.0,0.0,0.0,0.0,0.0,0.0,0.0,0.0,0.0,0.0,0.0,0.0,0.0,0.0,0.0,0.0,0.0,0.0,0.0,0.0,0.0,0.0,0.0,0.0,0.0,0.0,0.0,0.0,0.0,0.0,0.0,0.0,0.0,0.0,0.0,0.0,0.0,0.0,-1.579,-1.5368,-1.3386,-1.2235,-1.2086,-1.3418,-1.4172,0.0,0.0,0.0,0.0,0.0,0.0,0.0,0.0,0.0,0.0,0.0,0.0,0.0,0.0,0.0,0.0,0.0,0.0,0.0,0.0,0.0,0.0,0.0,0.0,0.0,0.0,0.0,0.0,0.0,0.0,0.0,0.0,0.0,0.0,0.0,0.0,0.0,0.0,0.0,0.0,0.0,0.0,0.0,0.0,0.0,0.0,0.0,0.0,0.0,0.0,0.0,0.0,0.0,0.0,0.0,0.0,0.0,0.0,0.0,0.0,0.0,0.0,0.0,0.0,0.0,0.0,0.0,0.0,0.0,0.0,0.0,0.0,0.0,0.0,0.0,0.0,0.0,0.0,0.0,0.0,0.0,0.0,0.0,0.0,0.0,0.0,0.0,0.0,0.0,0.0,0.0,0.0,0.0,0.0,0.0,0.0,0.0,0.0,0.0,0.0,0.0,0.0,0.0,0.0,0.0,0.0,0.0,0.0,-1.5464,-1.4656,-1.3724,-1.2949,-1.2424,-1.3155,-1.3905,0.0,0.0,0.0,0.0,0.0,0.0,0.0,0.0,0.0,0.0,0.0,0.0,0.0,0.0,0.0,0.0,0.0,0.0,0.0,0.0,0.0,0.0,0.0,0.0,0.0,0.0,0.0,0.0,0.0,0.0,0.0,0.0,0.0,0.0,0.0,0.0,0.0,0.0,0.0,0.0,0.0,0.0,0.0,0.0,0.0,0.0,0.0,0.0,-1.915,0.0,0.0,0.0,0.0,0.0,0.0,0.0,0.0,0.0,0.0,0.0,0.0,0.0,0.0,0.0,0.0,0.0,0.0,0.0,0.0,0.0,0.0,0.0,0.0,0.0,0.0,0.0,0.0,0.0,0.0,0.0,0.0,0.0,0.0,0.0,0.0,0.0,0.0,0.0,0.0,0.0,0.0,0.0,0.0,0.0,0.0,0.0,0.0,0.0,0.0,0.0,0.0,0.0,0.0,0.0,0.0,0.0,0.0,0.0,-1.5473,-1.4633,-1.3814,-1.3223,-1.2999,-1.3357,-1.3955,0.0,0.0,0.0,0.0,0.0,0.0,0.0,0.0,0.0,0.0,0.0,0.0,0.0,0.0,0.0,0.0,0.0,0.0,0.0,0.0,0.0,0.0,0.0,0.0,0.0,0.0,0.0,0.0,0.0,0.0,0.0,0.0,0.0,0.0,0.0,0.0,0.0,0.0,0.0,0.0,0.0,0.0,0.0,0.0,0.0,0.0,0.0,0.0,0.0,0.0,0.0,0.0,0.0,0.0,0.0,0.0,0.0,0.0,0.0,0.0,0.0,0.0,0.0,0.0,0.0,0.0,0.0,0.0,0.0,0.0,0.0,0.0,0.0,0.0,0.0,0.0,0.0,0.0,0.0,0.0,0.0,0.0,0.0,0.0,0.0,0.0,0.0,0.0,0.0,0.0,0.0,0.0,0.0,0.0,0.0,0.0,0.0,0.0,0.0,0.0,0.0,0.0,0.0,0.0,0.0,0.0,0.0,-1.6497,-1.5608,-1.4684,-1.3731,-1.3302,-1.3448,-1.3739,-1.4239,-1.4989,0.0,0.0,0.0,0.0,0.0,0.0,0.0,0.0,0.0,0.0,0.0,0.0,0.0,0.0,0.0,0.0,0.0,0.0,0.0,0.0,0.0,0.0,0.0,0.0,0.0,0.0,0.0,0.0,0.0,0.0,0.0,0.0,0.0,0.0,0.0,0.0,0.0,0.0,-1.6204,-1.8909,0.0,0.0,0.0,0.0,0.0,0.0,0.0,0.0,-2.0715,0.0,0.0,0.0,0.0,0.0,0.0,0.0,0.0,0.0,0.0,0.0,0.0,0.0,0.0,0.0,0.0,0.0,0.0,0.0,0.0,0.0,0.0,0.0,0.0,0.0,0.0,0.0,0.0,0.0,0.0,0.0,0.0,0.0,0.0,0.0,0.0,0.0,0.0,0.0,0.0,0.0,0.0,0.0,0.0,0.0,0.0,0.0,0.0,0.0,0.0,0.0,0.0,0.0,0.0,0.0,0.0,-1.6688,-1.641,-1.5428,-1.376,-1.3564,-1.3382,-1.3266,-1.4204,-1.5121,-1.5887,0.0,0.0,0.0,0.0,0.0,0.0,0.0,0.0,0.0,0.0,0.0,0.0,0.0,0.0,0.0,0.0,0.0,0.0,0.0,0.0,0.0,0.0,0.0,0.0,0.0,0.0,0.0,0.0,0.0,0.0,0.0,0.0,0.0,0.0,0.0,0.0,0.0,0.0,0.0,-1.9108,-2.0146,0.0,0.0,0.0,0.0,0.0,0.0,0.0,0.0,-2.0014,0.0,0.0,0.0,0.0,0.0,0.0,0.0,0.0,0.0,0.0,0.0,0.0,0.0,0.0,0.0,0.0,0.0,0.0,0.0,0.0,0.0,0.0,0.0,0.0,0.0,0.0,0.0,0.0,0.0,0.0,0.0,0.0,0.0,0.0,0.0,0.0,0.0,0.0,0.0,0.0,0.0,0.0,0.0,0.0,0.0,0.0,0.0,0.0,0.0,0.0,0.0,0.0,0.0,0.0,0.0,-1.6306,-1.5814,-1.4993,-1.3807,-1.3785,-1.3711,-1.3629,-1.4467,-1.5412,0.0,0.0,0.0,0.0,0.0,0.0,0.0,0.0,0.0,0.0,0.0,0.0,0.0,0.0,0.0,0.0,0.0,0.0,0.0,0.0,0.0,0.0,0.0,0.0,0.0,0.0,0.0,0.0,0.0,0.0,0.0,0.0,0.0,0.0,0.0,0.0,0.0,0.0,0.0,0.0,-1.9674,-2.0168,-1.9965,0.0,0.0,0.0,0.0,0.0,0.0,-1.9869,-1.9932,0.0,0.0,0.0,0.0,0.0,0.0,0.0,0.0,0.0,0.0,0.0,0.0,0.0,0.0,0.0,0.0,0.0,0.0,0.0,0.0,0.0,0.0,0.0,0.0,0.0,0.0,0.0,0.0,0.0,0.0,0.0,0.0,0.0,0.0,0.0,0.0,0.0,0.0,0.0,0.0,0.0,0.0,0.0,0.0,0.0,0.0,0.0,0.0,0.0,0.0,0.0,0.0,0.0,0.0,0.0,-1.6184,-1.5454,-1.4767,-1.4138,-1.4077,-1.4115,-1.4108,-1.4882,-1.5765,0.0,0.0,0.0,0.0,0.0,0.0,0.0,0.0,0.0,0.0,0.0,0.0,0.0,0.0,0.0,0.0,0.0,0.0,0.0,0.0,0.0,0.0,0.0,0.0,0.0,0.0,0.0,0.0,0.0,0.0,0.0,0.0,0.0,0.0,0.0,0.0,0.0,0.0,0.0,0.0,0.0,-2.0263,-1.9699,-1.9792,0.0,0.0,0.0,0.0,-1.9685,-1.9685,0.0,0.0,0.0,0.0,0.0,0.0,0.0,0.0,0.0,0.0,0.0,0.0,0.0,0.0,0.0,0.0,0.0,0.0,0.0,0.0,0.0,0.0,0.0,0.0,0.0,0.0,0.0,0.0,0.0,0.0,0.0,0.0,0.0,0.0,0.0,0.0,0.0,0.0,0.0,0.0,0.0,0.0,0.0,0.0,0.0,0.0,0.0,0.0,0.0,0.0,0.0,0.0,0.0,0.0,0.0,0.0,-1.6828,-1.6114,-1.5341,-1.4491,-1.4452,-1.446,-1.4445,-1.5819,-1.6719,0.0,0.0,0.0,0.0,0.0,0.0,0.0,0.0,0.0,0.0,0.0,0.0,0.0,0.0,0.0,0.0,0.0,0.0,0.0,0.0,0.0,0.0,0.0,0.0,0.0,0.0,0.0,0.0,0.0,0.0,0.0,0.0,0.0,0.0,0.0,0.0,0.0,0.0,0.0,0.0,0.0,-2.01,-1.9975,-1.9877,-1.9826,0.0,0.0,-1.9115,-1.8727,-1.9063,0.0,0.0,0.0,0.0,0.0,0.0,0.0,0.0,0.0,0.0,0.0,0.0,0.0,0.0,0.0,0.0,0.0,0.0,0.0,0.0,0.0,0.0,0.0,0.0,0.0,0.0,0.0,0.0,0.0,0.0,0.0,0.0,0.0,0.0,0.0,0.0,0.0,0.0,0.0,0.0,0.0,0.0,0.0,0.0,0.0,0.0,0.0,0.0,0.0,0.0,0.0,0.0,0.0,0.0,0.0,-1.7384,-1.7106,-1.5943,-1.5125,-1.4735,-1.4743,-1.4735,-1.4735,-1.5946,-1.6773,0.0,0.0,0.0,0.0,0.0,0.0,0.0,0.0,0.0,0.0,0.0,0.0,0.0,0.0,0.0,0.0,0.0,0.0,0.0,0.0,0.0,0.0,0.0,0.0,0.0,0.0,0.0,0.0,0.0,0.0,0.0,0.0,0.0,0.0,0.0,0.0,0.0,0.0,0.0,0.0,0.0,0.0,-1.999,-1.9721,0.0,0.0,0.0,-1.9241,-1.9081,0.0,0.0,0.0,0.0,0.0,0.0,0.0,0.0,0.0,0.0,0.0,0.0,0.0,0.0,0.0,0.0,0.0,0.0,0.0,0.0,0.0,0.0,0.0,0.0,0.0,0.0,0.0,0.0,0.0,0.0,0.0,0.0,0.0,0.0,0.0,0.0,0.0,0.0,0.0,0.0,0.0,0.0,0.0,0.0,0.0,0.0,0.0,0.0,0.0,0.0,0.0,0.0,0.0,0.0,0.0,0.0,0.0,-1.7314,-1.5822,-1.5024,-1.5017,-1.5024,-1.5017,-1.505,-1.5944,0.0,0.0,0.0,0.0,0.0,0.0,0.0,0.0,0.0,0.0,0.0,0.0,0.0,0.0,0.0,0.0,0.0,0.0,0.0,0.0,0.0,0.0,0.0,0.0,0.0,0.0,0.0,-1.4189,0.0,0.0,0.0,0.0,0.0,0.0,0.0,0.0,0.0,0.0,0.0,0.0,0.0,0.0,-1.9917,-2.027,-1.9696,-1.9308,0.0,0.0,-1.9394,-1.9467,-1.929,-1.9468,0.0,0.0,0.0,0.0,0.0,0.0,0.0,0.0,0.0,0.0,0.0,0.0,0.0,0.0,0.0,0.0,0.0,0.0,0.0,0.0,0.0,0.0,0.0,0.0,0.0,0.0,0.0,0.0,0.0,0.0,0.0,0.0,0.0,0.0,0.0,0.0,0.0,0.0,0.0,0.0,0.0,0.0,0.0,0.0,0.0,0.0,0.0,0.0,0.0,0.0,0.0,0.0,0.0,0.0,-1.7655,-1.7437,-1.6079,-1.5352,-1.5352,-1.536,-1.5352,-1.5394,-1.5964,-1.6733,0.0,0.0,0.0,0.0,0.0,0.0,0.0,0.0,0.0,0.0,0.0,0.0,0.0,0.0,0.0,0.0,0.0,0.0,0.0,0.0,0.0,0.0,0.0,0.0,0.0,0.0,0.0,0.0,0.0,0.0,0.0,0.0,0.0,0.0,0.0,0.0,0.0,0.0,0.0,0.0,0.0,-2.0526,-2.1041,-1.9977,-1.929,0.0,-1.9696,-1.9549,-1.9438,-1.9556,-2.004,-2.1219,0.0,0.0,0.0,0.0,0.0,0.0,0.0,0.0,0.0,0.0,0.0,0.0,0.0,0.0,0.0,0.0,0.0,0.0,0.0,0.0,0.0,0.0,0.0,0.0,0.0,0.0,0.0,0.0,0.0,0.0,0.0,0.0,0.0,0.0,0.0,0.0,0.0,0.0,0.0,0.0,0.0,0.0,0.0,0.0,0.0,0.0,0.0,0.0,0.0,0.0,0.0,0.0,0.0,-1.767,-1.7806,-1.6222,-1.5389,-1.5389,-1.5389,-1.5389,-1.5389,-1.5898,-1.6627,0.0,0.0,0.0,0.0,0.0,0.0,0.0,0.0,0.0,0.0,0.0,0.0,0.0,0.0,0.0,0.0,0.0,0.0,0.0,0.0,0.0,0.0,0.0,0.0,0.0,0.0,0.0,0.0,-1.7229,-1.8059,-1.9035,0.0,0.0,0.0,0.0,0.0,0.0,0.0,0.0,0.0,0.0,-2.0453,-2.0475,-1.9794,0.0,0.0,-1.9516,-1.9616,-2.0062,-1.9983,-2.0271,-2.1535,-2.2185,0.0,0.0,0.0,0.0,0.0,0.0,0.0,0.0,0.0,0.0,0.0,0.0,0.0,0.0,0.0,0.0,0.0,0.0,0.0,0.0,0.0,0.0,0.0,0.0,0.0,0.0,0.0,0.0,0.0,0.0,0.0,0.0,0.0,0.0,0.0,0.0,0.0,0.0,0.0,0.0,0.0,0.0,0.0,0.0,0.0,0.0,0.0,0.0,0.0,0.0,0.0,0.0,-1.8008,-1.8118,-1.6348,-1.5389,-1.5389,-1.5389,-1.5389,-1.5431,-1.5721,-1.6324,0.0,0.0,0.0,0.0,0.0,0.0,0.0,0.0,0.0,0.0,0.0,0.0,0.0,0.0,0.0,0.0,0.0,0.0,0.0,0.0,0.0,0.0,0.0,0.0,0.0,0.0,0.0,0.0,-1.7701,-1.8545,-1.9521,0.0,0.0,0.0,0.0,0.0,0.0,0.0,0.0,0.0,0.0,-2.0487,-2.0412,-1.992,-1.9717,-2.0063,-2.0117,-2.0368,-2.1027,-2.0921,-2.1086,-2.2066,0.0,0.0,0.0,0.0,0.0,0.0,0.0,0.0,0.0,0.0,0.0,0.0,0.0,0.0,0.0,0.0,0.0,0.0,0.0,0.0,0.0,0.0,0.0,0.0,0.0,0.0,0.0,0.0,0.0,0.0,-1.8877,0.0,0.0,0.0,0.0,0.0,0.0,0.0,0.0,0.0,0.0,0.0,0.0,0.0,0.0,0.0,0.0,0.0,0.0,0.0,0.0,0.0,0.0,-1.8737,-1.849,-1.6435,-1.5389,-1.5389,-1.5389,-1.5389,-1.5431,-1.5423,-1.5815,-1.6624,0.0,0.0,0.0,0.0,0.0,0.0,0.0,0.0,0.0,0.0,0.0,0.0,0.0,0.0,0.0,0.0,0.0,0.0,0.0,0.0,0.0,0.0,0.0,0.0,0.0,0.0,-1.7362,-1.8493,-1.9318,0.0,0.0,0.0,0.0,0.0,0.0,0.0,0.0,0.0,0.0,-2.0996,-2.0765,-2.1194,-2.0525,-2.039,-2.151,-2.1691,-2.1851,-2.2252,-2.248,-2.2718,0.0,0.0,0.0,0.0,0.0,0.0,0.0,0.0,0.0,0.0,0.0,0.0,0.0,0.0,0.0,0.0,0.0,0.0,0.0,0.0,0.0,0.0,0.0,0.0,0.0,0.0,0.0,-1.8995,-1.8395,0.0,0.0,0.0,0.0,0.0,0.0,0.0,0.0,0.0,0.0,0.0,-1.7599,-1.7642,0.0,0.0,0.0,0.0,0.0,0.0,0.0,0.0,0.0,0.0,0.0,0.0,-1.8322,-1.8009,-1.6329,-1.5389,-1.5389,-1.5389,-1.5389,-1.5389,-1.5389,-1.5822,-1.6789,0.0,0.0,0.0,0.0,0.0,0.0,0.0,0.0,0.0,0.0,0.0,0.0,0.0,0.0,0.0,0.0,0.0,0.0,0.0,0.0,0.0,0.0,0.0,0.0,0.0,-1.7127,0.0,0.0,0.0,0.0,0.0,0.0,0.0,0.0,0.0,0.0,0.0,-2.2424,-2.1952,-2.191,-2.1819,-2.155,-2.1008,-2.0783,0.0,0.0,0.0,0.0,0.0,0.0,0.0,0.0,0.0,0.0,0.0,0.0,0.0,0.0,-2.5568,-2.4752,-2.4287,-2.3933,-2.3615,0.0,0.0,0.0,0.0,0.0,0.0,0.0,0.0,0.0,0.0,0.0,0.0,0.0,0.0,-1.9346,0.0,-1.903,0.0,0.0,0.0,0.0,0.0,0.0,0.0,0.0,-1.7375,-1.7051,-1.6957,-1.6966,-1.704,0.0,-1.7461,-1.8216,0.0,0.0,0.0,0.0,0.0,0.0,0.0,0.0,-1.8193,-1.7769,-1.6244,-1.5389,-1.5389,-1.5389,-1.5389,-1.5389,-1.5389,-1.5771,-1.6532,-1.7392,-1.8045,0.0,0.0,0.0,0.0,0.0,0.0,0.0,0.0,0.0,0.0,0.0,0.0,0.0,0.0,0.0,0.0,0.0,0.0,0.0,0.0,0.0,0.0,0.0,-1.774,0.0,0.0,0.0,0.0,0.0,0.0,0.0,0.0,0.0,-2.2088,-2.2242,-2.2297,-2.2034,-2.2092,-2.2008,-2.1694,0.0,0.0,0.0,0.0,0.0,0.0,0.0,-2.2786,-2.3208,-2.3157,-2.3073,-2.3012,-2.3622,-2.4166,-2.4347,0.0,0.0,-2.4434,-2.4235,-2.4035,-2.3739,-2.3671,-2.3673,-2.3744,-2.3744,-2.3702,0.0,0.0,0.0,0.0,0.0,0.0,0.0,0.0,-1.8105,-1.8569,0.0,-1.8815,0.0,0.0,0.0,0.0,0.0,-1.8048,0.0,0.0,-1.5966,-1.5479,-1.6213,-1.5979,-1.5983,-1.6224,-1.7204,-1.7794,-1.8051,-1.8617,0.0,0.0,0.0,0.0,0.0,0.0,-1.8309,-1.7684,-1.6249,-1.5425,-1.5474,-1.5452,-1.5403,-1.5389,-1.5389,-1.557,-1.589,-1.6368,-1.6781,-1.7192,-1.8454,0.0,0.0,0.0,0.0,0.0,0.0,0.0,0.0,0.0,0.0,0.0,0.0,0.0,0.0,0.0,0.0,0.0,0.0,0.0,0.0,-1.7513,0.0,0.0,0.0,0.0,0.0,0.0,0.0,0.0,0.0,0.0,-2.2822,-2.2056,-2.1525,-2.1796,0.0,0.0,0.0,0.0,-2.1755,-2.2563,-2.2852,-2.3027,-2.3213,-2.325,-2.315,-2.2767,0.0,0.0,-2.1739,-2.2252,-2.2764,-2.291,-2.2651,-2.2657,-2.3991,-2.4304,-2.4253,-2.3637,-2.3433,-2.368,-2.4048,-2.395,-2.4097,-2.2505,0.0,0.0,0.0,0.0,-2.2459,-2.1448,-2.0106,-1.9431,-1.8583,-1.7672,-1.7367,0.0,0.0,0.0,0.0,0.0,0.0,-1.7096,-1.6944,-1.5904,-1.5397,-1.5346,-1.5301,-1.5341,-1.5548,-1.5886,-1.619,-1.6629,-1.7028,-1.8222,-2.0146,0.0,0.0,0.0,0.0,-1.8523,-1.7701,-1.6652,-1.6096,-1.614,-1.5891,-1.5622,-1.5396,-1.5389,-1.5433,-1.557,-1.5893,-1.6288,-1.6781,-1.7629,0.0,0.0,0.0,0.0,0.0,0.0,0.0,0.0,0.0,0.0,0.0,0.0,0.0,0.0,0.0,0.0,0.0,0.0,0.0,-1.7936,-1.7696,-1.7879,0.0,0.0,0.0,0.0,0.0,0.0,0.0,0.0,0.0,-2.2696,-2.248,-2.227,0.0,0.0,-2.2977,-2.2907,-2.2749,-2.2639,-2.2776,-2.2664,0.0,-2.2665,-2.2665,-2.2665,-2.2703,-2.2323,-2.2009,-2.1983,-2.2025,-2.2088,-2.2151,-2.2271,-2.2499,-2.2804,-2.2651,-2.2385,-2.2124,-2.2102,-2.2136,-2.2251,-2.2285,-2.2444,-1.9692,-1.9391,-2.1834,-2.2834,-2.2758,-2.23,-2.0989,-1.9134,-1.8715,-1.7973,-1.7123,-1.6819,-1.737,-1.8548,-1.8539,0.0,0.0,0.0,-1.701,-1.6643,-1.6239,-1.5926,-1.5698,-1.5705,-1.5745,-1.5872,-1.6059,-1.623,-1.6402,-1.6918,-1.7979,-1.9583,0.0,0.0,-1.957,-1.8879,-1.8164,-1.7458,-1.6764,-1.6411,-1.6411,-1.6191,-1.5943,-1.5635,-1.5628,-1.552,-1.5396,-1.5745,-1.596,-1.6138,-1.7147,-1.7949,0.0,0.0,0.0,0.0,0.0,0.0,0.0,0.0,0.0,0.0,0.0,-1.5765,-1.5894,0.0,0.0,0.0,-1.7294,-1.7901,-1.7872,-1.7777,0.0,0.0,0.0,0.0,0.0,0.0,0.0,-2.3496,-2.2855,-2.2492,-2.2778,-2.2875,-2.2783,-2.2472,-2.2778,-2.3133,-2.3238,0.0,-2.3023,-2.3174,-2.308,-2.2966,-2.2966,-2.2889,-2.2797,-2.2635,-2.2422,-2.2185,-2.198,-2.1883,-2.1807,-2.1845,-2.1987,-2.2138,-2.2176,-2.185,-2.1732,-2.202,-2.2102,-2.2092,-2.2092,-2.2092,-2.2163,-1.678,-1.7358,-2.3983,-2.4802,-2.1819,-2.1795,-1.9837,-1.6737,-1.6693,-1.7,-1.7399,-1.6907,-1.7232,-1.8137,-1.8027,0.0,-1.7782,-1.7418,-1.7065,-1.6707,-1.6707,-1.6707,-1.6707,-1.675,-1.6757,-1.68,-1.7306,-1.7408,-1.7175,-1.786,-1.8348,-1.8573,-1.8318,-1.8284,-1.8324,-1.801,-1.757,-1.7076,-1.6714,-1.6507,-1.6448,-1.6448,-1.6265,-1.5965,-1.595,-1.5818,-1.5491,-1.5789,-1.5811,-1.5533,-1.6917,-1.7623,-1.7341,0.0,0.0,0.0,0.0,0.0,0.0,0.0,0.0,0.0,0.0,0.0,0.0,0.0,0.0,0.0,-1.6665,0.0,-1.7246,-1.7868,0.0,0.0,0.0,-2.1328,-2.1527,-2.2228,-2.2823,-2.3233,0.0,0.0,-2.2964,-2.3253,-2.3086,-2.2279,-2.2209,-2.2503,-2.3129,-2.3068,-2.3116,-2.3697,-2.3758,-2.3737,-2.3602,-2.3514,-2.3217,-2.2704,-2.2542,-2.2408,-2.2056,-2.1963,-2.1932,-2.1973,-2.1921,-2.1921,-2.1869,-2.1887,-2.2077,-2.2697,-2.2809,-2.2857,-2.2776,-2.2728,-2.2754,-1.7375,-1.7542,-1.9277,-1.9217,-1.8015,-1.8015,-1.7471,-1.67,-1.6707,-1.6757,-1.69,-1.675,-1.681,-1.7083,-1.7056,-1.7021,-1.699,-1.6898,-1.679,-1.67,-1.6707,-1.6807,-1.7021,-1.7014,-1.7213,-1.7619,-1.7768,-1.7867,-1.7985,-1.8189,-1.8294,-1.837,-1.832,-1.849,-1.8869,-1.8829,-1.8373,-1.7613,-1.7519,-1.723,-1.6807,-1.6785,-1.6631,-1.6272,-1.6265,-1.6221,-1.6148,-1.6213,-1.6265,-1.6213,-1.6982,-1.7592,-1.8019,-1.9029,0.0,0.0,0.0,0.0,0.0,0.0,0.0,0.0,0.0,-1.6803,-1.7445,0.0,-1.655,0.0,-1.6874,-1.716,-1.7747,-1.7822,0.0,0.0,-2.0192,-2.1234,-2.2012,-2.2339,-2.2684,-2.3234,-2.2993,-2.2856,-2.305,-2.3321,-2.3337,-2.2993,-2.3355,-2.3759,-2.3904,-2.3751,-2.3659,-2.3815,-2.3596,-2.3356,-2.3398,-2.3305,-2.3254,-2.3049,-2.3039,-2.2977,-2.2884,-2.2853,-2.2853,-2.2863,-2.2853,-2.2729,-2.2397,-2.2335,-2.2229,-2.2119,-2.2101,-2.2101,-2.2063,-2.2073,-2.2187,-1.7983,-1.7989,-1.7983,-1.7796,-1.7482,-1.7215,-1.7094,-1.7094,-1.7094,-1.7094,-1.7094,-1.7101,-1.7094,-1.7094,-1.7101,-1.7094,-1.7101,-1.7101,-1.7101,-1.7094,-1.7197,-1.7306,-1.7306,-1.7561,-1.7772,-1.7983,-1.8245,-1.8369,-1.8375,-1.8468,-1.8445,-1.8306,-1.8299,-1.852,-1.8945,-1.8802,-1.8498,-1.8035,-1.7889,-1.7567,-1.7091,-1.7069,-1.6908,-1.6646,-1.6631,-1.6558,-1.6374,-1.6558,-1.6558,-1.6441,-1.6982,-1.7527,-1.8053,-1.8837,-1.965,0.0,0.0,0.0,0.0,0.0,0.0,0.0,0.0,0.0,0.0,0.0,-1.6699,-1.7237,-1.7228,-1.7534,-1.8508,-1.847,-1.8737,-1.9571,-2.0464,-2.1261,-2.1851,-2.2248,-2.2643,-2.3202,-2.3068,-2.3,-2.3129,-2.3447,-2.3617,-2.3546,-2.3961,-2.4263,-2.4086,-2.3961,-2.395,-2.4115,-2.395,-2.3867,-2.4053,-2.3919,-2.3784,-2.3774,-2.3619,-2.3432,-2.3236,-2.3194,-2.3194,-2.3194,-2.3194,-2.3111,-2.2863,-2.2811,-2.2708,-2.249,-2.2252,-2.2045,-2.1849,-2.1807,-2.1883,-1.8497,-1.8497,-1.8497,-1.8497,-1.8457,-1.7923,-1.7695,-1.7702,-1.7702,-1.7675,-1.7642,-1.7642,-1.7615,-1.7589,-1.7589,-1.7589,-1.7589,-1.7589,-1.7589,-1.7635,-1.7852,-1.7859,-1.7687,-1.8108,-1.8272,-1.8128,-1.866,-1.8785,-1.8512,-1.8753,-1.8701,-1.8438,-1.843,-1.8569,-1.8825,-1.8569,-1.8408,-1.8357,-1.8043,-1.7735,-1.7465,-1.7403,-1.7304,-1.7042,-1.702,-1.6895,-1.6617,-1.6873,-1.691,-1.6697,-1.7157,-1.7551,-1.7841,-1.8531,-1.9195,0.0,-2.0373,0.0,0.0,0.0,0.0,0.0,0.0,0.0,0.0,-1.7191,-1.7047,-1.7509,-1.7535,-1.7987,-1.9027,-1.9268,-1.9583,-2.0204,-2.0888,-2.1439,-2.171,-2.2247,-2.2739,-2.3153,-2.3236,-2.3267,-2.3338,-2.3681,-2.396,-2.3991,-2.426,-2.4374,-2.4064,-2.4033,-2.4126,-2.4456,-2.4507,-2.4507,-2.4828,-2.4735,-2.4559,-2.4538,-2.4416,-2.3991,-2.3691,-2.3619,-2.3608,-2.3515,-2.3557,-2.3463,-2.3318,-2.3277,-2.3246,-2.3132,-2.2832,-2.2449,-2.2035,-2.1849,-2.1807,-1.8497,-1.8497,-1.8497,-1.8497,-1.8477,-1.8364,-1.8317,-1.8317,-1.8317,-1.8183,-1.7902,-1.7909,-1.7816,-1.7595,-1.7589,-1.7589,-1.7589,-1.7589,-1.7589,-1.7589,-1.7635,-1.7747,-1.7911,-1.8016,-1.8286,-1.8712,-1.8817,-1.8997,-1.9139,-1.9184,-1.9155,-1.9089,-1.9096,-1.9118,-1.9177,0.0,0.0,0.0,-1.8379,-1.8174,-1.8123,-1.8123,-1.7962,-1.7647,-1.7633,0.0,-1.7552,-1.7604,-1.7728,-1.7925,-1.805,0.0,0.0,0.0,0.0,0.0,0.0,0.0,0.0,0.0,0.0,0.0,-2.007,-1.9571,-1.8521,-1.8018,-1.7732,-1.7671,-1.7808,-1.7994,-1.8233,-1.9088,-1.9878,-2.0474,-2.1407,-2.2241,-2.2797,-2.2969,-2.3101,-2.3174,-2.3525,-2.3784,-2.3774,-2.4136,-2.4363,-2.4373,-2.4445,-2.4466,-2.4404,-2.4373,-2.4394,-2.4487,-2.4507,-2.4528,-2.4621,-2.4869,-2.4983,-2.5075,-2.5368,-2.5399,-2.5285,-2.5339,-2.5192,-2.4902,-2.4807,-2.4571,-2.3919,-2.3753,-2.3691,-2.3267,-2.3132,-2.2915,-2.2459,-2.2066,-2.1807,-1.8925,0.0,-1.8981,-1.8918,0.0,-1.8918,-1.8925,-1.8905,-1.8617,-1.8404,-1.827,-1.827,-1.8176,-1.8029,-1.8029,-1.8029,-1.8029,-1.8029,-1.8029,-1.8029,-1.8192,-1.8245,-1.8252,-1.8531,-1.8727,-1.8879,-1.9045,-1.9175,-1.9272,-1.9272,-1.9272,-1.9272,-1.9272,-1.9272,-1.9272,-1.9272,-1.9162,-1.8796,-1.8628,-1.8467,-1.8306,-1.8299,-1.8225,-1.8057,-1.7896,0.0,0.0,0.0,0.0,0.0,0.0,0.0,0.0,-1.8801,0.0,-1.9222,-1.9075,-1.9178,-1.9493,-1.9333,-1.9213,-1.9201,-1.9081,-1.8996,-1.8749,-1.8313,-1.7951,-1.787,-1.8447,-1.8966,-1.9282,-2.0289,-2.1188,-2.1817,-2.2372,-2.292,-2.3433,-2.3536,-2.3608,-2.3836,-2.4064,-2.4209,-2.4209,-2.4342,-2.459,-2.4797,-2.4838,-2.491,-2.5109,-2.4766,-2.4507,-2.4507,-2.4507,-2.458,-2.4786,-2.4786,-2.5065,-2.542,-2.5554,-2.5647,-2.5844,-2.593,-2.5792,-2.5585,-2.5554,-2.5368,-2.5006,-2.4861,-2.4726,-2.4302,-2.4012,-2.3712,-2.3267,-2.2811,-2.2408,-1.9424,-1.9424,-1.9424,-1.9424,-1.9424,-1.9424,-1.9424,-1.9397,0.0,0.0,0.0,-1.8571,-1.8537,-1.8497,-1.8497,-1.8497,-1.8497,-1.8497,-1.8497,-1.849,-1.8705,-1.8705,-1.8588,-1.9054,-1.9144,-1.9062,-1.93,-1.9387,-1.944,-1.9389,-1.9367,-1.9404,-1.936,-1.9272,-1.9272,-1.9272,-1.9147,-1.8884,-1.8877,-1.8745,-1.8489,-1.8474,-1.8445,-1.8386,-1.813,-1.8211,-1.8679,-1.8445,-1.8547,-1.9067,-1.9052,-1.8993,-1.8964,-1.8792,-1.8692,-1.8697,-1.8624,-1.8547,-1.8395,-1.8261,-1.8192,-1.8141,-1.7926,-1.8089,-1.8681,-1.8324,-1.8114,-1.8196,-1.9056,-1.9811,-2.0326,-2.132,-2.2243,-2.288,-2.3135,-2.3464,-2.3898,-2.3991,-2.4126,-2.4425,-2.4559,-2.4621,-2.4621,-2.4704,-2.4859,-2.5244,-2.5347,-2.5451,-2.5699,-2.5264,-2.4871,-2.4828,-2.4859,-2.491,-2.5148,-2.5158,-2.5213,-2.592,-2.573,-2.5647,-2.5978,-2.6051,-2.6055,-2.6065,-2.6044,-2.5982,-2.5896,-2.5782,-2.5751,-2.542,-2.5003,-2.46,-2.4209,-2.3826,-2.337,-1.9424,-1.9424,-1.9424,-1.9424,-1.9424,-1.9424,-1.9424,-1.9417,-1.9336,-1.9105,-1.8865,-1.8858,-1.8724,-1.8497,-1.8497,-1.8497,-1.8497,-1.8497,-1.8497,-1.8497,-1.8546,-1.865,-1.8864,-1.8927,-1.9228,-1.9659,-1.9725,-1.9874,-2.0015,-1.982,-1.9742,-1.9713,-1.947,-1.9279,-1.9272,-1.9272,-1.925,-1.9213,-1.9206,-1.9184,-1.914,-1.9192,-1.9001,-1.873,-1.8672,-1.8547,-1.8372,-1.8335,-1.8343,-1.843,-1.8167,-1.7999,-1.7996,-1.7765,-1.7562,-1.752,-1.7515,-1.7515,-1.7512,-1.7894,-1.8257,-1.8619,-1.8409,-1.8165,-1.8028,-1.8236,-1.853,-1.8965,-1.9178,-1.9306,-1.9451,-2.0402,-2.1379,-2.2049,-2.2959,-2.3733,-2.4298,-2.4404,-2.4435,-2.4518,-2.4859,-2.5086,-2.5117,-2.543,-2.5637,-2.5806,-2.5844,-2.5844,-2.5916,-2.5782,-2.5699,-2.5699,-2.5689,-2.572,-2.574,-2.6092,-2.6185,-2.6434,-2.6438,-2.6423,-2.6915,-2.6698,-2.649,-2.6475,-2.649,-2.6356,-2.6065,-2.593,-2.5906,-2.5813,-2.5678,-2.5502,-2.5078,-2.4892,-2.4488,-1.9424,-1.9424,-1.9424,-1.9424,-1.9424,-1.9424,-1.9424,-1.9424,-1.9424,-1.9299,-1.9172,-1.9165,-1.9092,-1.8971,-1.9022,-1.8965,-1.8965,-1.9022,-1.8971,-1.8965,-1.8971,-1.9128,-1.9384,-1.9402,-1.9661,-2.0043,-2.0029,-2.0066,-2.0168,-2.0084,-2.0025,-1.9996,-1.9749,-1.9507,-1.9286,-1.9272,-1.9272,-1.9272,-1.9272,-1.9272,-1.9272,-1.9272,-1.9199,-1.9052,-1.8891,-1.8899,-1.9081,-1.8752,-1.873,-1.9081,-1.8782,-1.8445,-1.8101,-1.7933,-1.7699,-1.7315,-1.7286,-1.7286,-1.7286,-1.7512,-1.7753,-1.7939,-1.7849,-1.7857,-1.7987,-1.824,-1.85,-1.8775,-1.929,-1.9809,-2.0043,-2.0807,-2.1517,-2.2085,-2.2984,-2.3624,-2.3967,-2.4571,-2.4869,-2.491,-2.5261,-2.5585,-2.5585,-2.5761,-2.6044,-2.6241,-2.6434,-2.6646,-2.6656,-2.6656,-2.647,-2.5999,-2.593,-2.593,-2.5906,-2.6041,-2.6335,-2.6553,-2.6625,-2.6812,-2.7175,-2.6915,-2.676,-2.6915,-2.6765,-2.6667,-2.6594,-2.6677,-2.6584,-2.6324,-2.6304,-2.6082,-2.5709,-2.5409,-2.483,-1.9424,-1.9424,-1.9424,-1.9424,-1.9424,-1.9424,-1.9424,-1.9424,-1.9424,-1.9424,-1.943,-1.9491,-1.9499,-1.9559,-1.9559,-1.9526,-1.9466,-1.9524,-1.9432,-1.943,-1.9424,-1.954,-1.9795,-1.979,-2.0033,-2.0358,-2.0352,-2.0339,-2.0387,-2.0329,-2.0249,-2.0223,-1.9989,-1.9711,-1.9389,-1.9389,-1.9404,-1.9279,-1.9272,-1.9272,-1.9272,-1.9272,-1.9272,-1.9257,-1.903,-1.9155,-1.9491,-1.906,-1.8986,-1.9434,-1.9125,-1.8745,-1.8335,-1.8233,-1.7962,-1.7501,-1.7443,-1.7359,-1.7293,-1.7286,-1.7286,-1.7286,-1.7286,-1.7473,-1.7855,-1.8192,-1.8397,-1.8562,-1.9278,-1.9971,-2.0404,-2.0873,-2.1588,-2.2428,-2.3051,-2.3634,-2.4075,-2.4808,-2.5378,-2.542,-2.5771,-2.6041,-2.6051,-2.6134,-2.6397,-2.675,-2.7092,-2.7299,-2.732,-2.732,-2.6967,-2.6455,-2.6185,-2.6283,-2.6185,-2.6227,-2.6449,-2.6739,-2.6687,-2.6843,-2.7081,-2.6926,-2.6832,-2.7112,-2.7019,-2.6936,-2.7226,-2.7278,-2.7123,-2.6832,-2.677,-2.6625,-2.6134,-2.5575,-2.4972,-1.9437,-1.9424,-1.945,-1.9424,-1.9437,-1.943,-1.9424,-1.9424,-1.9424,-1.9424,-1.9406,-1.9646,-1.9893,-2.0127,-2.006,-1.998,-1.976,-1.976,-1.9633,-1.9464,-1.9424,-1.954,-1.9771,-1.9781,-2.0113,-2.0609,-2.0616,-2.0758,-2.0993,-2.0808,-2.0475,-2.0212,-2.0146,-2.0033,-1.9808,-1.9771,-1.9572,-1.9279,-1.9272,-1.9272,-1.9272,-1.9272,-1.9272,-1.9272,-1.925,-1.9111,-1.895,-1.8818,-1.8679,-1.8438,-1.8167,-1.8072,-1.824,-1.8028,-1.7838,-1.7724,-1.7765,-1.7647,-1.7323,-1.7286,-1.7301,-1.7286,-1.7286,-1.7333,-1.7441,-1.7848,-1.831,-1.8678,-1.884,-1.9206,-1.9642,-1.9866,-2.0802,-2.2717,-2.3107,-2.3793,-2.5212,-2.5737,-2.5823,-2.5813,-2.6262,-2.6553,-2.6584,-2.6843,-2.7123,-2.7154,-2.7237,-2.732,-2.732,-2.7309,-2.7299,-2.7164,-2.7164,-2.7133,-2.7102,-2.7175,-2.7112,-2.7164,-2.6895,-2.6915,-2.7092,-2.6967,-2.676,-2.7164,-2.7154,-2.7092,-2.7206,-2.7309,-2.7237,-2.7112,-2.7071,-2.7071,-2.6594,-2.5885,-2.5137,-1.988,-1.988,-1.988,-1.978,-1.9613,-1.9504,-1.9424,-1.9424,-1.9424,-1.9466,-1.9626,-1.9753,-1.9773,-1.9733,-1.99,-1.9907,-1.9813,-1.998,-1.9993,-1.986,-1.9706,-1.9796,-2.0068,-1.9891,-2.0046,-2.0443,-2.0608,-2.078,-2.0888,-2.095,-2.0845,-2.0552,-2.0523,-2.0362,-2.0069,-2.004,-1.9886,-1.9572,-1.9617,-1.9529,-1.9353,-1.9272,-1.9272,-1.9272,-1.9272,-1.9272,-1.9067,-1.8899,-1.873,-1.8584,-1.8284,-1.8167,-1.8291,-1.7991,-1.7816,-1.7816,-1.7816,-1.7757,-1.7625,-1.7611,-1.7571,-1.7618,-1.7435,-1.7352,-1.7596,-1.7808,-1.8148,-1.8605,-1.8769,-1.9231,-2.013,-2.0108,-2.0716,-2.2436,-2.3176,-2.3944,-2.5098,-2.5895,-2.6335,-2.6366,-2.6729,-2.7019,-2.704,-2.7185,-2.7309,-2.732,-2.732,-2.732,-2.732,-2.732,-2.732,-2.732,-2.732,-2.732,-2.732,-2.732,-2.732,-2.7278,-2.7164,-2.7154,-2.7175,-2.6926,-2.677,-2.7226,-2.6926,-2.677,-2.6832,-2.6656,-2.6542,-2.6781,-2.7175,-2.7175,-2.6708,-2.6289,-2.5782,-1.9863,-2.0173,-2.0173,-2.0107,-1.99,-1.9693,-1.9559,-1.9486,-1.9486,-1.9566,-1.9673,-1.9679,-1.9566,-1.9497,-1.9746,-1.988,-1.984,-2.0013,-2.0114,-2.0087,-1.9893,-1.9959,-2.0237,-1.9965,-1.9939,-2.0266,-2.0478,-2.0666,-2.0838,-2.1089,-2.1086,-2.0881,-2.0859,-2.0691,-2.0398,-2.0307,-2.0216,-1.9923,-1.9894,-1.9733,-1.9462,-1.9411,-1.9419,-1.9286,-1.9272,-1.9272,-1.9264,-1.9045,-1.8921,-1.8913,-1.8606,-1.8474,-1.8555,-1.8262,-1.8079,-1.8072,-1.7991,-1.7947,-1.7955,-1.7947,-1.7947,-1.7933,-1.7713,-1.7644,-1.7889,-1.7947,-1.8189,-1.8616,-1.8791,-1.9398,-2.034,-2.0256,-2.0786,-2.2313,-2.3127,-2.3909,-2.4766,-2.5812,-2.6427,-2.6505,-2.6882,-2.732,-2.7309,-2.7309,-2.732,-2.732,-2.732,-2.732,-2.732,-2.732,-2.732,-2.732,-2.732,-2.732,-2.732,-2.732,-2.732,-2.732,-2.7278,-2.7268,-2.7309,-2.6978,-2.6832,-2.7206,-2.6604,-2.632,-2.6635,-2.6387,-2.62,-2.6475,-2.6812,-2.7029,-2.6895,-2.6635,-2.6206,-1.8998,-2.0126,-2.0173,-2.0173,-2.0207,-2.0174,-2.002,-1.9786,-1.978,-1.9646,-1.9504,-1.9477,-1.945,-1.9464,-1.99,-2.0047,-1.9826,-1.9846,-1.9873,-1.9867,-1.982,-1.9947,-2.018,-1.992,-1.9944,-2.0244,-2.0373,-2.0651,-2.1153,-2.1203,-2.1203,-2.1174,-2.1159,-2.102,-2.0742,-2.0698,-2.0482,-2.0197,-2.0216,-2.0062,-1.9777,-1.9786,-1.9632,-1.9382,-1.9272,-1.9272,-1.9272,-1.9309,-1.9242,-1.925,-1.8935,-1.8899,-1.9147,-1.8899,-1.8701,-1.8686,-1.8438,-1.8284,-1.8277,-1.8284,-1.8269,-1.8262,-1.8203,-1.824,-1.8225,-1.8269,-1.8523,-1.8965,-1.9007,-1.9308,-1.9917,-2.0006,-2.0614,-2.2103,-2.2854,-2.3639,-2.4703,-2.5489,-2.6051,-2.6176,-2.6733,-2.7167,-2.7272,-2.732,-2.7262,-2.7262,-2.7309,-2.732,-2.732,-2.732,-2.732,-2.732,-2.732,-2.732,-2.732,-2.732,-2.732,-2.732,-2.732,-2.732,-2.7299,-2.7278,-2.7289,-2.7258,-2.7029,-2.6822,-2.6677,-2.6584,-2.6542,-2.6584,-2.6438,-2.6532,-2.7029,-2.6449,-2.6113,-1.9519,-2.0713,-2.0588,-2.0521,-2.0494,-2.0314,-2.0107,-2.008,-2.008,-1.9913,-1.9679,-1.9646,-1.9539,-1.9437,-1.9579,-1.9726,-1.9806,-1.998,-2.008,-2.0054,-1.9887,-1.9853,-1.9927,-1.9846,-1.9859,-2.0017,-2.0386,-2.0757,-2.1161,-2.1211,-2.1211,-2.1211,-2.1211,-2.1137,-2.105,-2.1028,-2.0874,-2.0526,-2.0497,-2.0398,-2.0077,-1.9864,-1.9757,-1.9639,-1.9434,-1.9272,-1.9272,-1.9272,-1.9272,-1.9272,-1.9162,-1.9155,-1.9228,-1.8972,-1.8789,-1.8782,-1.8679,-1.8613,-1.8613,-1.8613,-1.8511,-1.8328,-1.8299,-1.8321,-1.8335,-1.8482,-1.8807,-1.923,-1.9267,-1.9466,-1.9884,-2.008,-2.0718,-2.1903,-2.2345,-2.2836,-2.3795,-2.4688,-2.5343,-2.5489,-2.6139,-2.6842,-2.6986,-2.6928,-2.6928,-2.7214,-2.7177,-2.7129,-2.7272,-2.732,-2.7309,-2.732,-2.732,-2.732,-2.732,-2.732,-2.732,-2.732,-2.732,-2.732,-2.7309,-2.7309,-2.7299,-2.7258,-2.7185,-2.6868,-2.6558,-2.6465,-2.6496,-2.6486,-2.633,-2.6573,-2.7247,-2.6677,-2.6553,-1.9814,-2.0949,-2.0895,-2.0822,-2.0795,-2.0601,-2.0461,-2.0381,-2.0374,-2.0207,-1.998,-1.9933,-1.978,-1.9539,-1.9564,-1.9546,-1.9673,-1.9867,-2.0,-2.0067,-1.9887,-1.9846,-1.9913,-1.9846,-1.9806,-1.9898,-2.0334,-2.0806,-2.1307,-2.1262,-2.1211,-2.1211,-2.1211,-2.1211,-2.1211,-2.1211,-2.1086,-2.0911,-2.0881,-2.0728,-2.0406,-2.0186,-2.0011,-1.9886,-1.9601,-1.9426,-1.9286,-1.9272,-1.9272,-1.9272,-1.9272,-1.9272,-1.925,-1.9067,-1.8942,-1.895,-1.8942,-1.8942,-1.895,-1.8942,-1.8855,-1.8642,-1.8621,-1.8621,-1.8642,-1.8825,-1.9125,-1.9396,-1.9427,-1.948,-1.9738,-1.9923,-2.0393,-2.1296,-2.1591,-2.1903,-2.2501,-2.3701,-2.4698,-2.5441,-2.61,-2.6554,-2.6699,-2.6602,-2.6736,-2.7129,-2.6996,-2.7044,-2.7225,-2.7309,-2.7262,-2.7214,-2.7262,-2.7214,-2.7214,-2.7177,-2.7214,-2.7214,-2.732,-2.732,-2.7262,-2.7272,-2.7251,-2.72,-2.7024,-2.6724,-2.6517,-2.6413,-2.6357,-2.6398,-2.6372,-2.649,-2.6822,-2.6957,-2.6832,-1.9814,-2.1039,-2.1102,-2.1076,-2.1062,-2.1036,-2.0915,-2.0702,-2.0675,-2.0508,-2.0261,-2.0234,-2.008,-1.9846,-1.9806,-1.9666,-1.9486,-1.9558,-1.9606,-1.978,-1.9773,-1.99,-2.0087,-1.9893,-1.9866,-1.9852,-2.0168,-2.0822,-2.1525,-2.1314,-2.1247,-2.1218,-2.1211,-2.1211,-2.1211,-2.1211,-2.1203,-2.1167,-2.1159,-2.1028,-2.0764,-2.0669,-2.0501,-2.0237,-1.993,-1.9691,-1.9338,-1.9294,-1.9272,-1.9272,-1.9272,-1.9272,-1.9272,-1.9242,-1.9257,-1.9235,-1.925,-1.9264,-1.925,-1.9242,-1.9213,-1.9162,-1.922,-1.9169,-1.9155,-1.925,-1.9272,-1.9324,-1.9294,-1.9324,-1.9324,-1.9398,-1.9591,-2.0086,-2.0601,-2.0858,-2.1259,-2.2551,-2.4393,-2.5849,-2.64,-2.6496,-2.6496,-2.6448,-2.6544,-2.6794,-2.689,-2.6938,-2.7167,-2.7225,-2.7177,-2.7034,-2.6986,-2.6976,-2.7023,-2.7034,-2.7061,-2.7098,-2.7262,-2.732,-2.7214,-2.7167,-2.6976,-2.6935,-2.6887,-2.6601,-2.6615,-2.6501,-2.6388,-2.6341,-2.6315,-2.6532,-2.6812,-2.705,-2.6957,-1.8978,-2.0982,-2.1102,-2.1102,-2.1102,-2.1102,-2.1049,-2.0975,-2.0975,-2.0808,-2.0575,-2.0535,-2.0381,-2.0147,-2.0094,-1.994,-1.9679,-1.9666,-1.9613,-1.9533,-1.9506,-1.9559,-1.9653,-1.9753,-1.9918,-2.0176,-2.0687,-2.0946,-2.1068,-2.1351,-2.1445,-2.1247,-2.1211,-2.1211,-2.1211,-2.1211,-2.1211,-2.1211,-2.1211,-2.1152,-2.1042,-2.0837,-2.0669,-2.0552,-2.0259,-2.0025,-1.9923,-1.9513,-1.9286,-1.9286,-1.9272,-1.9272,-1.9272,-1.9272,-1.9272,-1.9272,-1.9272,-1.9272,-1.9272,-1.9272,-1.9272,-1.9272,-1.9272,-1.9272,-1.9272,-1.9272,-1.9272,-1.9272,-1.9272,-1.9272,-1.9272,-1.9272,-1.9376,-1.9524,-1.9687,-1.9894,-2.03,-2.1692,-2.3651,-2.547,-2.5975,-2.6014,-2.6149,-2.611,-2.6169,-2.6554,-2.6651,-2.6736,-2.689,-2.688,-2.7044,-2.689,-2.6832,-2.6274,-2.5877,-2.5586,-2.5577,-2.5868,-2.6215,-2.6572,-2.6668,-2.6716,-2.6572,-2.6582,-2.6572,-2.6584,-2.6603,-2.6641,-2.6568,-2.6667,-2.6848,-2.705,-2.7216,-2.7154,-2.6988,-1.8594,-2.0976,-2.1102,-2.1102,-2.1102,-2.1102,-2.1102,-2.1102,-2.1102,-2.1002,-2.0862,-2.0835,-2.0675,-2.0448,-2.0394,-2.0234,-1.998,-1.996,-1.9806,-1.9533,-1.9457,-1.943,-1.9444,-1.9546,-1.9883,-2.0312,-2.0691,-2.0888,-2.0916,-2.1278,-2.1408,-2.124,-2.1211,-2.1211,-2.1211,-2.1211,-2.1211,-2.1211,-2.1211,-2.1211,-2.1167,-2.1006,-2.0903,-2.0852,-2.0581,-2.0428,-2.0377,-1.9901,-1.9579,-1.9455,-1.9352,-1.9279,-1.9272,-1.9272,-1.9272,-1.9272,-1.9272,-1.9272,-1.9272,-1.9272,-1.9272,-1.9272,-1.9272,-1.9272,-1.9272,-1.9272,-1.9272,-1.9272,-1.9272,-1.9272,-1.9272,-1.9272,-1.9272,-1.9272,-1.9324,-1.968,-2.0388,-2.1641,-2.3402,-2.5069,-2.5732,-2.5771,-2.5868,-2.582,-2.5878,-2.6255,-2.6352,-2.6149,-2.6245,-2.6139,-2.5994,-2.5684,-2.5178,-2.4679,-2.4285,-2.4137,-2.4038,-2.4433,-2.4924,-2.5324,-2.5577,-2.5684,-2.5684,-2.6032,-2.6139,-2.6237,-2.629,-2.6882,-2.7065,-2.7258,-2.7121,-2.7231,-2.7258,-2.704,-2.6895,-1.846,-2.0849,-2.0976,-2.0976,-2.1102,-2.1102,-2.1102,-2.1102,-2.1102,-2.1096,-2.1082,-2.1062,-2.0942,-2.0742,-2.0702,-2.0541,-2.0294,-2.0254,-2.01,-1.9826,-1.9606,-1.9466,-1.9392,-1.9464,-1.9701,-2.0085,-2.0371,-2.0655,-2.0987,-2.1235,-2.1225,-2.1218,-2.1211,-2.1211,-2.1211,-2.1211,-2.1211,-2.1211,-2.1211,-2.1211,-2.1211,-2.1196,-2.1181,-2.1167,-2.0903,-2.075,-2.0698,-2.0406,-2.0077,-1.9769,-1.9529,-1.933,-1.9286,-1.9272,-1.9272,-1.9272,-1.9272,-1.9272,-1.9272,-1.9272,-1.9272,-1.9272,-1.9272,-1.9272,-1.9272,-1.9272,-1.9272,-1.9272,-1.9272,-1.9272,-1.9272,-1.9272,-1.9272,-1.9272,-1.9272,-2.0086,-2.1929,-2.2291,-2.3194,-2.4873,-2.5586,-2.5635,-2.5684,-2.5684,-2.582,-2.5955,-2.6004,-2.5596,-2.5197,-2.4894,-2.4187,-2.3881,-2.3782,-2.3285,-2.2985,-2.2835,-2.2685,-2.2333,-2.3085,-2.3831,-2.4384,-2.4688,-2.4796,-2.5197,-2.5509,-2.5651,-2.6194,-2.6768,-2.6921,-2.6713,-2.6849,-2.7152,-2.7169,-2.6946,-2.6941,-1.7039,-1.9489,-1.9553,-2.0138,-2.1039,-2.1102,-2.1102,-2.1102,-2.1102,-2.1102,-2.1102,-2.1102,-2.1062,-2.1002,-2.0982,-2.0835,-2.0615,-2.0561,-2.0401,-2.0147,-2.006,-1.974,-1.9439,-1.9424,-1.9464,-1.9726,-2.0282,-2.0653,-2.0598,-2.122,-2.1415,-2.1211,-2.1211,-2.1211,-2.1211,-2.1211,-2.1211,-2.1211,-2.1211,-2.1211,-2.1211,-2.1211,-2.1211,-2.1196,-2.1115,-2.1072,-2.105,-2.0764,-2.0325,-1.9867,-1.9749,-1.952,-1.9338,-1.9301,-1.9308,-1.9301,-1.9279,-1.9272,-1.9272,-1.9272,-1.9272,-1.9272,-1.9272,-1.9272,-1.9272,-1.9272,-1.9272,-1.9272,-1.9272,-1.9272,-1.9272,-1.9272,-1.9272,-1.9272,-1.9272,-1.9828,-2.1038,-2.1387,-2.2139,-2.4048,-2.4501,-2.4815,-2.5274,-2.5528,-2.5528,-2.5528,-2.5206,-2.4747,-2.4187,-2.3692,-2.3035,-2.3035,-2.2885,-2.2232,-2.1785,-2.1591,-2.1183,-2.0431,-2.103,-2.219,-2.2944,-2.3651,-2.38,-2.4048,-2.4187,-2.4342,-2.5615,-2.6582,-2.6431,-2.6022,-2.6373,-2.661,-2.6918,-2.6911,-2.7043,-1.6387,-1.8972,-1.9036,-1.9814,-2.1039,-2.1102,-2.1102,-2.1102,-2.1102,-2.1102,-2.1102,-2.1102,-2.1102,-2.1102,-2.1102,-2.1022,-2.0869,-2.0855,-2.0688,-2.0428,-2.0274,-1.9967,-1.9619,-1.9511,-1.9424,-1.9495,-2.0058,-2.0315,-2.0449,-2.0989,-2.1184,-2.124,-2.1211,-2.1211,-2.1211,-2.1211,-2.1211,-2.1211,-2.1211,-2.1211,-2.1211,-2.1211,-2.1211,-2.1211,-2.1211,-2.1211,-2.1174,-2.102,-2.0625,-2.012,-1.9952,-1.9872,-1.9696,-1.9542,-1.9544,-1.9477,-1.936,-1.9272,-1.9272,-1.9272,-1.9272,-1.9272,-1.9272,-1.9272,-1.9272,-1.9272,-1.9272,-1.9272,-1.9272,-1.9272,-1.9272,-1.9272,-1.9272,-1.9272,-1.9272,-1.9724,-2.079,-2.0936,-2.1692,-2.2894,-2.3443,-2.3601,-2.4313,-2.4362,-2.4372,-2.4264,-2.3899,-2.3384,-2.2885,-2.2383,-2.1937,-2.1785,-2.1591,-2.0936,-2.068,-2.0483,-2.0483,-1.9732,-1.9931,-2.0936,-2.1599,-2.2509,-2.2911,-2.3003,-2.3044,-2.3484,-2.4943,-2.5751,-2.5208,-2.5064,-2.5605,-2.5673,-2.5748,-2.6572,-2.6716,-1.5874,-1.8518,-1.871,-1.9623,-2.0716,-2.1039,-2.1102,-2.1102,-2.1102,-2.1102,-2.1102,-2.1102,-2.1102,-2.1102,-2.1102,-2.1096,-2.1089,-2.1062,-2.0942,-2.0695,-2.0461,-2.016,-1.994,-1.9599,-1.9497,-1.9502,-1.9707,-2.0003,-2.0342,-2.0637,-2.0917,-2.1146,-2.1211,-2.1211,-2.1211,-2.1211,-2.1211,-2.1211,-2.1211,-2.1211,-2.1211,-2.1211,-2.1211,-2.1211,-2.1211,-2.1211,-2.1211,-2.1152,-2.0925,-2.0314,-2.0256,-2.0245,-2.0186,-1.993,-1.9828,-1.9777,-1.9608,-1.9462,-1.9389,-1.9425,-1.9352,-1.9367,-1.9316,-1.9272,-1.9272,-1.9272,-1.9272,-1.9272,-1.9272,-1.9272,-1.9272,-1.9272,-1.9272,-1.9272,-1.9272,-1.9783,-2.0439,-2.0731,-2.1132,-2.2139,-2.2333,-2.2341,-2.2492,-2.2492,-2.2593,-2.3302,-2.2844,-2.2232,-2.1735,-2.1234,-2.0629,-2.0027,-1.9828,-1.9576,-1.948,-1.9428,-1.9524,-1.9376,-1.9628,-2.0233,-2.0498,-2.1208,-2.1818,-2.2114,-2.2097,-2.2985,-2.4492,-2.4604,-2.3954,-2.388,-2.4228,-2.3925,-2.3795,-2.5286,-2.5984,-1.3801,-1.5479,-1.6845,-1.8197,-1.9489,-2.0589,-2.1102,-2.1102,-2.1102,-2.1102,-2.1102,-2.1102,-2.1102,-2.1102,-2.1102,-2.1102,-2.1102,-2.1102,-2.1062,-2.1002,-2.0722,-2.0568,-2.0361,-1.9953,-1.9599,-1.9562,-1.9655,-1.9989,-2.027,-2.05,-2.0845,-2.1153,-2.1146,-2.1211,-2.1211,-2.1211,-2.1211,-2.1211,-2.1211,-2.1211,-2.1211,-2.1211,-2.1211,-2.1211,-2.1211,-2.1211,-2.1211,-2.1211,-2.1137,-2.0976,-2.075,-2.0467,-2.0285,-2.0146,-2.0142,-2.0113,-2.0069,-2.0003,-1.9981,-1.9784,-1.9713,-1.9638,-1.9477,-1.9272,-1.9272,-1.9294,-1.9286,-1.9272,-1.9272,-1.9272,-1.9272,-1.9272,-1.9272,-1.9272,-1.9272,-1.9376,-1.9576,-1.968,-2.0233,-2.0936,-2.1285,-2.154,-2.2291,-2.224,-2.224,-2.2341,-2.1836,-2.1234,-2.068,-2.0181,-1.9776,-1.9272,-1.9272,-1.9272,-1.9272,-1.9272,-1.9272,-1.9272,-1.9472,-1.9628,-1.9894,-2.0197,-2.085,-2.1148,-2.1183,-2.2333,-2.3683,-2.3258,-2.2522,-2.2676,-2.2756,-2.2416,-2.2607,-2.4038,-2.4996,-1.2955,-1.445,-1.5554,-1.7168,-1.8972,-1.9807,-2.0462,-2.0976,-2.1102,-2.1102,-2.1102,-2.1102,-2.1102,-2.1102,-2.1102,-2.1102,-2.1102,-2.1102,-2.1102,-2.1069,-2.0929,-2.0808,-2.0601,-2.0241,-1.9853,-1.9645,-1.9587,-1.9764,-2.004,-2.027,-2.0493,-2.096,-2.0967,-2.1081,-2.1203,-2.1211,-2.1211,-2.1211,-2.1211,-2.1211,-2.1211,-2.1211,-2.1211,-2.1211,-2.1211,-2.1211,-2.1211,-2.1211,-2.1211,-2.1167,-2.1042,-2.0881,-2.0691,-2.0497,-2.0416,-2.045,-2.0241,-2.0197,-2.0117,-2.0091,-1.9981,-1.9981,-1.9813,-1.9659,-1.9557,-1.9558,-1.9463,-1.9316,-1.9272,-1.9272,-1.9272,-1.9272,-1.9272,-1.9272,-1.9272,-1.9272,-1.9272,-1.9279,-1.948,-2.0034,-2.0181,-2.038,-2.0783,-2.1234,-2.1081,-2.0731,-2.0688,-2.013,-2.0078,-1.9628,-1.9576,-1.9272,-1.9272,-1.9272,-1.9272,-1.9272,-1.9272,-1.9272,-1.9324,-1.9428,-1.9532,-1.9732,-2.0027,-2.0328,-2.068,-2.1285,-2.2232,-2.1659,-2.125,-2.1156,-2.1088,-2.0891,-2.1345,-2.265,-2.3352,-1.2692,-1.4058,-1.4646,-1.6263,-1.8197,-1.8582,-1.9495,-2.0589,-2.0786,-2.0779,-2.1109,-2.1102,-2.1102,-2.1102,-2.1102,-2.1102,-2.1102,-2.1102,-2.1102,-2.1089,-2.1082,-2.0955,-2.0728,-2.0394,-2.0087,-1.984,-1.9578,-1.9611,-1.9758,-1.9873,-2.0213,-2.0601,-2.0716,-2.0902,-2.1146,-2.1211,-2.1211,-2.1211,-2.1211,-2.1211,-2.1211,-2.1211,-2.1211,-2.1211,-2.1211,-2.1211,-2.1211,-2.1211,-2.1211,-2.1211,-2.1211,-2.1211,-2.1137,-2.0976,-2.0794,-2.0786,-2.0589,-2.046,-2.0424,-2.0321,-2.0311,-2.0311,-2.0168,-2.0098,-1.9901,-1.9801,-1.9661,-1.95,-1.9338,-1.9272,-1.9272,-1.9272,-1.9272,-1.9272,-1.9272,-1.9272,-1.9272,-1.9272,-1.9376,-1.9376,-1.9576,-1.9776,-1.968,-1.9828,-1.9524,-1.9272,-1.9272,-1.9272,-1.9272,-1.9272,-1.9272,-1.9272,-1.9272,-1.9272,-1.9272,-1.9272,-1.9272,-1.9272,-1.9272,-1.9272,-1.9272,-1.9472,-1.9724,-1.9975,-2.038,-2.0834,-2.0885,-2.0518,-2.0152,-1.9761,-1.9711,-1.9823,-2.0427,-2.1272,-2.193,-1.1978,-1.2371,-1.4128,-1.5163,-1.5749,-1.6845,-1.8069,-1.9228,-1.9425,-2.0005,-2.0976,-2.1102,-2.1102,-2.1102,-2.1102,-2.1102,-2.1102,-2.1102,-2.1102,-2.1102,-2.1102,-2.1036,-2.0922,-2.0461,-2.0147,-2.0034,-1.9653,-1.9546,-1.97,-1.9815,-2.0097,-2.0551,-2.0658,-2.0838,-2.1089,-2.1211,-2.1211,-2.1211,-2.1211,-2.1211,-2.1211,-2.1211,-2.1211,-2.1211,-2.1211,-2.1211,-2.1211,-2.1211,-2.1211,-2.1211,-2.1211,-2.1211,-2.1196,-2.1137,-2.1101,-2.1064,-2.1006,-2.0918,-2.0911,-2.0764,-2.0669,-2.0581,-2.0394,-2.0227,-2.0128,-1.9938,-1.9813,-1.9683,-1.9433,-1.9294,-1.9279,-1.9272,-1.9272,-1.9272,-1.9272,-1.9272,-1.9272,-1.9272,-1.9272,-1.9272,-1.9272,-1.9272,-1.9272,-1.9272,-1.9272,-1.9272,-1.9272,-1.9272,-1.9272,-1.9272,-1.9272,-1.9272,-1.9272,-1.9272,-1.9272,-1.9272,-1.9272,-1.9272,-1.9272,-1.9272,-1.9272,-1.9272,-1.948,-1.968,-1.968,-1.9828,-1.9732,-1.9524,-1.9285,-1.9071,-1.8949,-1.8915,-1.9443,-2.0136,-2.1182,-1.1582,-1.1909,-1.3091,-1.4063,-1.4907,-1.5624,-1.6716,-1.7941,-1.8716,-1.9361,-2.0075,-2.0722,-2.1102,-2.1102,-2.1102,-2.1102,-2.1102,-2.1102,-2.1102,-2.1102,-2.1102,-2.1102,-2.1022,-2.0501,-2.0294,-2.0074,-1.9673,-1.9482,-1.9591,-1.9591,-1.9931,-2.0328,-2.0493,-2.073,-2.1089,-2.1211,-2.1211,-2.1211,-2.1211,-2.1211,-2.1211,-2.1211,-2.1211,-2.1211,-2.1211,-2.1211,-2.1211,-2.1211,-2.1211,-2.1211,-2.1211,-2.1211,-2.1211,-2.1211,-2.1211,-2.1211,-2.1211,-2.1211,-2.1203,-2.1042,-2.0984,-2.0962,-2.0801,-2.0655,-2.0516,-2.034,-2.0098,-1.9798,-1.972,-1.95,-1.936,-1.9279,-1.9272,-1.9272,-1.9272,-1.9272,-1.9272,-1.9272,-1.9272,-1.9272,-1.9272,-1.9272,-1.9272,-1.9272,-1.9272,-1.9272,-1.9272,-1.9272,-1.9272,-1.9272,-1.9272,-1.9272,-1.9272,-1.9272,-1.9272,-1.9272,-1.9272,-1.9272,-1.9272,-1.9272,-1.9272,-1.9272,-1.9272,-1.9376,-1.9324,-1.9272,-1.9324,-1.9413,-1.8898,-1.8496,-1.8522,-1.8614,-1.8615,-1.9066,-2.023,-1.1383,-1.1714,-1.2107,-1.3091,-1.4259,-1.4455,-1.5298,-1.6592,-1.7619,-1.8262,-1.878,-1.9686,-2.0329,-2.0652,-2.0912,-2.1102,-2.1102,-2.1102,-2.1102,-2.1102,-2.1102,-2.1089,-2.0869,-2.0548,-2.0133,-2.0013,-1.9633,-1.943,-1.9424,-1.9424,-1.9707,-2.0104,-2.0213,-2.0558,-2.0974,-2.1146,-2.1146,-2.1211,-2.1211,-2.1211,-2.1211,-2.1211,-2.1211,-2.1211,-2.1211,-2.1211,-2.1211,-2.1211,-2.1211,-2.1211,-2.1211,-2.1211,-2.1211,-2.1211,-2.1211,-2.1211,-2.1211,-2.1211,-2.1203,-2.1196,-2.1159,-2.1145,-2.1189,-2.105,-2.0874,-2.0662,-2.0428,-1.9977,-1.9793,-1.9647,-1.9397,-1.9279,-1.9272,-1.9272,-1.9272,-1.9272,-1.9272,-1.9272,-1.9272,-1.9272,-1.9272,-1.9272,-1.9272,-1.9272,-1.9272,-1.9272,-1.9272,-1.9272,-1.9272,-1.9272,-1.9272,-1.9272,-1.9272,-1.9272,-1.9272,-1.9272,-1.9272,-1.9272,-1.9272,-1.9272,-1.9272,-1.9272,-1.9272,-1.9272,-1.9272,-1.9272,-1.9272,-1.9235,-1.8957,-1.8686,-1.8445,-1.848,-1.8727,-1.8886,-1.9529,-1.1251,-1.1314,-1.1975,-1.2441,-1.27,-1.303,-1.3875,-1.5103,-1.5489,-1.6138,-1.7238,-1.756,-1.8332,-1.9361,-2.0589,-2.0976,-2.1102,-2.1102,-2.1102,-2.1102,-2.1069,-2.0949,-2.0728,-2.0408,-2.0087,-1.9887,-1.9539,-1.9444,-1.9424,-1.9424,-1.9533,-1.9873,-2.0213,-2.0443,-2.0788,-2.1089,-2.1211,-2.1211,-2.1211,-2.1211,-2.1211,-2.1211,-2.1211,-2.1211,-2.1211,-2.1211,-2.1211,-2.1211,-2.1211,-2.1211,-2.1211,-2.1211,-2.1211,-2.1211,-2.1211,-2.1211,-2.1211,-2.1211,-2.1211,-2.1211,-2.1211,-2.1211,-2.1211,-2.1189,-2.1072,-2.081,-2.0523,-1.9896,-1.9837,-1.9713,-1.947,-1.9346,-1.9279,-1.9272,-1.9272,-1.9272,-1.9272,-1.9272,-1.9272,-1.9272,-1.9272,-1.9272,-1.9272,-1.9272,-1.9272,-1.9272,-1.9272,-1.9272,-1.9272,-1.9272,-1.9272,-1.9272,-1.9272,-1.9272,-1.9272,-1.9272,-1.9272,-1.9272,-1.9272,-1.9272,-1.9272,-1.9272,-1.9272,-1.9272,-1.9272,-1.9272,-1.9272,-1.9206,-1.9067,-1.8825,-1.8503,-1.8713,-1.9138,-1.9192,-1.8953,-1.1049,-1.1251,-1.178,-1.2114,-1.2375,-1.2638,-1.3157,-1.3809,-1.4586,-1.5233,-1.5944,-1.6721,-1.7748,-1.8844,-1.975,-2.0335,-2.0912,-2.0963,-2.1102,-2.0966,-2.0942,-2.0788,-2.0595,-2.0227,-1.9887,-1.976,-1.9598,-1.9437,-1.9424,-1.9424,-1.9533,-1.9815,-2.0162,-2.0436,-2.0666,-2.1024,-2.1146,-2.1211,-2.1211,-2.1211,-2.1211,-2.1211,-2.1211,-2.1211,-2.1211,-2.1211,-2.1211,-2.1211,-2.1211,-2.1211,-2.1211,-2.1211,-2.1211,-2.1211,-2.1211,-2.1211,-2.1211,-2.1211,-2.1211,-2.1211,-2.1211,-2.1211,-2.1211,-2.1203,-2.1181,-2.1064,-2.0815,-2.0369,-2.0135,-1.9879,-1.9572,-1.9381,-1.9301,-1.9272,-1.9272,-1.9272,-1.9272,-1.9272,-1.9272,-1.9272,-1.9272,-1.9272,-1.9272,-1.9272,-1.9272,-1.9272,-1.9272,-1.9272,-1.9272,-1.9272,-1.9272,-1.9272,-1.9272,-1.9272,-1.9272,-1.9272,-1.9272,-1.9272,-1.9272,-1.9272,-1.9272,-1.9272,-1.9272,-1.9272,-1.9272,-1.9272,-1.9272,-1.9228,-1.9192,-1.8847,-1.8525,-1.866,-1.873,-1.8214,-1.807,-1.085,-1.1115,-1.1516,-1.1846,-1.2177,-1.2507,-1.2704,-1.2968,-1.3875,-1.4324,-1.4777,-1.5749,-1.7039,-1.7941,-1.8326,-1.917,-2.0456,-2.0201,-2.0554,-2.0645,-2.0466,-2.02,-2.0186,-1.9967,-1.9773,-1.9693,-1.9479,-1.943,-1.9424,-1.9424,-1.9475,-1.97,-1.9989,-2.0213,-2.05,-2.0795,-2.1089,-2.1211,-2.1211,-2.1211,-2.1211,-2.1211,-2.1211,-2.1211,-2.1211,-2.1211,-2.1211,-2.1211,-2.1211,-2.1211,-2.1211,-2.1211,-2.1211,-2.1211,-2.1211,-2.1211,-2.1211,-2.1211,-2.1211,-2.1211,-2.1211,-2.1211,-2.1211,-2.1211,-2.1203,-2.1203,-2.1064,-2.0669,-2.0501,-2.0172,-1.9828,-1.952,-1.9403,-1.933,-1.9272,-1.9272,-1.9272,-1.9272,-1.9272,-1.9272,-1.9272,-1.9272,-1.9272,-1.9272,-1.9272,-1.9272,-1.9272,-1.9272,-1.9272,-1.9272,-1.9272,-1.9272,-1.9272,-1.9272,-1.9272,-1.9272,-1.9272,-1.9272,-1.9272,-1.9272,-1.9272,-1.9272,-1.9272,-1.9272,-1.9272,-1.9272,-1.9272,-1.925,-1.9258,-1.8964,-1.8694,-1.8313,-1.8066,-1.7596,-1.7394,-1.0721,-1.0787,-1.1118,-1.1512,-1.1846,-1.2177,-1.2507,-1.277,-1.2968,-1.3095,-1.3354,-1.4381,-1.5139,-1.5654,-1.6706,-1.7797,-1.9057,-1.7621,-1.8629,-1.9399,-1.9394,-1.9098,-1.9361,-1.9575,-1.9587,-1.9524,-1.943,-1.943,-1.9424,-1.9424,-1.9424,-1.9482,-1.9815,-1.9815,-2.004,-2.05,-2.091,-2.1089,-2.1146,-2.1153,-2.1211,-2.1211,-2.1211,-2.1211,-2.1211,-2.1211,-2.1211,-2.1211,-2.1211,-2.1211,-2.1211,-2.1211,-2.1211,-2.1211,-2.1211,-2.1211,-2.1211,-2.1211,-2.1211,-2.1211,-2.1211,-2.1211,-2.1211,-2.1211,-2.1211,-2.1211,-2.105,-2.0815,-2.0676,-2.0362,-2.0003,-1.9757,-1.9595,-1.936,-1.9272,-1.9272,-1.9272,-1.9272,-1.9272,-1.9272,-1.9272,-1.9272,-1.9272,-1.9272,-1.9272,-1.9272,-1.9272,-1.9272,-1.9272,-1.9272,-1.9272,-1.9272,-1.9272,-1.9272,-1.9272,-1.9272,-1.9272,-1.9272,-1.9272,-1.9272,-1.9272,-1.9272,-1.9272,-1.9272,-1.9272,-1.9272,-1.9272,-1.9257,-1.9213,-1.9111,-1.8855,-1.8438,-1.8021,-1.7625,-1.7381,-1.0721,-1.0721,-1.0853,-1.1251,-1.185,-1.2177,-1.2507,-1.277,-1.277,-1.277,-1.2824,-1.3301,-1.3949,-1.4685,-1.5077,-1.6166,-1.7218,-1.6895,-1.7349,-1.7511,-1.7399,-1.7648,-1.8181,-1.8591,-1.8686,-1.9205,-1.9366,-1.9424,-1.9424,-1.9424,-1.9424,-1.9482,-1.9642,-1.9758,-1.9989,-2.0213,-2.0558,-2.0788,-2.0902,-2.0967,-2.1211,-2.1211,-2.1211,-2.1211,-2.1211,-2.1211,-2.1211,-2.1211,-2.1211,-2.1211,-2.1211,-2.1211,-2.1211,-2.1211,-2.1211,-2.1211,-2.1211,-2.1211,-2.1211,-2.1211,-2.1211,-2.1211,-2.1211,-2.1211,-2.1211,-2.1211,-2.1167,-2.1013,-2.0837,-2.0523,-2.0179,-1.9879,-1.9691,-1.9396,-1.9272,-1.9272,-1.9272,-1.9272,-1.9272,-1.9272,-1.9272,-1.9272,-1.9272,-1.9272,-1.9272,-1.9272,-1.9272,-1.9272,-1.9272,-1.9272,-1.9272,-1.9272,-1.9272,-1.9272,-1.9272,-1.9272,-1.9272,-1.9272,-1.9272,-1.9272,-1.9272,-1.9272,-1.9272,-1.9272,-1.9272,-1.9272,-1.9272,-1.9272,-1.9235,-1.9169,-1.8891,-1.8496,-1.8086,-1.7662,-1.7447,-1.0588,-1.0588,-1.0588,-1.0968,-1.1637,-1.1978,-1.2339,-1.2562,-1.2685,-1.2718,-1.2674,-1.2604,-1.2995,-1.3703,-1.3879,-1.4562,-1.5359,-1.5293,-1.5679,-1.583,-1.5946,-1.6194,-1.6774,-1.7227,-1.755,-1.859,-1.8887,-1.8829,-1.9424,-1.9424,-1.9424,-1.9482,-1.9591,-1.9649,-1.9764,-1.9989,-2.027,-2.0493,-2.0608,-2.0666,-2.0917,-2.1024,-2.1024,-2.1081,-2.1146,-2.1211,-2.1211,-2.1211,-2.1211,-2.1211,-2.1211,-2.1211,-2.1211,-2.1211,-2.1211,-2.1211,-2.1211,-2.1211,-2.1211,-2.1211,-2.1211,-2.1211,-2.1211,-2.1211,-2.1211,-2.1211,-2.1181,-2.1181,-2.0976,-2.0728,-2.0343,-2.0135,-1.9828,-1.9586,-1.9323,-1.9272,-1.9272,-1.9272,-1.9272,-1.9272,-1.9272,-1.9272,-1.9272,-1.9272,-1.9272,-1.9272,-1.9272,-1.9272,-1.9272,-1.9272,-1.9272,-1.9272,-1.9272,-1.9272,-1.9272,-1.9272,-1.9272,-1.9272,-1.9272,-1.9272,-1.9272,-1.9272,-1.9272,-1.9272,-1.9272,-1.9272,-1.9272,-1.9272,-1.9272,-1.9264,-1.8928,-1.8569,-1.8094,-1.7691,-1.7468,-1.0304,-1.029,-1.0304,-1.0657,-1.1205,-1.1641,-1.1872,-1.2128,-1.2439,-1.2495,-1.2377,-1.2324,-1.2308,-1.2548,-1.262,-1.3265,-1.3856,-1.3194,-1.3496,-1.4842,-1.4309,-1.461,-1.5245,-1.5817,-1.6273,-1.7279,-1.7812,-1.8409,-1.9185,-1.9366,-1.9366,-1.9424,-1.9482,-1.9482,-1.9417,-1.97,-1.9989,-2.0277,-2.0328,-2.0328,-2.0443,-2.0666,-2.0723,-2.0845,-2.1024,-2.1089,-2.1203,-2.1211,-2.1211,-2.1211,-2.1211,-2.1211,-2.1211,-2.1211,-2.1211,-2.1211,-2.1211,-2.1211,-2.1211,-2.1211,-2.1211,-2.1211,-2.1211,-2.1211,-2.1211,-2.1211,-2.1211,-2.1203,-2.1145,-2.0984,-2.0713,-2.0391,-2.0047,-1.9725,-1.9455,-1.9272,-1.9272,-1.9272,-1.9272,-1.9272,-1.9272,-1.9272,-1.9272,-1.9272,-1.9272,-1.9272,-1.9272,-1.9272,-1.9272,-1.9272,-1.9272,-1.9272,-1.9272,-1.9272,-1.9272,-1.9272,-1.9272,-1.9272,-1.9272,-1.9272,-1.9272,-1.9272,-1.9272,-1.9272,-1.9272,-1.9272,-1.9272,-1.9272,-1.9272,-1.9242,-1.8986,-1.8621,-1.813,-1.7757,-1.7534,-1.0343,-1.0343,-1.0343,-1.0401,-1.0616,-1.1009,-1.1422,-1.1888,-1.2199,-1.2357,-1.2288,-1.2186,-1.2125,-1.2097,-1.202,-1.2282,-1.2498,-1.2472,-1.2885,-1.2998,-1.275,-1.3329,-1.4028,-1.4619,-1.5149,-1.622,-1.6926,-1.763,-1.8104,-1.8946,-1.9366,-1.9424,-1.9127,-1.9424,-1.9424,-1.9533,-1.9707,-1.9931,-1.9982,-2.004,-2.0277,-2.0385,-2.0493,-2.0666,-2.078,-2.0967,-2.1203,-2.1211,-2.1211,-2.1211,-2.1211,-2.1211,-2.1211,-2.1211,-2.1211,-2.1211,-2.1203,-2.1211,-2.1211,-2.1211,-2.1211,-2.1211,-2.1211,-2.1211,-2.1211,-2.1211,-2.1211,-2.1211,-2.1211,-2.1035,-2.0742,-2.042,-2.0084,-1.9769,-1.9513,-1.933,-1.9272,-1.9272,-1.9272,-1.9272,-1.9272,-1.9272,-1.9272,-1.9272,-1.9272,-1.9272,-1.9272,-1.9272,-1.9272,-1.9272,-1.9272,-1.9272,-1.9272,-1.9272,-1.9272,-1.9272,-1.9272,-1.9272,-1.9272,-1.9272,-1.9272,-1.9272,-1.9272,-1.9272,-1.9272,-1.9272,-1.9272,-1.9272,-1.9272,-1.9191,-1.9001,-1.8752,-1.8343,-1.7947,-1.7655,-1.012,-1.0124,-1.012,-1.012,-1.0203,-1.0612,-1.1139,-1.1709,-1.1967,-1.2125,-1.2093,-1.1987,-1.1943,-1.1906,-1.1837,-1.1837,-1.1837,-1.1837,-1.1841,-1.1837,-1.1837,-1.2724,-1.343,-1.3784,-1.503,-1.5919,-1.6926,-1.7689,-1.8409,-1.9004,-1.9062,-1.8648,-1.8357,-1.8233,-1.8532,-1.9004,-1.9482,-1.9649,-1.9707,-1.9758,-1.9931,-2.0104,-2.027,-2.05,-2.0673,-2.0845,-2.1089,-2.1211,-2.1211,-2.1211,-2.1211,-2.1211,-2.1211,-2.1211,-2.1211,-2.1203,-2.1081,-2.1081,-2.1024,-2.0852,-2.0852,-2.0967,-2.1089,-2.1203,-2.1211,-2.1211,-2.1211,-2.1211,-2.1211,-2.1101,-2.0881,-2.0552,-2.0172,-1.9857,-1.9579,-1.9396,-1.9272,-1.9272,-1.9272,-1.9272,-1.9272,-1.9272,-1.9272,-1.9272,-1.9272,-1.9272,-1.9272,-1.9272,-1.9272,-1.9272,-1.9272,-1.9272,-1.9272,-1.9272,-1.9272,-1.9272,-1.9272,-1.9272,-1.9272,-1.9272,-1.9272,-1.9272,-1.9272,-1.9272,-1.9272,-1.9272,-1.9272,-1.9272,-1.9272,-1.9235,-1.9133,-1.8855,-1.8525,-1.8211,-1.7882,-0.9825,-0.9819,-0.9822,-0.9836,-0.9937,-1.0499,-1.1036,-1.1518,-1.1679,-1.1801,-1.1849,-1.1809,-1.1809,-1.1792,-1.1837,-1.1837,-1.1837,-1.1837,-1.1837,-1.1837,-1.1837,-1.2603,-1.3075,-1.3485,-1.4321,-1.6037,-1.7038,-1.6921,-1.8829,-1.8596,-1.8117,-1.7461,-1.6632,-1.6868,-1.7519,-1.8175,-1.8894,-1.9243,-1.9482,-1.9533,-1.9649,-1.9519,-1.9809,-2.009,-2.0321,-2.0615,-2.0967,-2.1211,-2.1211,-2.1211,-2.1211,-2.1211,-2.1211,-2.1203,-2.1203,-2.1089,-2.0838,-2.0723,-2.0666,-2.05,-2.05,-2.073,-2.091,-2.1089,-2.1146,-2.1146,-2.1211,-2.1211,-2.1211,-2.1211,-2.1115,-2.0698,-2.0234,-1.9967,-1.9638,-1.9462,-1.9308,-1.9272,-1.9272,-1.9272,-1.9272,-1.9272,-1.9272,-1.9272,-1.9272,-1.9272,-1.9272,-1.9272,-1.9272,-1.9272,-1.9272,-1.9272,-1.9272,-1.9272,-1.9272,-1.9272,-1.9272,-1.9272,-1.9272,-1.9272,-1.9272,-1.9272,-1.9272,-1.9272,-1.9272,-1.9272,-1.9272,-1.9272,-1.9272,-1.9228,-1.9191,-1.9008,-1.8694,-1.8511,-1.8218,-0.9819,-0.9819,-0.9819,-0.9819,-0.9893,-1.0285,-1.066,-1.1039,-1.1292,-1.1583,-1.1837,-1.1837,-1.1837,-1.1837,-1.1837,-1.1837,-1.1837,-1.1837,-1.1837,-1.1837,-1.1837,-1.207,-1.2307,-1.2664,-1.3024,-1.3734,-1.456,-1.5505,-1.5623,-1.622,-1.6703,-1.6048,-1.551,-1.5747,-1.6101,-1.652,-1.7766,-1.8713,-1.901,-1.901,-1.8829,-1.8519,-1.9042,-1.9506,-1.9261,-1.9673,-2.05,-2.0917,-2.0974,-2.1031,-2.1146,-2.1203,-2.1211,-2.0967,-2.0788,-2.0565,-2.0443,-2.0443,-2.0443,-2.0328,-2.0328,-2.0378,-2.0558,-2.0673,-2.0852,-2.1031,-2.1146,-2.1211,-2.1211,-2.1211,-2.1137,-2.0808,-2.0424,-2.0186,-1.985,-1.9564,-1.9418,-1.9301,-1.9301,-1.9272,-1.9272,-1.9272,-1.9272,-1.9272,-1.9272,-1.9272,-1.9272,-1.9272,-1.9272,-1.9272,-1.9272,-1.9272,-1.9272,-1.9272,-1.9272,-1.9272,-1.9272,-1.9272,-1.9272,-1.9272,-1.9272,-1.9272,-1.9272,-1.9272,-1.9272,-1.9272,-1.9272,-1.9272,-1.9272,-1.9272,-1.9228,-1.906,-1.8884,-1.8694,-1.8467,-0.9819,-0.9819,-0.9819,-0.9819,-0.9822,-1.0001,-1.0308,-1.0668,-1.1088,-1.1518,-1.1776,-1.1837,-1.1837,-1.1837,-1.1837,-1.1837,-1.1837,-1.1837,-1.1837,-1.1837,-1.1837,-1.2311,-1.2367,-1.2548,-1.32,-1.338,-1.3854,-1.4976,-1.4441,-1.4381,-1.4857,-1.4798,-1.4505,-1.4505,-1.4738,-1.509,-1.5983,-1.7109,-1.776,-1.7883,-1.7642,-1.722,-1.7806,-1.8267,-1.7735,-1.8435,-1.9319,-1.973,-2.0155,-2.027,-2.0385,-2.0852,-2.0852,-2.0615,-2.0385,-2.022,-2.0097,-2.0097,-2.0097,-1.9989,-2.0097,-2.0213,-2.027,-2.0436,-2.0666,-2.0845,-2.1031,-2.1153,-2.1211,-2.1189,-2.1072,-2.0933,-2.0691,-2.0394,-2.0077,-1.9757,-1.9573,-1.9367,-1.9316,-1.9279,-1.9272,-1.9272,-1.9272,-1.9272,-1.9272,-1.9272,-1.9272,-1.9272,-1.9272,-1.9272,-1.9272,-1.9272,-1.9272,-1.9272,-1.9272,-1.9272,-1.9272,-1.9272,-1.9272,-1.9272,-1.9272,-1.9272,-1.9272,-1.9272,-1.9272,-1.9272,-1.9272,-1.9272,-1.9272,-1.9272,-1.9272,-1.9177,-1.9023,-1.8855,-1.8606,-0.9819,-0.9819,-0.9819,-0.9819,-0.9819,-0.9822,-1.0001,-1.0365,-1.091,-1.1402,-1.1712,-1.1772,-1.1837,-1.1837,-1.1837,-1.1837,-1.1837,-1.1837,-1.1837,-1.1837,-1.1837,-1.2191,-1.284,-1.3495,-1.32,-1.4505,-1.4981,-1.4147,-1.4565,-1.4207,-1.3555,-1.3485,-1.2664,-1.2664,-1.343,-1.355,-1.4207,-1.4976,-1.5391,-1.5515,-1.5806,-1.5688,-1.5623,-1.6085,-1.6079,-1.625,-1.6897,-1.7612,-1.8389,-1.8861,-1.9506,-2.027,-2.027,-2.027,-2.0046,-1.9693,-1.9519,-1.9584,-1.9526,-1.9352,-1.9642,-1.9873,-2.0213,-2.027,-2.0378,-2.0666,-2.091,-2.0974,-2.0967,-2.0917,-2.0773,-2.0672,-2.0492,-2.0395,-2.0153,-1.9891,-1.9667,-1.9477,-1.9294,-1.9272,-1.9272,-1.9272,-1.9272,-1.9272,-1.9272,-1.9272,-1.9272,-1.9272,-1.9272,-1.9272,-1.922,-1.9272,-1.9272,-1.9272,-1.9272,-1.9272,-1.9272,-1.9272,-1.9272,-1.9272,-1.9272,-1.9272,-1.9272,-1.9272,-1.9272,-1.9272,-1.9272,-1.9272,-1.9272,-1.9272,-1.9272,-1.9272,-1.9162,-1.9001,-1.8811,-0.9819,-0.9819,-0.9819,-0.9819,-0.9819,-0.9819,-1.0001,-1.0308,-1.0425,-1.0849,-1.1398,-1.1647,-1.1837,-1.1837,-1.1837,-1.1837,-1.1837,-1.1837,-1.1837,-1.1837,-1.1837,-1.1953,-1.2247,-1.2548,-1.2668,-1.2548,-1.2728,-1.3024,-1.3024,-1.2608,-1.2311,-1.2307,-1.1837,-1.213,-1.2427,-1.2427,-1.2724,-1.32,-1.326,-1.4033,-1.5035,-1.4733,-1.455,-1.5074,-1.5306,-1.5306,-1.6133,-1.7554,-1.8156,-1.8622,-1.9679,-2.004,-1.9931,-1.9866,-1.97,-1.9417,-1.8519,-1.8583,-1.8706,-1.8532,-1.8583,-1.9178,-1.9584,-1.9758,-2.004,-2.0436,-2.0666,-2.0666,-2.0673,-2.0615,-2.0537,-2.0444,-2.0409,-2.0322,-2.0282,-2.003,-1.9828,-1.9564,-1.9323,-1.9272,-1.9272,-1.9272,-1.9272,-1.9272,-1.9272,-1.9272,-1.9272,-1.9272,-1.922,-1.922,-1.9116,-1.9168,-1.9272,-1.9272,-1.9272,-1.9272,-1.9272,-1.9272,-1.9272,-1.9272,-1.9272,-1.9272,-1.9272,-1.9272,-1.9272,-1.9272,-1.9272,-1.9272,-1.9272,-1.9272,-1.9272,-1.9272,-1.9272,-1.9155,-1.8994,-0.9819,-0.9819,-0.9819,-0.9819,-0.9819,-0.9819,-0.9883,-1.0061,-1.0243,-1.0486,-1.091,-1.1341,-1.1647,-1.1772,-1.1837,-1.1837,-1.1837,-1.1837,-1.1837,-1.1837,-1.1837,-1.1837,-1.1837,-1.1837,-1.1953,-1.1837,-1.1837,-1.1953,-1.1837,-1.1837,-1.1897,-1.1837,-1.1837,-1.1837,-1.1837,-1.1837,-1.1837,-1.1897,-1.1837,-1.2668,-1.4088,-1.349,-1.3135,-1.3665,-1.378,-1.4013,-1.5133,-1.6497,-1.7331,-1.7864,-1.8687,-1.8273,-1.7981,-1.7689,-1.7753,-1.7525,-1.7109,-1.6991,-1.7343,-1.7343,-1.7337,-1.8169,-1.8052,-1.7917,-1.9744,-2.0141,-1.9903,-1.9968,-2.0385,-2.0385,-2.0385,-2.0322,-2.0473,-2.0459,-2.0314,-2.0108,-1.9895,-1.9674,-1.944,-1.9272,-1.9272,-1.9272,-1.9272,-1.9272,-1.9272,-1.922,-1.922,-1.9123,-1.9071,-1.9063,-1.9011,-1.9011,-1.9116,-1.922,-1.9272,-1.9272,-1.9272,-1.9272,-1.9272,-1.9272,-1.9272,-1.9272,-1.9272,-1.9272,-1.9272,-1.9272,-1.9272,-1.9279,-1.9272,-1.9272,-1.9272,-1.9272,-1.9272,-1.9272,-1.9155,-0.9819,-0.9819,-0.9819,-0.9819,-0.9819,-0.9819,-0.9819,-0.9883,-1.0122,-1.0243,-1.0425,-1.091,-1.1337,-1.1647,-1.1837,-1.1837,-1.1837,-1.1837,-1.1837,-1.1837,-1.1837,-1.1837,-1.1837,-1.1837,-1.1837,-1.1837,-1.1837,-1.1837,-1.1837,-1.1837,-1.1837,-1.1837,-1.1837,-1.1837,-1.1837,-1.1837,-1.1837,-1.1837,-1.1837,-1.1837,-1.1893,-1.1837,-1.2014,-1.1953,-1.1893,-1.2427,-1.349,-1.4674,-1.5978,-1.6568,-1.7097,-1.6862,-1.6514,-1.6279,-1.6161,-1.5983,-1.5688,-1.5628,-1.5806,-1.5688,-1.6332,-1.685,-1.6262,-1.6909,-1.8732,-1.9022,-1.8784,-1.9061,-1.9479,-2.0019,-2.0019,-2.0069,-2.0221,-2.0401,-2.0182,-1.9898,-1.9692,-1.9556,-1.9437,-1.9219,-1.9168,-1.9168,-1.9168,-1.9168,-1.9168,-1.9116,-1.9063,-1.8914,-1.881,-1.875,-1.8691,-1.8743,-1.8795,-1.8952,-1.9168,-1.9227,-1.9175,-1.9272,-1.9272,-1.9272,-1.9272,-1.9227,-1.9175,-1.9272,-1.9272,-1.9116,-1.9175,-1.9227,-1.9227,-1.9272,-1.9272,-1.9272,-1.9272,-1.9272,-1.9272,-0.9819,-0.9819,-0.9819,-0.9819,-0.9819,-0.9819,-0.9819,-0.9822,-0.9879,-1.0065,-1.0304,-1.0425,-1.0789,-1.1398,-1.1712,-1.1776,-1.1837,-1.1837,-1.1837,-1.1837,-1.1837,-1.1837,-1.1837,-1.1837,-1.1837,-1.1837,-1.1837,-1.1837,-1.1837,-1.1837,-1.1837,-1.1837,-1.1837,-1.1837,-1.1837,-1.1837,-1.1837,-1.1837,-1.1837,-1.1837,-1.1837,-1.1837,-1.1837,-1.1837,-1.1837,-1.1953,-1.2487,-1.343,-1.4023,-1.4619,-1.5332,-1.5569,-1.5332,-1.5095,-1.5095,-1.4798,-1.4441,-1.4505,-1.4565,-1.4326,-1.4966,-1.5795,-1.544,-1.5542,-1.6598,-1.6633,-1.6622,-1.6996,-1.7707,-1.8912,-1.9092,-1.9123,-1.9219,-1.961,-1.9652,-1.9027,-1.8597,-1.8874,-1.901,-1.8826,-1.8691,-1.8691,-1.8691,-1.8691,-1.8691,-1.8639,-1.8639,-1.8482,-1.822,-1.8265,-1.8265,-1.8258,-1.8258,-1.8698,-1.8914,-1.9018,-1.9071,-1.9175,-1.9279,-1.9227,-1.9123,-1.9026,-1.9071,-1.9063,-1.8952,-1.8795,-1.8907,-1.913,-1.9175,-1.9227,-1.9272,-1.9272,-1.9272,-1.9272,-1.9272]}]]